<?xml version="1.0" encoding="UTF-8" standalone="yes"?>
<gpx
 xmlns="http://www.topografix.com/GPX/1/1"
 creator="OziExplorer Version 3956f - http://www.oziexplorer.com"
 version="1.1"
 xmlns:xsi="http://www.w3.org/2001/XMLSchema-instance"
 xsi:schemaLocation="http://www.topografix.com/GPX/1/1 http://www.topografix.com/GPX/1/1/gpx.xsd">
<metadata>
 <time>2023-03-16T16:34:37Z</time>
 <bounds minlat="31.589820" minlon="35.356890" maxlat="31.690620" maxlon="35.428320"/>
</metadata>
<wpt lat="31.6771100" lon="35.4283200">
 <time>2023-03-16T18:33:48.635Z</time>
 <name>Tatspit</name>
 <cmt>Mitspe Nahal Ial</cmt>
 <desc>Mitspe Nahal Ial</desc>
 <sym>Flag, Red</sym>
</wpt>
<wpt lat="31.6355000" lon="35.4075600">
 <time>2023-03-16T18:33:48.656Z</time>
 <name>Tatspit</name>
 <sym>Flag, Red</sym>
</wpt>
<wpt lat="31.6017000" lon="35.3971900">
 <time>2023-03-16T18:33:48.656Z</time>
 <name>Tatspit</name>
 <sym>Flag, Red</sym>
</wpt>
<wpt lat="31.6106500" lon="35.3973900">
 <time>2023-03-16T18:33:48.656Z</time>
 <name>Tatspit</name>
 <sym>Flag, Red</sym>
</wpt>
<wpt lat="31.5898200" lon="35.3927200">
 <time>2023-03-16T18:33:48.656Z</time>
 <name>Start\Fin</name>
 <sym>Bike Trail</sym>
</wpt>
<wpt lat="31.6805900" lon="35.4186100">
 <time>2023-03-16T18:33:48.656Z</time>
 <name>Tatspit</name>
 <cmt>Shitfonot Mapal</cmt>
 <desc>Shitfonot Mapal</desc>
 <sym>Flag, Red</sym>
</wpt>
<trk>
 <name>MetsDragot_round_V2_39km.750m</name>
 <desc>MetsDragot_round_V2_39km.750m</desc>
<trkseg>
<trkpt lat="31.5898200" lon="35.3927200">
<ele>-4.180000</ele>
<time>2023-03-16T18:33:48.656Z</time>
</trkpt>
<trkpt lat="31.5898200" lon="35.3927200">
<ele>-4.180000</ele>
<time>2023-03-16T18:33:48.656Z</time>
</trkpt>
<trkpt lat="31.5898600" lon="35.3926900">
<ele>-4.630000</ele>
<time>2023-03-16T18:33:48.656Z</time>
</trkpt>
<trkpt lat="31.5899100" lon="35.3926400">
<ele>-5.170000</ele>
<time>2023-03-16T18:33:48.656Z</time>
</trkpt>
<trkpt lat="31.5899600" lon="35.3925800">
<ele>-5.630000</ele>
<time>2023-03-16T18:33:48.656Z</time>
</trkpt>
<trkpt lat="31.5900200" lon="35.3925200">
<ele>-5.940000</ele>
<time>2023-03-16T18:33:48.656Z</time>
</trkpt>
<trkpt lat="31.5900600" lon="35.3924600">
<ele>-5.910000</ele>
<time>2023-03-16T18:33:48.656Z</time>
</trkpt>
<trkpt lat="31.5901000" lon="35.3923900">
<ele>-5.570000</ele>
<time>2023-03-16T18:33:48.656Z</time>
</trkpt>
<trkpt lat="31.5901300" lon="35.3923100">
<ele>-5.040000</ele>
<time>2023-03-16T18:33:48.656Z</time>
</trkpt>
<trkpt lat="31.5901600" lon="35.3921700">
<ele>-4.060000</ele>
<time>2023-03-16T18:33:48.656Z</time>
</trkpt>
<trkpt lat="31.5901700" lon="35.3918800">
<ele>-3.400000</ele>
<time>2023-03-16T18:33:48.656Z</time>
</trkpt>
<trkpt lat="31.5901900" lon="35.3917500">
<ele>-3.980000</ele>
<time>2023-03-16T18:33:48.656Z</time>
</trkpt>
<trkpt lat="31.5902100" lon="35.3916700">
<ele>-4.200000</ele>
<time>2023-03-16T18:33:48.656Z</time>
</trkpt>
<trkpt lat="31.5902600" lon="35.3915000">
<ele>-4.560000</ele>
<time>2023-03-16T18:33:48.656Z</time>
</trkpt>
<trkpt lat="31.5903900" lon="35.3911900">
<ele>-5.220000</ele>
<time>2023-03-16T18:33:48.656Z</time>
</trkpt>
<trkpt lat="31.5905200" lon="35.3907400">
<ele>-6.720000</ele>
<time>2023-03-16T18:33:48.656Z</time>
</trkpt>
<trkpt lat="31.5905700" lon="35.3904900">
<ele>-6.840000</ele>
<time>2023-03-16T18:33:48.656Z</time>
</trkpt>
<trkpt lat="31.5905800" lon="35.3902400">
<ele>-6.480000</ele>
<time>2023-03-16T18:33:48.656Z</time>
</trkpt>
<trkpt lat="31.5905800" lon="35.3898300">
<ele>-6.550000</ele>
<time>2023-03-16T18:33:48.656Z</time>
</trkpt>
<trkpt lat="31.5906000" lon="35.3896900">
<ele>-7.200000</ele>
<time>2023-03-16T18:33:48.656Z</time>
</trkpt>
<trkpt lat="31.5906300" lon="35.3895900">
<ele>-6.490000</ele>
<time>2023-03-16T18:33:48.656Z</time>
</trkpt>
<trkpt lat="31.5906800" lon="35.3894800">
<ele>-6.030000</ele>
<time>2023-03-16T18:33:48.656Z</time>
</trkpt>
<trkpt lat="31.5907400" lon="35.3894000">
<ele>-5.890000</ele>
<time>2023-03-16T18:33:48.656Z</time>
</trkpt>
<trkpt lat="31.5909400" lon="35.3892100">
<ele>-5.500000</ele>
<time>2023-03-16T18:33:48.656Z</time>
</trkpt>
<trkpt lat="31.5910400" lon="35.3890400">
<ele>-5.600000</ele>
<time>2023-03-16T18:33:48.656Z</time>
</trkpt>
<trkpt lat="31.5912500" lon="35.3888900">
<ele>-4.990000</ele>
<time>2023-03-16T18:33:48.656Z</time>
</trkpt>
<trkpt lat="31.5914200" lon="35.3888700">
<ele>-4.010000</ele>
<time>2023-03-16T18:33:48.656Z</time>
</trkpt>
<trkpt lat="31.5915700" lon="35.3889100">
<ele>-3.200000</ele>
<time>2023-03-16T18:33:48.656Z</time>
</trkpt>
<trkpt lat="31.5919700" lon="35.3891000">
<ele>-4.250000</ele>
<time>2023-03-16T18:33:48.656Z</time>
</trkpt>
<trkpt lat="31.5921900" lon="35.3892300">
<ele>-6.600000</ele>
<time>2023-03-16T18:33:48.656Z</time>
</trkpt>
<trkpt lat="31.5922900" lon="35.3892800">
<ele>-5.880000</ele>
<time>2023-03-16T18:33:48.656Z</time>
</trkpt>
<trkpt lat="31.5923500" lon="35.3893300">
<ele>-4.970000</ele>
<time>2023-03-16T18:33:48.656Z</time>
</trkpt>
<trkpt lat="31.5925200" lon="35.3895800">
<ele>-2.780000</ele>
<time>2023-03-16T18:33:48.656Z</time>
</trkpt>
<trkpt lat="31.5925600" lon="35.3897200">
<ele>-2.560000</ele>
<time>2023-03-16T18:33:48.656Z</time>
</trkpt>
<trkpt lat="31.5926000" lon="35.3901300">
<ele>-2.030000</ele>
<time>2023-03-16T18:33:48.656Z</time>
</trkpt>
<trkpt lat="31.5926100" lon="35.3907100">
<ele>-1.680000</ele>
<time>2023-03-16T18:33:48.656Z</time>
</trkpt>
<trkpt lat="31.5926300" lon="35.3908600">
<ele>-0.980000</ele>
<time>2023-03-16T18:33:48.656Z</time>
</trkpt>
<trkpt lat="31.5926300" lon="35.3908600">
<ele>-0.980000</ele>
<time>2023-03-16T18:33:48.656Z</time>
</trkpt>
<trkpt lat="31.5926300" lon="35.3908600">
<ele>-0.980000</ele>
<time>2023-03-16T18:33:48.656Z</time>
</trkpt>
<trkpt lat="31.5926300" lon="35.3909900">
<ele>-0.260000</ele>
<time>2023-03-16T18:33:48.656Z</time>
</trkpt>
<trkpt lat="31.5926100" lon="35.3910500">
<ele>-0.160000</ele>
<time>2023-03-16T18:33:48.656Z</time>
</trkpt>
<trkpt lat="31.5926000" lon="35.3911200">
<ele>0.140000</ele>
<time>2023-03-16T18:33:48.656Z</time>
</trkpt>
<trkpt lat="31.5926000" lon="35.3912000">
<ele>0.720000</ele>
<time>2023-03-16T18:33:48.656Z</time>
</trkpt>
<trkpt lat="31.5926100" lon="35.3912700">
<ele>1.330000</ele>
<time>2023-03-16T18:33:48.656Z</time>
</trkpt>
<trkpt lat="31.5926500" lon="35.3912900">
<ele>1.910000</ele>
<time>2023-03-16T18:33:48.656Z</time>
</trkpt>
<trkpt lat="31.5926800" lon="35.3912900">
<ele>2.230000</ele>
<time>2023-03-16T18:33:48.656Z</time>
</trkpt>
<trkpt lat="31.5927100" lon="35.3912600">
<ele>2.340000</ele>
<time>2023-03-16T18:33:48.656Z</time>
</trkpt>
<trkpt lat="31.5927500" lon="35.3912200">
<ele>2.480000</ele>
<time>2023-03-16T18:33:48.656Z</time>
</trkpt>
<trkpt lat="31.5928100" lon="35.3911700">
<ele>2.840000</ele>
<time>2023-03-16T18:33:48.656Z</time>
</trkpt>
<trkpt lat="31.5928600" lon="35.3911700">
<ele>3.480000</ele>
<time>2023-03-16T18:33:48.656Z</time>
</trkpt>
<trkpt lat="31.5930000" lon="35.3911600">
<ele>5.270000</ele>
<time>2023-03-16T18:33:48.656Z</time>
</trkpt>
<trkpt lat="31.5931000" lon="35.3911400">
<ele>5.980000</ele>
<time>2023-03-16T18:33:48.656Z</time>
</trkpt>
<trkpt lat="31.5932400" lon="35.3910900">
<ele>5.950000</ele>
<time>2023-03-16T18:33:48.656Z</time>
</trkpt>
<trkpt lat="31.5935000" lon="35.3909200">
<ele>4.990000</ele>
<time>2023-03-16T18:33:48.656Z</time>
</trkpt>
<trkpt lat="31.5937300" lon="35.3908200">
<ele>4.520000</ele>
<time>2023-03-16T18:33:48.656Z</time>
</trkpt>
<trkpt lat="31.5939800" lon="35.3907800">
<ele>5.850000</ele>
<time>2023-03-16T18:33:48.656Z</time>
</trkpt>
<trkpt lat="31.5941500" lon="35.3907800">
<ele>6.720000</ele>
<time>2023-03-16T18:33:48.656Z</time>
</trkpt>
<trkpt lat="31.5942800" lon="35.3908000">
<ele>8.560000</ele>
<time>2023-03-16T18:33:48.656Z</time>
</trkpt>
<trkpt lat="31.5945300" lon="35.3908900">
<ele>11.250001</ele>
<time>2023-03-16T18:33:48.656Z</time>
</trkpt>
<trkpt lat="31.5946700" lon="35.3909700">
<ele>11.410000</ele>
<time>2023-03-16T18:33:48.656Z</time>
</trkpt>
<trkpt lat="31.5948500" lon="35.3911100">
<ele>12.380000</ele>
<time>2023-03-16T18:33:48.656Z</time>
</trkpt>
<trkpt lat="31.5950500" lon="35.3912100">
<ele>12.940000</ele>
<time>2023-03-16T18:33:48.656Z</time>
</trkpt>
<trkpt lat="31.5951500" lon="35.3912200">
<ele>12.920000</ele>
<time>2023-03-16T18:33:48.656Z</time>
</trkpt>
<trkpt lat="31.5953300" lon="35.3911500">
<ele>13.540000</ele>
<time>2023-03-16T18:33:48.656Z</time>
</trkpt>
<trkpt lat="31.5954600" lon="35.3910800">
<ele>15.300000</ele>
<time>2023-03-16T18:33:48.656Z</time>
</trkpt>
<trkpt lat="31.5957300" lon="35.3909000">
<ele>19.840000</ele>
<time>2023-03-16T18:33:48.656Z</time>
</trkpt>
<trkpt lat="31.5959000" lon="35.3907600">
<ele>21.790001</ele>
<time>2023-03-16T18:33:48.656Z</time>
</trkpt>
<trkpt lat="31.5961000" lon="35.3905700">
<ele>22.100000</ele>
<time>2023-03-16T18:33:48.656Z</time>
</trkpt>
<trkpt lat="31.5961900" lon="35.3904800">
<ele>21.459999</ele>
<time>2023-03-16T18:33:48.656Z</time>
</trkpt>
<trkpt lat="31.5962800" lon="35.3903000">
<ele>20.160000</ele>
<time>2023-03-16T18:33:48.656Z</time>
</trkpt>
<trkpt lat="31.5966100" lon="35.3896300">
<ele>17.740000</ele>
<time>2023-03-16T18:33:48.656Z</time>
</trkpt>
<trkpt lat="31.5967300" lon="35.3894500">
<ele>17.010000</ele>
<time>2023-03-16T18:33:48.656Z</time>
</trkpt>
<trkpt lat="31.5968000" lon="35.3893600">
<ele>17.280001</ele>
<time>2023-03-16T18:33:48.656Z</time>
</trkpt>
<trkpt lat="31.5968700" lon="35.3893300">
<ele>17.790001</ele>
<time>2023-03-16T18:33:48.656Z</time>
</trkpt>
<trkpt lat="31.5969400" lon="35.3893300">
<ele>18.210001</ele>
<time>2023-03-16T18:33:48.656Z</time>
</trkpt>
<trkpt lat="31.5970800" lon="35.3893700">
<ele>18.420000</ele>
<time>2023-03-16T18:33:48.656Z</time>
</trkpt>
<trkpt lat="31.5971800" lon="35.3894200">
<ele>18.190001</ele>
<time>2023-03-16T18:33:48.656Z</time>
</trkpt>
<trkpt lat="31.5974300" lon="35.3896100">
<ele>13.670000</ele>
<time>2023-03-16T18:33:48.656Z</time>
</trkpt>
<trkpt lat="31.5976400" lon="35.3896700">
<ele>11.370000</ele>
<time>2023-03-16T18:33:48.656Z</time>
</trkpt>
<trkpt lat="31.5977700" lon="35.3897300">
<ele>10.059999</ele>
<time>2023-03-16T18:33:48.656Z</time>
</trkpt>
<trkpt lat="31.5978500" lon="35.3898000">
<ele>10.000000</ele>
<time>2023-03-16T18:33:48.656Z</time>
</trkpt>
<trkpt lat="31.5979400" lon="35.3899000">
<ele>10.000000</ele>
<time>2023-03-16T18:33:48.656Z</time>
</trkpt>
<trkpt lat="31.5980600" lon="35.3900900">
<ele>9.719999</ele>
<time>2023-03-16T18:33:48.656Z</time>
</trkpt>
<trkpt lat="31.5981800" lon="35.3902400">
<ele>9.770000</ele>
<time>2023-03-16T18:33:48.656Z</time>
</trkpt>
<trkpt lat="31.5983700" lon="35.3903500">
<ele>9.580000</ele>
<time>2023-03-16T18:33:48.656Z</time>
</trkpt>
<trkpt lat="31.5984800" lon="35.3904400">
<ele>9.050000</ele>
<time>2023-03-16T18:33:48.656Z</time>
</trkpt>
<trkpt lat="31.5987600" lon="35.3909300">
<ele>4.950000</ele>
<time>2023-03-16T18:33:48.656Z</time>
</trkpt>
<trkpt lat="31.5988200" lon="35.3910300">
<ele>4.360000</ele>
<time>2023-03-16T18:33:48.656Z</time>
</trkpt>
<trkpt lat="31.5989100" lon="35.3911300">
<ele>3.950000</ele>
<time>2023-03-16T18:33:48.656Z</time>
</trkpt>
<trkpt lat="31.5990000" lon="35.3912000">
<ele>3.890000</ele>
<time>2023-03-16T18:33:48.656Z</time>
</trkpt>
<trkpt lat="31.5992300" lon="35.3913100">
<ele>4.740000</ele>
<time>2023-03-16T18:33:48.656Z</time>
</trkpt>
<trkpt lat="31.5996500" lon="35.3915900">
<ele>6.540000</ele>
<time>2023-03-16T18:33:48.656Z</time>
</trkpt>
<trkpt lat="31.5999600" lon="35.3917600">
<ele>7.130000</ele>
<time>2023-03-16T18:33:48.656Z</time>
</trkpt>
<trkpt lat="31.6001700" lon="35.3919100">
<ele>7.300000</ele>
<time>2023-03-16T18:33:48.656Z</time>
</trkpt>
<trkpt lat="31.6003800" lon="35.3921300">
<ele>6.750000</ele>
<time>2023-03-16T18:33:48.656Z</time>
</trkpt>
<trkpt lat="31.6005300" lon="35.3924000">
<ele>6.460000</ele>
<time>2023-03-16T18:33:48.656Z</time>
</trkpt>
<trkpt lat="31.6006200" lon="35.3925200">
<ele>7.770000</ele>
<time>2023-03-16T18:33:48.656Z</time>
</trkpt>
<trkpt lat="31.6007500" lon="35.3926200">
<ele>9.530001</ele>
<time>2023-03-16T18:33:48.656Z</time>
</trkpt>
<trkpt lat="31.6010400" lon="35.3927600">
<ele>12.420000</ele>
<time>2023-03-16T18:33:48.656Z</time>
</trkpt>
<trkpt lat="31.6011300" lon="35.3927900">
<ele>12.910001</ele>
<time>2023-03-16T18:33:48.656Z</time>
</trkpt>
<trkpt lat="31.6011300" lon="35.3927900">
<ele>12.910001</ele>
<time>2023-03-16T18:33:48.656Z</time>
</trkpt>
<trkpt lat="31.6011300" lon="35.3927900">
<ele>12.910001</ele>
<time>2023-03-16T18:33:48.656Z</time>
</trkpt>
<trkpt lat="31.6012100" lon="35.3928100">
<ele>12.400000</ele>
<time>2023-03-16T18:33:48.656Z</time>
</trkpt>
<trkpt lat="31.6014800" lon="35.3928700">
<ele>10.130000</ele>
<time>2023-03-16T18:33:48.656Z</time>
</trkpt>
<trkpt lat="31.6015100" lon="35.3930300">
<ele>10.559999</ele>
<time>2023-03-16T18:33:48.656Z</time>
</trkpt>
<trkpt lat="31.6015000" lon="35.3931200">
<ele>11.220000</ele>
<time>2023-03-16T18:33:48.656Z</time>
</trkpt>
<trkpt lat="31.6015900" lon="35.3934000">
<ele>13.209999</ele>
<time>2023-03-16T18:33:48.656Z</time>
</trkpt>
<trkpt lat="31.6016100" lon="35.3935200">
<ele>15.020000</ele>
<time>2023-03-16T18:33:48.656Z</time>
</trkpt>
<trkpt lat="31.6016000" lon="35.3936900">
<ele>16.709999</ele>
<time>2023-03-16T18:33:48.656Z</time>
</trkpt>
<trkpt lat="31.6015300" lon="35.3939400">
<ele>16.809999</ele>
<time>2023-03-16T18:33:48.656Z</time>
</trkpt>
<trkpt lat="31.6015400" lon="35.3941500">
<ele>18.090000</ele>
<time>2023-03-16T18:33:48.656Z</time>
</trkpt>
<trkpt lat="31.6014800" lon="35.3943100">
<ele>18.000000</ele>
<time>2023-03-16T18:33:48.656Z</time>
</trkpt>
<trkpt lat="31.6014800" lon="35.3946100">
<ele>18.840000</ele>
<time>2023-03-16T18:33:48.656Z</time>
</trkpt>
<trkpt lat="31.6015100" lon="35.3947300">
<ele>19.629999</ele>
<time>2023-03-16T18:33:48.656Z</time>
</trkpt>
<trkpt lat="31.6016500" lon="35.3950300">
<ele>22.820000</ele>
<time>2023-03-16T18:33:48.656Z</time>
</trkpt>
<trkpt lat="31.6017200" lon="35.3952800">
<ele>24.220001</ele>
<time>2023-03-16T18:33:48.656Z</time>
</trkpt>
<trkpt lat="31.6017300" lon="35.3954100">
<ele>25.910000</ele>
<time>2023-03-16T18:33:48.656Z</time>
</trkpt>
<trkpt lat="31.6017200" lon="35.3954900">
<ele>26.949999</ele>
<time>2023-03-16T18:33:48.656Z</time>
</trkpt>
<trkpt lat="31.6017700" lon="35.3957900">
<ele>32.380001</ele>
<time>2023-03-16T18:33:48.656Z</time>
</trkpt>
<trkpt lat="31.6017800" lon="35.3960900">
<ele>35.959999</ele>
<time>2023-03-16T18:33:48.656Z</time>
</trkpt>
<trkpt lat="31.6018100" lon="35.3962500">
<ele>35.730000</ele>
<time>2023-03-16T18:33:48.656Z</time>
</trkpt>
<trkpt lat="31.6017800" lon="35.3969300">
<ele>20.459999</ele>
<time>2023-03-16T18:33:48.656Z</time>
</trkpt>
<trkpt lat="31.6018300" lon="35.3971100">
<ele>12.470000</ele>
<time>2023-03-16T18:33:48.656Z</time>
</trkpt>
<trkpt lat="31.6018300" lon="35.3971100">
<ele>12.470000</ele>
<time>2023-03-16T18:33:48.656Z</time>
</trkpt>
<trkpt lat="31.6017800" lon="35.3969300">
<ele>20.459999</ele>
<time>2023-03-16T18:33:48.656Z</time>
</trkpt>
<trkpt lat="31.6018100" lon="35.3962500">
<ele>35.730000</ele>
<time>2023-03-16T18:33:48.656Z</time>
</trkpt>
<trkpt lat="31.6017800" lon="35.3960900">
<ele>35.959999</ele>
<time>2023-03-16T18:33:48.656Z</time>
</trkpt>
<trkpt lat="31.6017700" lon="35.3957900">
<ele>32.380001</ele>
<time>2023-03-16T18:33:48.656Z</time>
</trkpt>
<trkpt lat="31.6017200" lon="35.3954900">
<ele>26.949999</ele>
<time>2023-03-16T18:33:48.656Z</time>
</trkpt>
<trkpt lat="31.6017300" lon="35.3954100">
<ele>25.910000</ele>
<time>2023-03-16T18:33:48.656Z</time>
</trkpt>
<trkpt lat="31.6017200" lon="35.3952800">
<ele>24.220001</ele>
<time>2023-03-16T18:33:48.656Z</time>
</trkpt>
<trkpt lat="31.6016500" lon="35.3950300">
<ele>22.820000</ele>
<time>2023-03-16T18:33:48.656Z</time>
</trkpt>
<trkpt lat="31.6015100" lon="35.3947300">
<ele>19.629999</ele>
<time>2023-03-16T18:33:48.656Z</time>
</trkpt>
<trkpt lat="31.6014800" lon="35.3946100">
<ele>18.840000</ele>
<time>2023-03-16T18:33:48.656Z</time>
</trkpt>
<trkpt lat="31.6014800" lon="35.3943100">
<ele>18.000000</ele>
<time>2023-03-16T18:33:48.656Z</time>
</trkpt>
<trkpt lat="31.6015400" lon="35.3941500">
<ele>18.090000</ele>
<time>2023-03-16T18:33:48.656Z</time>
</trkpt>
<trkpt lat="31.6015300" lon="35.3939400">
<ele>16.809999</ele>
<time>2023-03-16T18:33:48.656Z</time>
</trkpt>
<trkpt lat="31.6016000" lon="35.3936900">
<ele>16.709999</ele>
<time>2023-03-16T18:33:48.656Z</time>
</trkpt>
<trkpt lat="31.6016100" lon="35.3935200">
<ele>15.020000</ele>
<time>2023-03-16T18:33:48.656Z</time>
</trkpt>
<trkpt lat="31.6015900" lon="35.3934000">
<ele>13.209999</ele>
<time>2023-03-16T18:33:48.656Z</time>
</trkpt>
<trkpt lat="31.6015000" lon="35.3931200">
<ele>11.220000</ele>
<time>2023-03-16T18:33:48.656Z</time>
</trkpt>
<trkpt lat="31.6015100" lon="35.3930300">
<ele>10.559999</ele>
<time>2023-03-16T18:33:48.656Z</time>
</trkpt>
<trkpt lat="31.6014800" lon="35.3928700">
<ele>10.130000</ele>
<time>2023-03-16T18:33:48.656Z</time>
</trkpt>
<trkpt lat="31.6016700" lon="35.3929000">
<ele>7.890000</ele>
<time>2023-03-16T18:33:48.656Z</time>
</trkpt>
<trkpt lat="31.6018900" lon="35.3929400">
<ele>8.640000</ele>
<time>2023-03-16T18:33:48.656Z</time>
</trkpt>
<trkpt lat="31.6020000" lon="35.3929400">
<ele>8.670000</ele>
<time>2023-03-16T18:33:48.656Z</time>
</trkpt>
<trkpt lat="31.6020000" lon="35.3929400">
<ele>8.670000</ele>
<time>2023-03-16T18:33:48.656Z</time>
</trkpt>
<trkpt lat="31.6020000" lon="35.3929400">
<ele>8.670000</ele>
<time>2023-03-16T18:33:48.656Z</time>
</trkpt>
<trkpt lat="31.6020500" lon="35.3929400">
<ele>8.590000</ele>
<time>2023-03-16T18:33:48.656Z</time>
</trkpt>
<trkpt lat="31.6021500" lon="35.3929200">
<ele>8.170000</ele>
<time>2023-03-16T18:33:48.656Z</time>
</trkpt>
<trkpt lat="31.6023600" lon="35.3928400">
<ele>7.330000</ele>
<time>2023-03-16T18:33:48.656Z</time>
</trkpt>
<trkpt lat="31.6027200" lon="35.3926700">
<ele>7.210000</ele>
<time>2023-03-16T18:33:48.656Z</time>
</trkpt>
<trkpt lat="31.6028800" lon="35.3926500">
<ele>6.600000</ele>
<time>2023-03-16T18:33:48.656Z</time>
</trkpt>
<trkpt lat="31.6031000" lon="35.3926600">
<ele>5.320000</ele>
<time>2023-03-16T18:33:48.656Z</time>
</trkpt>
<trkpt lat="31.6035400" lon="35.3927200">
<ele>1.300000</ele>
<time>2023-03-16T18:33:48.656Z</time>
</trkpt>
<trkpt lat="31.6039100" lon="35.3929400">
<ele>2.230000</ele>
<time>2023-03-16T18:33:48.656Z</time>
</trkpt>
<trkpt lat="31.6040200" lon="35.3930400">
<ele>2.940000</ele>
<time>2023-03-16T18:33:48.656Z</time>
</trkpt>
<trkpt lat="31.6041900" lon="35.3931400">
<ele>2.780000</ele>
<time>2023-03-16T18:33:48.656Z</time>
</trkpt>
<trkpt lat="31.6043400" lon="35.3932000">
<ele>1.100000</ele>
<time>2023-03-16T18:33:48.656Z</time>
</trkpt>
<trkpt lat="31.6047000" lon="35.3932600">
<ele>-3.670000</ele>
<time>2023-03-16T18:33:48.656Z</time>
</trkpt>
<trkpt lat="31.6048900" lon="35.3933200">
<ele>-4.260000</ele>
<time>2023-03-16T18:33:48.656Z</time>
</trkpt>
<trkpt lat="31.6050500" lon="35.3933400">
<ele>-3.680000</ele>
<time>2023-03-16T18:33:48.656Z</time>
</trkpt>
<trkpt lat="31.6051800" lon="35.3933200">
<ele>-2.670000</ele>
<time>2023-03-16T18:33:48.656Z</time>
</trkpt>
<trkpt lat="31.6054300" lon="35.3932100">
<ele>-1.630000</ele>
<time>2023-03-16T18:33:48.656Z</time>
</trkpt>
<trkpt lat="31.6056200" lon="35.3931700">
<ele>-1.860000</ele>
<time>2023-03-16T18:33:48.656Z</time>
</trkpt>
<trkpt lat="31.6057700" lon="35.3931700">
<ele>-2.080000</ele>
<time>2023-03-16T18:33:48.656Z</time>
</trkpt>
<trkpt lat="31.6060900" lon="35.3932200">
<ele>-4.040000</ele>
<time>2023-03-16T18:33:48.656Z</time>
</trkpt>
<trkpt lat="31.6069500" lon="35.3932000">
<ele>-3.130000</ele>
<time>2023-03-16T18:33:48.656Z</time>
</trkpt>
<trkpt lat="31.6073500" lon="35.3932400">
<ele>-7.720000</ele>
<time>2023-03-16T18:33:48.656Z</time>
</trkpt>
<trkpt lat="31.6075800" lon="35.3933500">
<ele>-10.990000</ele>
<time>2023-03-16T18:33:48.656Z</time>
</trkpt>
<trkpt lat="31.6081200" lon="35.3937500">
<ele>-15.350000</ele>
<time>2023-03-16T18:33:48.656Z</time>
</trkpt>
<trkpt lat="31.6082500" lon="35.3938000">
<ele>-16.280001</ele>
<time>2023-03-16T18:33:48.656Z</time>
</trkpt>
<trkpt lat="31.6082500" lon="35.3938000">
<ele>-16.280001</ele>
<time>2023-03-16T18:33:48.656Z</time>
</trkpt>
<trkpt lat="31.6082500" lon="35.3938000">
<ele>-16.280001</ele>
<time>2023-03-16T18:33:48.656Z</time>
</trkpt>
<trkpt lat="31.6084200" lon="35.3938400">
<ele>-17.189999</ele>
<time>2023-03-16T18:33:48.656Z</time>
</trkpt>
<trkpt lat="31.6085400" lon="35.3939000">
<ele>-17.779999</ele>
<time>2023-03-16T18:33:48.656Z</time>
</trkpt>
<trkpt lat="31.6086800" lon="35.3940400">
<ele>-19.150000</ele>
<time>2023-03-16T18:33:48.656Z</time>
</trkpt>
<trkpt lat="31.6088400" lon="35.3942500">
<ele>-21.250000</ele>
<time>2023-03-16T18:33:48.656Z</time>
</trkpt>
<trkpt lat="31.6089100" lon="35.3943400">
<ele>-22.449999</ele>
<time>2023-03-16T18:33:48.656Z</time>
</trkpt>
<trkpt lat="31.6090600" lon="35.3945100">
<ele>-25.410000</ele>
<time>2023-03-16T18:33:48.656Z</time>
</trkpt>
<trkpt lat="31.6091700" lon="35.3946200">
<ele>-27.250000</ele>
<time>2023-03-16T18:33:48.656Z</time>
</trkpt>
<trkpt lat="31.6092600" lon="35.3946700">
<ele>-27.139999</ele>
<time>2023-03-16T18:33:48.656Z</time>
</trkpt>
<trkpt lat="31.6092700" lon="35.3946700">
<ele>-27.090000</ele>
<time>2023-03-16T18:33:48.656Z</time>
</trkpt>
<trkpt lat="31.6092700" lon="35.3946700">
<ele>-27.090000</ele>
<time>2023-03-16T18:33:48.656Z</time>
</trkpt>
<trkpt lat="31.6093600" lon="35.3947000">
<ele>-26.620001</ele>
<time>2023-03-16T18:33:48.656Z</time>
</trkpt>
<trkpt lat="31.6092900" lon="35.3948900">
<ele>-26.580000</ele>
<time>2023-03-16T18:33:48.656Z</time>
</trkpt>
<trkpt lat="31.6092500" lon="35.3950900">
<ele>-26.540001</ele>
<time>2023-03-16T18:33:48.656Z</time>
</trkpt>
<trkpt lat="31.6092000" lon="35.3951800">
<ele>-27.700001</ele>
<time>2023-03-16T18:33:48.656Z</time>
</trkpt>
<trkpt lat="31.6090700" lon="35.3952800">
<ele>-28.640001</ele>
<time>2023-03-16T18:33:48.656Z</time>
</trkpt>
<trkpt lat="31.6090300" lon="35.3953600">
<ele>-28.350000</ele>
<time>2023-03-16T18:33:48.656Z</time>
</trkpt>
<trkpt lat="31.6090200" lon="35.3954200">
<ele>-28.290001</ele>
<time>2023-03-16T18:33:48.656Z</time>
</trkpt>
<trkpt lat="31.6090600" lon="35.3955400">
<ele>-27.599998</ele>
<time>2023-03-16T18:33:48.656Z</time>
</trkpt>
<trkpt lat="31.6091600" lon="35.3957400">
<ele>-24.799999</ele>
<time>2023-03-16T18:33:48.656Z</time>
</trkpt>
<trkpt lat="31.6092200" lon="35.3961100">
<ele>-22.419998</ele>
<time>2023-03-16T18:33:48.656Z</time>
</trkpt>
<trkpt lat="31.6092700" lon="35.3962200">
<ele>-22.570000</ele>
<time>2023-03-16T18:33:48.656Z</time>
</trkpt>
<trkpt lat="31.6094200" lon="35.3963300">
<ele>-22.490000</ele>
<time>2023-03-16T18:33:48.656Z</time>
</trkpt>
<trkpt lat="31.6095700" lon="35.3965100">
<ele>-22.770000</ele>
<time>2023-03-16T18:33:48.656Z</time>
</trkpt>
<trkpt lat="31.6096300" lon="35.3965700">
<ele>-22.529999</ele>
<time>2023-03-16T18:33:48.656Z</time>
</trkpt>
<trkpt lat="31.6098500" lon="35.3966300">
<ele>-20.030001</ele>
<time>2023-03-16T18:33:48.656Z</time>
</trkpt>
<trkpt lat="31.6098500" lon="35.3966300">
<ele>-20.030001</ele>
<time>2023-03-16T18:33:48.656Z</time>
</trkpt>
<trkpt lat="31.6098600" lon="35.3966300">
<ele>-19.880001</ele>
<time>2023-03-16T18:33:48.656Z</time>
</trkpt>
<trkpt lat="31.6099200" lon="35.3966700">
<ele>-19.190001</ele>
<time>2023-03-16T18:33:48.656Z</time>
</trkpt>
<trkpt lat="31.6099800" lon="35.3967300">
<ele>-18.969999</ele>
<time>2023-03-16T18:33:48.656Z</time>
</trkpt>
<trkpt lat="31.6100600" lon="35.3968600">
<ele>-19.720001</ele>
<time>2023-03-16T18:33:48.656Z</time>
</trkpt>
<trkpt lat="31.6101100" lon="35.3969100">
<ele>-19.889999</ele>
<time>2023-03-16T18:33:48.656Z</time>
</trkpt>
<trkpt lat="31.6104500" lon="35.3969800">
<ele>-19.720001</ele>
<time>2023-03-16T18:33:48.656Z</time>
</trkpt>
<trkpt lat="31.6105200" lon="35.3970200">
<ele>-19.939999</ele>
<time>2023-03-16T18:33:48.656Z</time>
</trkpt>
<trkpt lat="31.6106500" lon="35.3971500">
<ele>-21.269999</ele>
<time>2023-03-16T18:33:48.656Z</time>
</trkpt>
<trkpt lat="31.6107000" lon="35.3971800">
<ele>-21.999998</ele>
<time>2023-03-16T18:33:48.656Z</time>
</trkpt>
<trkpt lat="31.6107700" lon="35.3971800">
<ele>-22.969999</ele>
<time>2023-03-16T18:33:48.656Z</time>
</trkpt>
<trkpt lat="31.6108700" lon="35.3971300">
<ele>-23.889999</ele>
<time>2023-03-16T18:33:48.656Z</time>
</trkpt>
<trkpt lat="31.6109200" lon="35.3970800">
<ele>-23.950001</ele>
<time>2023-03-16T18:33:48.656Z</time>
</trkpt>
<trkpt lat="31.6110200" lon="35.3969400">
<ele>-23.670000</ele>
<time>2023-03-16T18:33:48.656Z</time>
</trkpt>
<trkpt lat="31.6111900" lon="35.3966000">
<ele>-26.310001</ele>
<time>2023-03-16T18:33:48.656Z</time>
</trkpt>
<trkpt lat="31.6113400" lon="35.3960900">
<ele>-28.439999</ele>
<time>2023-03-16T18:33:48.656Z</time>
</trkpt>
<trkpt lat="31.6114000" lon="35.3959500">
<ele>-28.570000</ele>
<time>2023-03-16T18:33:48.656Z</time>
</trkpt>
<trkpt lat="31.6114500" lon="35.3959000">
<ele>-28.889999</ele>
<time>2023-03-16T18:33:48.656Z</time>
</trkpt>
<trkpt lat="31.6115400" lon="35.3958500">
<ele>-29.280001</ele>
<time>2023-03-16T18:33:48.656Z</time>
</trkpt>
<trkpt lat="31.6116300" lon="35.3958600">
<ele>-30.170000</ele>
<time>2023-03-16T18:33:48.656Z</time>
</trkpt>
<trkpt lat="31.6118300" lon="35.3959300">
<ele>-36.270000</ele>
<time>2023-03-16T18:33:48.656Z</time>
</trkpt>
<trkpt lat="31.6118800" lon="35.3959400">
<ele>-37.889999</ele>
<time>2023-03-16T18:33:48.656Z</time>
</trkpt>
<trkpt lat="31.6119400" lon="35.3959100">
<ele>-38.810001</ele>
<time>2023-03-16T18:33:48.656Z</time>
</trkpt>
<trkpt lat="31.6120000" lon="35.3958700">
<ele>-37.989998</ele>
<time>2023-03-16T18:33:48.656Z</time>
</trkpt>
<trkpt lat="31.6120800" lon="35.3957900">
<ele>-36.700001</ele>
<time>2023-03-16T18:33:48.656Z</time>
</trkpt>
<trkpt lat="31.6121400" lon="35.3956900">
<ele>-35.329998</ele>
<time>2023-03-16T18:33:48.656Z</time>
</trkpt>
<trkpt lat="31.6122300" lon="35.3956800">
<ele>-35.630001</ele>
<time>2023-03-16T18:33:48.656Z</time>
</trkpt>
<trkpt lat="31.6122600" lon="35.3956700">
<ele>-34.860001</ele>
<time>2023-03-16T18:33:48.656Z</time>
</trkpt>
<trkpt lat="31.6122600" lon="35.3956700">
<ele>-34.860001</ele>
<time>2023-03-16T18:33:48.656Z</time>
</trkpt>
<trkpt lat="31.6123400" lon="35.3956400">
<ele>-32.840000</ele>
<time>2023-03-16T18:33:48.656Z</time>
</trkpt>
<trkpt lat="31.6124700" lon="35.3955500">
<ele>-29.450001</ele>
<time>2023-03-16T18:33:48.656Z</time>
</trkpt>
<trkpt lat="31.6125200" lon="35.3955400">
<ele>-28.790001</ele>
<time>2023-03-16T18:33:48.656Z</time>
</trkpt>
<trkpt lat="31.6125900" lon="35.3955100">
<ele>-28.560001</ele>
<time>2023-03-16T18:33:48.656Z</time>
</trkpt>
<trkpt lat="31.6127000" lon="35.3955200">
<ele>-28.859999</ele>
<time>2023-03-16T18:33:48.656Z</time>
</trkpt>
<trkpt lat="31.6127900" lon="35.3955600">
<ele>-29.009998</ele>
<time>2023-03-16T18:33:48.656Z</time>
</trkpt>
<trkpt lat="31.6129400" lon="35.3957000">
<ele>-28.910000</ele>
<time>2023-03-16T18:33:48.656Z</time>
</trkpt>
<trkpt lat="31.6130400" lon="35.3957600">
<ele>-28.350000</ele>
<time>2023-03-16T18:33:48.656Z</time>
</trkpt>
<trkpt lat="31.6134500" lon="35.3958200">
<ele>-27.500000</ele>
<time>2023-03-16T18:33:48.656Z</time>
</trkpt>
<trkpt lat="31.6139400" lon="35.3959800">
<ele>-28.389999</ele>
<time>2023-03-16T18:33:48.656Z</time>
</trkpt>
<trkpt lat="31.6143200" lon="35.3962400">
<ele>-26.219999</ele>
<time>2023-03-16T18:33:48.656Z</time>
</trkpt>
<trkpt lat="31.6145400" lon="35.3964200">
<ele>-25.730000</ele>
<time>2023-03-16T18:33:48.656Z</time>
</trkpt>
<trkpt lat="31.6149700" lon="35.3966500">
<ele>-31.380001</ele>
<time>2023-03-16T18:33:48.656Z</time>
</trkpt>
<trkpt lat="31.6155700" lon="35.3969100">
<ele>-32.880001</ele>
<time>2023-03-16T18:33:48.656Z</time>
</trkpt>
<trkpt lat="31.6157200" lon="35.3969300">
<ele>-32.980000</ele>
<time>2023-03-16T18:33:48.656Z</time>
</trkpt>
<trkpt lat="31.6157200" lon="35.3969300">
<ele>-32.980000</ele>
<time>2023-03-16T18:33:48.656Z</time>
</trkpt>
<trkpt lat="31.6157200" lon="35.3969300">
<ele>-32.980000</ele>
<time>2023-03-16T18:33:48.656Z</time>
</trkpt>
<trkpt lat="31.6157800" lon="35.3969400">
<ele>-33.000000</ele>
<time>2023-03-16T18:33:48.656Z</time>
</trkpt>
<trkpt lat="31.6162100" lon="35.3970600">
<ele>-30.620001</ele>
<time>2023-03-16T18:33:48.656Z</time>
</trkpt>
<trkpt lat="31.6165200" lon="35.3970500">
<ele>-26.360001</ele>
<time>2023-03-16T18:33:48.656Z</time>
</trkpt>
<trkpt lat="31.6167500" lon="35.3969800">
<ele>-21.559999</ele>
<time>2023-03-16T18:33:48.656Z</time>
</trkpt>
<trkpt lat="31.6168400" lon="35.3969700">
<ele>-20.520000</ele>
<time>2023-03-16T18:33:48.656Z</time>
</trkpt>
<trkpt lat="31.6170500" lon="35.3969800">
<ele>-19.870001</ele>
<time>2023-03-16T18:33:48.656Z</time>
</trkpt>
<trkpt lat="31.6171500" lon="35.3970000">
<ele>-20.300001</ele>
<time>2023-03-16T18:33:48.656Z</time>
</trkpt>
<trkpt lat="31.6172800" lon="35.3971000">
<ele>-20.910000</ele>
<time>2023-03-16T18:33:48.656Z</time>
</trkpt>
<trkpt lat="31.6173500" lon="35.3972000">
<ele>-21.379999</ele>
<time>2023-03-16T18:33:48.656Z</time>
</trkpt>
<trkpt lat="31.6175400" lon="35.3975400">
<ele>-21.980000</ele>
<time>2023-03-16T18:33:48.656Z</time>
</trkpt>
<trkpt lat="31.6179700" lon="35.3980500">
<ele>-20.019999</ele>
<time>2023-03-16T18:33:48.656Z</time>
</trkpt>
<trkpt lat="31.6183300" lon="35.3983400">
<ele>-18.010000</ele>
<time>2023-03-16T18:33:48.656Z</time>
</trkpt>
<trkpt lat="31.6185200" lon="35.3985200">
<ele>-18.670000</ele>
<time>2023-03-16T18:33:48.656Z</time>
</trkpt>
<trkpt lat="31.6185800" lon="35.3986000">
<ele>-18.890001</ele>
<time>2023-03-16T18:33:48.656Z</time>
</trkpt>
<trkpt lat="31.6186400" lon="35.3987400">
<ele>-17.900000</ele>
<time>2023-03-16T18:33:48.656Z</time>
</trkpt>
<trkpt lat="31.6188000" lon="35.3991700">
<ele>-13.950000</ele>
<time>2023-03-16T18:33:48.656Z</time>
</trkpt>
<trkpt lat="31.6189200" lon="35.3993600">
<ele>-12.450001</ele>
<time>2023-03-16T18:33:48.656Z</time>
</trkpt>
<trkpt lat="31.6191200" lon="35.3995400">
<ele>-9.560000</ele>
<time>2023-03-16T18:33:48.656Z</time>
</trkpt>
<trkpt lat="31.6195300" lon="35.3998300">
<ele>-7.000000</ele>
<time>2023-03-16T18:33:48.656Z</time>
</trkpt>
<trkpt lat="31.6201600" lon="35.4003700">
<ele>-1.470000</ele>
<time>2023-03-16T18:33:48.656Z</time>
</trkpt>
<trkpt lat="31.6202800" lon="35.4004600">
<ele>0.320000</ele>
<time>2023-03-16T18:33:48.656Z</time>
</trkpt>
<trkpt lat="31.6210600" lon="35.4008000">
<ele>-1.270000</ele>
<time>2023-03-16T18:33:48.656Z</time>
</trkpt>
<trkpt lat="31.6212500" lon="35.4009000">
<ele>-0.880000</ele>
<time>2023-03-16T18:33:48.656Z</time>
</trkpt>
<trkpt lat="31.6213800" lon="35.4010000">
<ele>-0.610000</ele>
<time>2023-03-16T18:33:48.656Z</time>
</trkpt>
<trkpt lat="31.6216400" lon="35.4012700">
<ele>-7.180000</ele>
<time>2023-03-16T18:33:48.656Z</time>
</trkpt>
<trkpt lat="31.6217500" lon="35.4013300">
<ele>-9.929999</ele>
<time>2023-03-16T18:33:48.656Z</time>
</trkpt>
<trkpt lat="31.6218600" lon="35.4013500">
<ele>-12.160000</ele>
<time>2023-03-16T18:33:48.656Z</time>
</trkpt>
<trkpt lat="31.6221500" lon="35.4013100">
<ele>-17.660000</ele>
<time>2023-03-16T18:33:48.656Z</time>
</trkpt>
<trkpt lat="31.6224800" lon="35.4013300">
<ele>-18.490000</ele>
<time>2023-03-16T18:33:48.656Z</time>
</trkpt>
<trkpt lat="31.6225500" lon="35.4013600">
<ele>-18.369999</ele>
<time>2023-03-16T18:33:48.656Z</time>
</trkpt>
<trkpt lat="31.6227000" lon="35.4015100">
<ele>-18.600000</ele>
<time>2023-03-16T18:33:48.656Z</time>
</trkpt>
<trkpt lat="31.6231500" lon="35.4016100">
<ele>-23.469999</ele>
<time>2023-03-16T18:33:48.656Z</time>
</trkpt>
<trkpt lat="31.6238300" lon="35.4019100">
<ele>-26.780001</ele>
<time>2023-03-16T18:33:48.656Z</time>
</trkpt>
<trkpt lat="31.6239300" lon="35.4019700">
<ele>-25.650000</ele>
<time>2023-03-16T18:33:48.656Z</time>
</trkpt>
<trkpt lat="31.6240200" lon="35.4020500">
<ele>-24.959999</ele>
<time>2023-03-16T18:33:48.656Z</time>
</trkpt>
<trkpt lat="31.6242800" lon="35.4023700">
<ele>-24.779999</ele>
<time>2023-03-16T18:33:48.656Z</time>
</trkpt>
<trkpt lat="31.6246300" lon="35.4026500">
<ele>-27.160000</ele>
<time>2023-03-16T18:33:48.656Z</time>
</trkpt>
<trkpt lat="31.6248500" lon="35.4027300">
<ele>-28.389999</ele>
<time>2023-03-16T18:33:48.656Z</time>
</trkpt>
<trkpt lat="31.6250100" lon="35.4027300">
<ele>-28.420000</ele>
<time>2023-03-16T18:33:48.656Z</time>
</trkpt>
<trkpt lat="31.6252200" lon="35.4026900">
<ele>-26.719999</ele>
<time>2023-03-16T18:33:48.656Z</time>
</trkpt>
<trkpt lat="31.6255900" lon="35.4026900">
<ele>-27.099998</ele>
<time>2023-03-16T18:33:48.656Z</time>
</trkpt>
<trkpt lat="31.6257200" lon="35.4027200">
<ele>-28.690001</ele>
<time>2023-03-16T18:33:48.656Z</time>
</trkpt>
<trkpt lat="31.6258000" lon="35.4027500">
<ele>-29.630001</ele>
<time>2023-03-16T18:33:48.656Z</time>
</trkpt>
<trkpt lat="31.6258000" lon="35.4027500">
<ele>-29.630001</ele>
<time>2023-03-16T18:33:48.656Z</time>
</trkpt>
<trkpt lat="31.6258000" lon="35.4027500">
<ele>-29.630001</ele>
<time>2023-03-16T18:33:48.656Z</time>
</trkpt>
<trkpt lat="31.6258300" lon="35.4027700">
<ele>-29.959999</ele>
<time>2023-03-16T18:33:48.656Z</time>
</trkpt>
<trkpt lat="31.6261500" lon="35.4029500">
<ele>-32.239998</ele>
<time>2023-03-16T18:33:48.656Z</time>
</trkpt>
<trkpt lat="31.6263000" lon="35.4030200">
<ele>-32.739998</ele>
<time>2023-03-16T18:33:48.656Z</time>
</trkpt>
<trkpt lat="31.6266200" lon="35.4031000">
<ele>-33.369999</ele>
<time>2023-03-16T18:33:48.656Z</time>
</trkpt>
<trkpt lat="31.6267600" lon="35.4031700">
<ele>-33.070000</ele>
<time>2023-03-16T18:33:48.656Z</time>
</trkpt>
<trkpt lat="31.6269100" lon="35.4032700">
<ele>-31.639999</ele>
<time>2023-03-16T18:33:48.656Z</time>
</trkpt>
<trkpt lat="31.6271500" lon="35.4035000">
<ele>-30.700001</ele>
<time>2023-03-16T18:33:48.656Z</time>
</trkpt>
<trkpt lat="31.6273400" lon="35.4037000">
<ele>-29.290001</ele>
<time>2023-03-16T18:33:48.656Z</time>
</trkpt>
<trkpt lat="31.6276900" lon="35.4039800">
<ele>-31.679998</ele>
<time>2023-03-16T18:33:48.656Z</time>
</trkpt>
<trkpt lat="31.6281500" lon="35.4042200">
<ele>-33.000000</ele>
<time>2023-03-16T18:33:48.656Z</time>
</trkpt>
<trkpt lat="31.6288000" lon="35.4044100">
<ele>-31.469999</ele>
<time>2023-03-16T18:33:48.656Z</time>
</trkpt>
<trkpt lat="31.6291500" lon="35.4044100">
<ele>-31.750000</ele>
<time>2023-03-16T18:33:48.656Z</time>
</trkpt>
<trkpt lat="31.6294100" lon="35.4043600">
<ele>-34.549999</ele>
<time>2023-03-16T18:33:48.656Z</time>
</trkpt>
<trkpt lat="31.6296900" lon="35.4043700">
<ele>-37.070000</ele>
<time>2023-03-16T18:33:48.656Z</time>
</trkpt>
<trkpt lat="31.6298200" lon="35.4043300">
<ele>-37.360001</ele>
<time>2023-03-16T18:33:48.656Z</time>
</trkpt>
<trkpt lat="31.6300600" lon="35.4042200">
<ele>-38.079998</ele>
<time>2023-03-16T18:33:48.656Z</time>
</trkpt>
<trkpt lat="31.6304300" lon="35.4039400">
<ele>-42.099998</ele>
<time>2023-03-16T18:33:48.656Z</time>
</trkpt>
<trkpt lat="31.6309800" lon="35.4036600">
<ele>-38.759998</ele>
<time>2023-03-16T18:33:48.656Z</time>
</trkpt>
<trkpt lat="31.6311200" lon="35.4036100">
<ele>-37.869999</ele>
<time>2023-03-16T18:33:48.656Z</time>
</trkpt>
<trkpt lat="31.6317400" lon="35.4034600">
<ele>-29.659998</ele>
<time>2023-03-16T18:33:48.656Z</time>
</trkpt>
<trkpt lat="31.6318100" lon="35.4034700">
<ele>-28.940001</ele>
<time>2023-03-16T18:33:48.656Z</time>
</trkpt>
<trkpt lat="31.6318700" lon="35.4035000">
<ele>-28.400000</ele>
<time>2023-03-16T18:33:48.656Z</time>
</trkpt>
<trkpt lat="31.6319200" lon="35.4035900">
<ele>-28.190001</ele>
<time>2023-03-16T18:33:48.656Z</time>
</trkpt>
<trkpt lat="31.6320700" lon="35.4040100">
<ele>-26.490000</ele>
<time>2023-03-16T18:33:48.656Z</time>
</trkpt>
<trkpt lat="31.6321100" lon="35.4040700">
<ele>-26.590000</ele>
<time>2023-03-16T18:33:48.656Z</time>
</trkpt>
<trkpt lat="31.6322200" lon="35.4041700">
<ele>-27.010000</ele>
<time>2023-03-16T18:33:48.656Z</time>
</trkpt>
<trkpt lat="31.6323500" lon="35.4042200">
<ele>-28.570000</ele>
<time>2023-03-16T18:33:48.656Z</time>
</trkpt>
<trkpt lat="31.6324700" lon="35.4042400">
<ele>-29.940001</ele>
<time>2023-03-16T18:33:48.656Z</time>
</trkpt>
<trkpt lat="31.6326800" lon="35.4042400">
<ele>-31.389999</ele>
<time>2023-03-16T18:33:48.656Z</time>
</trkpt>
<trkpt lat="31.6326800" lon="35.4042400">
<ele>-31.389999</ele>
<time>2023-03-16T18:33:48.656Z</time>
</trkpt>
<trkpt lat="31.6326800" lon="35.4042400">
<ele>-31.389999</ele>
<time>2023-03-16T18:33:48.656Z</time>
</trkpt>
<trkpt lat="31.6330500" lon="35.4042300">
<ele>-32.760002</ele>
<time>2023-03-16T18:33:48.656Z</time>
</trkpt>
<trkpt lat="31.6335500" lon="35.4040700">
<ele>-32.330002</ele>
<time>2023-03-16T18:33:48.656Z</time>
</trkpt>
<trkpt lat="31.6337500" lon="35.4039700">
<ele>-33.330002</ele>
<time>2023-03-16T18:33:48.656Z</time>
</trkpt>
<trkpt lat="31.6338500" lon="35.4039200">
<ele>-34.329998</ele>
<time>2023-03-16T18:33:48.656Z</time>
</trkpt>
<trkpt lat="31.6340100" lon="35.4038200">
<ele>-33.259998</ele>
<time>2023-03-16T18:33:48.656Z</time>
</trkpt>
<trkpt lat="31.6341500" lon="35.4037600">
<ele>-31.240000</ele>
<time>2023-03-16T18:33:48.656Z</time>
</trkpt>
<trkpt lat="31.6344500" lon="35.4036900">
<ele>-26.590000</ele>
<time>2023-03-16T18:33:48.656Z</time>
</trkpt>
<trkpt lat="31.6346500" lon="35.4035600">
<ele>-21.590000</ele>
<time>2023-03-16T18:33:48.656Z</time>
</trkpt>
<trkpt lat="31.6349300" lon="35.4033100">
<ele>-18.190001</ele>
<time>2023-03-16T18:33:48.656Z</time>
</trkpt>
<trkpt lat="31.6354700" lon="35.4029300">
<ele>-15.520000</ele>
<time>2023-03-16T18:33:48.656Z</time>
</trkpt>
<trkpt lat="31.6357900" lon="35.4026500">
<ele>-16.309999</ele>
<time>2023-03-16T18:33:48.656Z</time>
</trkpt>
<trkpt lat="31.6359200" lon="35.4025600">
<ele>-17.490000</ele>
<time>2023-03-16T18:33:48.656Z</time>
</trkpt>
<trkpt lat="31.6364000" lon="35.4023900">
<ele>-19.850000</ele>
<time>2023-03-16T18:33:48.656Z</time>
</trkpt>
<trkpt lat="31.6369800" lon="35.4020400">
<ele>-25.740002</ele>
<time>2023-03-16T18:33:48.656Z</time>
</trkpt>
<trkpt lat="31.6371300" lon="35.4020000">
<ele>-26.330000</ele>
<time>2023-03-16T18:33:48.656Z</time>
</trkpt>
<trkpt lat="31.6373400" lon="35.4020000">
<ele>-27.020000</ele>
<time>2023-03-16T18:33:48.656Z</time>
</trkpt>
<trkpt lat="31.6376500" lon="35.4020500">
<ele>-28.190001</ele>
<time>2023-03-16T18:33:48.656Z</time>
</trkpt>
<trkpt lat="31.6377800" lon="35.4020100">
<ele>-29.020000</ele>
<time>2023-03-16T18:33:48.656Z</time>
</trkpt>
<trkpt lat="31.6379900" lon="35.4019100">
<ele>-30.400000</ele>
<time>2023-03-16T18:33:48.656Z</time>
</trkpt>
<trkpt lat="31.6379900" lon="35.4019100">
<ele>-30.400000</ele>
<time>2023-03-16T18:33:48.656Z</time>
</trkpt>
<trkpt lat="31.6379900" lon="35.4019100">
<ele>-30.400000</ele>
<time>2023-03-16T18:33:48.656Z</time>
</trkpt>
<trkpt lat="31.6383800" lon="35.4018000">
<ele>-32.900002</ele>
<time>2023-03-16T18:33:48.656Z</time>
</trkpt>
<trkpt lat="31.6381900" lon="35.4020200">
<ele>-31.700001</ele>
<time>2023-03-16T18:33:48.656Z</time>
</trkpt>
<trkpt lat="31.6380700" lon="35.4025500">
<ele>-29.760000</ele>
<time>2023-03-16T18:33:48.656Z</time>
</trkpt>
<trkpt lat="31.6379200" lon="35.4030300">
<ele>-27.610001</ele>
<time>2023-03-16T18:33:48.656Z</time>
</trkpt>
<trkpt lat="31.6378300" lon="35.4034400">
<ele>-28.199999</ele>
<time>2023-03-16T18:33:48.656Z</time>
</trkpt>
<trkpt lat="31.6376100" lon="35.4040500">
<ele>-26.820000</ele>
<time>2023-03-16T18:33:48.656Z</time>
</trkpt>
<trkpt lat="31.6375700" lon="35.4041400">
<ele>-26.350000</ele>
<time>2023-03-16T18:33:48.656Z</time>
</trkpt>
<trkpt lat="31.6373700" lon="35.4044100">
<ele>-26.350000</ele>
<time>2023-03-16T18:33:48.656Z</time>
</trkpt>
<trkpt lat="31.6372300" lon="35.4046200">
<ele>-27.900000</ele>
<time>2023-03-16T18:33:48.656Z</time>
</trkpt>
<trkpt lat="31.6370400" lon="35.4049800">
<ele>-29.199999</ele>
<time>2023-03-16T18:33:48.656Z</time>
</trkpt>
<trkpt lat="31.6369300" lon="35.4052100">
<ele>-32.639999</ele>
<time>2023-03-16T18:33:48.656Z</time>
</trkpt>
<trkpt lat="31.6369000" lon="35.4053400">
<ele>-34.709999</ele>
<time>2023-03-16T18:33:48.656Z</time>
</trkpt>
<trkpt lat="31.6368800" lon="35.4055300">
<ele>-38.160000</ele>
<time>2023-03-16T18:33:48.656Z</time>
</trkpt>
<trkpt lat="31.6368700" lon="35.4058600">
<ele>-41.570004</ele>
<time>2023-03-16T18:33:48.656Z</time>
</trkpt>
<trkpt lat="31.6368700" lon="35.4061500">
<ele>-41.599998</ele>
<time>2023-03-16T18:33:48.656Z</time>
</trkpt>
<trkpt lat="31.6368600" lon="35.4062500">
<ele>-40.109997</ele>
<time>2023-03-16T18:33:48.656Z</time>
</trkpt>
<trkpt lat="31.6368400" lon="35.4063000">
<ele>-38.910000</ele>
<time>2023-03-16T18:33:48.656Z</time>
</trkpt>
<trkpt lat="31.6367900" lon="35.4064300">
<ele>-36.040001</ele>
<time>2023-03-16T18:33:48.656Z</time>
</trkpt>
<trkpt lat="31.6366900" lon="35.4065900">
<ele>-31.439999</ele>
<time>2023-03-16T18:33:48.656Z</time>
</trkpt>
<trkpt lat="31.6366200" lon="35.4066500">
<ele>-30.639999</ele>
<time>2023-03-16T18:33:48.656Z</time>
</trkpt>
<trkpt lat="31.6362000" lon="35.4069300">
<ele>-31.000000</ele>
<time>2023-03-16T18:33:48.656Z</time>
</trkpt>
<trkpt lat="31.6360300" lon="35.4072700">
<ele>-38.939999</ele>
<time>2023-03-16T18:33:48.656Z</time>
</trkpt>
<trkpt lat="31.6359100" lon="35.4074100">
<ele>-45.059998</ele>
<time>2023-03-16T18:33:48.656Z</time>
</trkpt>
<trkpt lat="31.6357900" lon="35.4074800">
<ele>-47.799999</ele>
<time>2023-03-16T18:33:48.656Z</time>
</trkpt>
<trkpt lat="31.6355400" lon="35.4075700">
<ele>-49.020000</ele>
<time>2023-03-16T18:33:48.656Z</time>
</trkpt>
<trkpt lat="31.6354900" lon="35.4075600">
<ele>-47.869999</ele>
<time>2023-03-16T18:33:48.656Z</time>
</trkpt>
<trkpt lat="31.6354900" lon="35.4075600">
<ele>-47.869999</ele>
<time>2023-03-16T18:33:48.656Z</time>
</trkpt>
<trkpt lat="31.6354900" lon="35.4075600">
<ele>-47.869999</ele>
<time>2023-03-16T18:33:48.656Z</time>
</trkpt>
<trkpt lat="31.6355400" lon="35.4075700">
<ele>-49.020000</ele>
<time>2023-03-16T18:33:48.656Z</time>
</trkpt>
<trkpt lat="31.6357900" lon="35.4074800">
<ele>-47.799999</ele>
<time>2023-03-16T18:33:48.656Z</time>
</trkpt>
<trkpt lat="31.6359100" lon="35.4074100">
<ele>-45.059998</ele>
<time>2023-03-16T18:33:48.656Z</time>
</trkpt>
<trkpt lat="31.6360300" lon="35.4072700">
<ele>-38.939999</ele>
<time>2023-03-16T18:33:48.656Z</time>
</trkpt>
<trkpt lat="31.6362000" lon="35.4069300">
<ele>-31.000000</ele>
<time>2023-03-16T18:33:48.656Z</time>
</trkpt>
<trkpt lat="31.6366200" lon="35.4066500">
<ele>-30.639999</ele>
<time>2023-03-16T18:33:48.656Z</time>
</trkpt>
<trkpt lat="31.6366900" lon="35.4065900">
<ele>-31.439999</ele>
<time>2023-03-16T18:33:48.656Z</time>
</trkpt>
<trkpt lat="31.6367900" lon="35.4064300">
<ele>-36.040001</ele>
<time>2023-03-16T18:33:48.656Z</time>
</trkpt>
<trkpt lat="31.6368400" lon="35.4063000">
<ele>-38.910000</ele>
<time>2023-03-16T18:33:48.656Z</time>
</trkpt>
<trkpt lat="31.6368600" lon="35.4062500">
<ele>-40.109997</ele>
<time>2023-03-16T18:33:48.656Z</time>
</trkpt>
<trkpt lat="31.6368700" lon="35.4061500">
<ele>-41.599998</ele>
<time>2023-03-16T18:33:48.656Z</time>
</trkpt>
<trkpt lat="31.6368700" lon="35.4058600">
<ele>-41.570004</ele>
<time>2023-03-16T18:33:48.656Z</time>
</trkpt>
<trkpt lat="31.6368800" lon="35.4055300">
<ele>-38.160000</ele>
<time>2023-03-16T18:33:48.656Z</time>
</trkpt>
<trkpt lat="31.6369000" lon="35.4053400">
<ele>-34.709999</ele>
<time>2023-03-16T18:33:48.656Z</time>
</trkpt>
<trkpt lat="31.6374700" lon="35.4049800">
<ele>-27.939999</ele>
<time>2023-03-16T18:33:48.656Z</time>
</trkpt>
<trkpt lat="31.6377100" lon="35.4046300">
<ele>-24.330002</ele>
<time>2023-03-16T18:33:48.656Z</time>
</trkpt>
<trkpt lat="31.6380300" lon="35.4044100">
<ele>-32.619999</ele>
<time>2023-03-16T18:33:48.656Z</time>
</trkpt>
<trkpt lat="31.6381700" lon="35.4042600">
<ele>-38.430000</ele>
<time>2023-03-16T18:33:48.656Z</time>
</trkpt>
<trkpt lat="31.6383600" lon="35.4041400">
<ele>-42.420002</ele>
<time>2023-03-16T18:33:48.656Z</time>
</trkpt>
<trkpt lat="31.6384700" lon="35.4039300">
<ele>-39.779999</ele>
<time>2023-03-16T18:33:48.656Z</time>
</trkpt>
<trkpt lat="31.6389100" lon="35.4033800">
<ele>-38.900002</ele>
<time>2023-03-16T18:33:48.656Z</time>
</trkpt>
<trkpt lat="31.6391900" lon="35.4033500">
<ele>-41.410000</ele>
<time>2023-03-16T18:33:48.656Z</time>
</trkpt>
<trkpt lat="31.6393600" lon="35.4032500">
<ele>-41.280003</ele>
<time>2023-03-16T18:33:48.656Z</time>
</trkpt>
<trkpt lat="31.6393600" lon="35.4032500">
<ele>-41.280003</ele>
<time>2023-03-16T18:33:48.656Z</time>
</trkpt>
<trkpt lat="31.6394000" lon="35.4032200">
<ele>-41.110001</ele>
<time>2023-03-16T18:33:48.656Z</time>
</trkpt>
<trkpt lat="31.6395200" lon="35.4032300">
<ele>-43.309998</ele>
<time>2023-03-16T18:33:48.656Z</time>
</trkpt>
<trkpt lat="31.6401300" lon="35.4029900">
<ele>-48.310001</ele>
<time>2023-03-16T18:33:48.656Z</time>
</trkpt>
<trkpt lat="31.6402600" lon="35.4030900">
<ele>-47.500000</ele>
<time>2023-03-16T18:33:48.656Z</time>
</trkpt>
<trkpt lat="31.6403600" lon="35.4032900">
<ele>-49.350002</ele>
<time>2023-03-16T18:33:48.656Z</time>
</trkpt>
<trkpt lat="31.6406900" lon="35.4033900">
<ele>-54.669998</ele>
<time>2023-03-16T18:33:48.656Z</time>
</trkpt>
<trkpt lat="31.6408200" lon="35.4033300">
<ele>-54.779999</ele>
<time>2023-03-16T18:33:48.656Z</time>
</trkpt>
<trkpt lat="31.6413300" lon="35.4025600">
<ele>-55.189999</ele>
<time>2023-03-16T18:33:48.656Z</time>
</trkpt>
<trkpt lat="31.6413800" lon="35.4024700">
<ele>-56.220001</ele>
<time>2023-03-16T18:33:48.656Z</time>
</trkpt>
<trkpt lat="31.6415600" lon="35.4021100">
<ele>-54.289997</ele>
<time>2023-03-16T18:33:48.656Z</time>
</trkpt>
<trkpt lat="31.6416300" lon="35.4017600">
<ele>-53.980000</ele>
<time>2023-03-16T18:33:48.656Z</time>
</trkpt>
<trkpt lat="31.6418600" lon="35.4017300">
<ele>-51.599998</ele>
<time>2023-03-16T18:33:48.656Z</time>
</trkpt>
<trkpt lat="31.6417000" lon="35.4015200">
<ele>-52.459999</ele>
<time>2023-03-16T18:33:48.656Z</time>
</trkpt>
<trkpt lat="31.6416700" lon="35.4012300">
<ele>-50.800003</ele>
<time>2023-03-16T18:33:48.656Z</time>
</trkpt>
<trkpt lat="31.6417500" lon="35.4014300">
<ele>-51.100002</ele>
<time>2023-03-16T18:33:48.656Z</time>
</trkpt>
<trkpt lat="31.6418000" lon="35.4014900">
<ele>-50.810001</ele>
<time>2023-03-16T18:33:48.656Z</time>
</trkpt>
<trkpt lat="31.6419100" lon="35.4015500">
<ele>-49.660000</ele>
<time>2023-03-16T18:33:48.656Z</time>
</trkpt>
<trkpt lat="31.6420800" lon="35.4016000">
<ele>-47.700001</ele>
<time>2023-03-16T18:33:48.656Z</time>
</trkpt>
<trkpt lat="31.6421400" lon="35.4016000">
<ele>-46.899998</ele>
<time>2023-03-16T18:33:48.656Z</time>
</trkpt>
<trkpt lat="31.6422200" lon="35.4015600">
<ele>-45.110001</ele>
<time>2023-03-16T18:33:48.656Z</time>
</trkpt>
<trkpt lat="31.6424100" lon="35.4013500">
<ele>-41.350002</ele>
<time>2023-03-16T18:33:48.656Z</time>
</trkpt>
<trkpt lat="31.6424100" lon="35.4013500">
<ele>-41.350002</ele>
<time>2023-03-16T18:33:48.656Z</time>
</trkpt>
<trkpt lat="31.6424100" lon="35.4013500">
<ele>-41.350002</ele>
<time>2023-03-16T18:33:48.656Z</time>
</trkpt>
<trkpt lat="31.6427300" lon="35.4011000">
<ele>-39.320000</ele>
<time>2023-03-16T18:33:48.656Z</time>
</trkpt>
<trkpt lat="31.6428500" lon="35.4010500">
<ele>-39.119999</ele>
<time>2023-03-16T18:33:48.656Z</time>
</trkpt>
<trkpt lat="31.6431800" lon="35.4010600">
<ele>-39.349998</ele>
<time>2023-03-16T18:33:48.656Z</time>
</trkpt>
<trkpt lat="31.6432500" lon="35.4010400">
<ele>-39.160000</ele>
<time>2023-03-16T18:33:48.656Z</time>
</trkpt>
<trkpt lat="31.6436100" lon="35.4008700">
<ele>-38.860001</ele>
<time>2023-03-16T18:33:48.656Z</time>
</trkpt>
<trkpt lat="31.6439200" lon="35.4006600">
<ele>-35.520000</ele>
<time>2023-03-16T18:33:48.656Z</time>
</trkpt>
<trkpt lat="31.6440300" lon="35.4006000">
<ele>-34.580002</ele>
<time>2023-03-16T18:33:48.656Z</time>
</trkpt>
<trkpt lat="31.6441600" lon="35.4005800">
<ele>-32.590000</ele>
<time>2023-03-16T18:33:48.656Z</time>
</trkpt>
<trkpt lat="31.6443100" lon="35.4005900">
<ele>-31.420000</ele>
<time>2023-03-16T18:33:48.656Z</time>
</trkpt>
<trkpt lat="31.6444300" lon="35.4006200">
<ele>-30.369999</ele>
<time>2023-03-16T18:33:48.656Z</time>
</trkpt>
<trkpt lat="31.6446800" lon="35.4007700">
<ele>-29.150000</ele>
<time>2023-03-16T18:33:48.656Z</time>
</trkpt>
<trkpt lat="31.6449000" lon="35.4010100">
<ele>-28.950001</ele>
<time>2023-03-16T18:33:48.656Z</time>
</trkpt>
<trkpt lat="31.6450700" lon="35.4012300">
<ele>-27.779999</ele>
<time>2023-03-16T18:33:48.656Z</time>
</trkpt>
<trkpt lat="31.6451200" lon="35.4013600">
<ele>-26.310001</ele>
<time>2023-03-16T18:33:48.656Z</time>
</trkpt>
<trkpt lat="31.6451700" lon="35.4017100">
<ele>-26.540001</ele>
<time>2023-03-16T18:33:48.656Z</time>
</trkpt>
<trkpt lat="31.6452300" lon="35.4018600">
<ele>-26.869999</ele>
<time>2023-03-16T18:33:48.656Z</time>
</trkpt>
<trkpt lat="31.6453100" lon="35.4019600">
<ele>-27.110001</ele>
<time>2023-03-16T18:33:48.656Z</time>
</trkpt>
<trkpt lat="31.6455200" lon="35.4021200">
<ele>-27.709999</ele>
<time>2023-03-16T18:33:48.656Z</time>
</trkpt>
<trkpt lat="31.6455700" lon="35.4021800">
<ele>-28.010000</ele>
<time>2023-03-16T18:33:48.656Z</time>
</trkpt>
<trkpt lat="31.6458900" lon="35.4029700">
<ele>-30.449999</ele>
<time>2023-03-16T18:33:48.656Z</time>
</trkpt>
<trkpt lat="31.6460200" lon="35.4031600">
<ele>-32.500000</ele>
<time>2023-03-16T18:33:48.656Z</time>
</trkpt>
<trkpt lat="31.6461200" lon="35.4034300">
<ele>-34.279999</ele>
<time>2023-03-16T18:33:48.656Z</time>
</trkpt>
<trkpt lat="31.6461700" lon="35.4035000">
<ele>-33.720001</ele>
<time>2023-03-16T18:33:48.656Z</time>
</trkpt>
<trkpt lat="31.6462200" lon="35.4035300">
<ele>-33.469997</ele>
<time>2023-03-16T18:33:48.656Z</time>
</trkpt>
<trkpt lat="31.6464300" lon="35.4035900">
<ele>-32.799999</ele>
<time>2023-03-16T18:33:48.656Z</time>
</trkpt>
<trkpt lat="31.6468000" lon="35.4037600">
<ele>-31.129999</ele>
<time>2023-03-16T18:33:48.656Z</time>
</trkpt>
<trkpt lat="31.6472600" lon="35.4040400">
<ele>-31.029999</ele>
<time>2023-03-16T18:33:48.656Z</time>
</trkpt>
<trkpt lat="31.6473700" lon="35.4040900">
<ele>-31.300001</ele>
<time>2023-03-16T18:33:48.656Z</time>
</trkpt>
<trkpt lat="31.6477500" lon="35.4041900">
<ele>-31.770000</ele>
<time>2023-03-16T18:33:48.656Z</time>
</trkpt>
<trkpt lat="31.6484000" lon="35.4042000">
<ele>-25.879999</ele>
<time>2023-03-16T18:33:48.656Z</time>
</trkpt>
<trkpt lat="31.6485900" lon="35.4042300">
<ele>-25.299999</ele>
<time>2023-03-16T18:33:48.656Z</time>
</trkpt>
<trkpt lat="31.6491100" lon="35.4043300">
<ele>-27.779999</ele>
<time>2023-03-16T18:33:48.656Z</time>
</trkpt>
<trkpt lat="31.6492700" lon="35.4043200">
<ele>-27.410000</ele>
<time>2023-03-16T18:33:48.656Z</time>
</trkpt>
<trkpt lat="31.6494600" lon="35.4042800">
<ele>-27.449999</ele>
<time>2023-03-16T18:33:48.656Z</time>
</trkpt>
<trkpt lat="31.6496600" lon="35.4042800">
<ele>-23.709999</ele>
<time>2023-03-16T18:33:48.656Z</time>
</trkpt>
<trkpt lat="31.6497700" lon="35.4043100">
<ele>-21.830000</ele>
<time>2023-03-16T18:33:48.656Z</time>
</trkpt>
<trkpt lat="31.6498900" lon="35.4043800">
<ele>-20.580000</ele>
<time>2023-03-16T18:33:48.656Z</time>
</trkpt>
<trkpt lat="31.6501100" lon="35.4045300">
<ele>-20.920000</ele>
<time>2023-03-16T18:33:48.656Z</time>
</trkpt>
<trkpt lat="31.6501700" lon="35.4046100">
<ele>-21.790001</ele>
<time>2023-03-16T18:33:48.656Z</time>
</trkpt>
<trkpt lat="31.6502500" lon="35.4048200">
<ele>-23.990002</ele>
<time>2023-03-16T18:33:48.656Z</time>
</trkpt>
<trkpt lat="31.6503200" lon="35.4049500">
<ele>-25.180000</ele>
<time>2023-03-16T18:33:48.656Z</time>
</trkpt>
<trkpt lat="31.6504900" lon="35.4050900">
<ele>-25.140001</ele>
<time>2023-03-16T18:33:48.656Z</time>
</trkpt>
<trkpt lat="31.6505900" lon="35.4052500">
<ele>-26.949999</ele>
<time>2023-03-16T18:33:48.656Z</time>
</trkpt>
<trkpt lat="31.6507300" lon="35.4055100">
<ele>-29.210001</ele>
<time>2023-03-16T18:33:48.656Z</time>
</trkpt>
<trkpt lat="31.6507800" lon="35.4055700">
<ele>-30.920002</ele>
<time>2023-03-16T18:33:48.656Z</time>
</trkpt>
<trkpt lat="31.6508500" lon="35.4056000">
<ele>-33.180000</ele>
<time>2023-03-16T18:33:48.656Z</time>
</trkpt>
<trkpt lat="31.6509700" lon="35.4056100">
<ele>-34.950001</ele>
<time>2023-03-16T18:33:48.656Z</time>
</trkpt>
<trkpt lat="31.6511900" lon="35.4055700">
<ele>-36.189999</ele>
<time>2023-03-16T18:33:48.656Z</time>
</trkpt>
<trkpt lat="31.6513500" lon="35.4055700">
<ele>-36.160000</ele>
<time>2023-03-16T18:33:48.656Z</time>
</trkpt>
<trkpt lat="31.6515700" lon="35.4056100">
<ele>-36.980000</ele>
<time>2023-03-16T18:33:48.656Z</time>
</trkpt>
<trkpt lat="31.6517200" lon="35.4056100">
<ele>-36.930000</ele>
<time>2023-03-16T18:33:48.656Z</time>
</trkpt>
<trkpt lat="31.6518300" lon="35.4056400">
<ele>-36.360001</ele>
<time>2023-03-16T18:33:48.656Z</time>
</trkpt>
<trkpt lat="31.6520500" lon="35.4057700">
<ele>-33.330002</ele>
<time>2023-03-16T18:33:48.656Z</time>
</trkpt>
<trkpt lat="31.6521100" lon="35.4057800">
<ele>-32.209999</ele>
<time>2023-03-16T18:33:48.656Z</time>
</trkpt>
<trkpt lat="31.6522100" lon="35.4057500">
<ele>-30.520000</ele>
<time>2023-03-16T18:33:48.656Z</time>
</trkpt>
<trkpt lat="31.6523200" lon="35.4056800">
<ele>-29.650000</ele>
<time>2023-03-16T18:33:48.656Z</time>
</trkpt>
<trkpt lat="31.6526400" lon="35.4054400">
<ele>-26.700001</ele>
<time>2023-03-16T18:33:48.656Z</time>
</trkpt>
<trkpt lat="31.6527000" lon="35.4054100">
<ele>-26.219999</ele>
<time>2023-03-16T18:33:48.656Z</time>
</trkpt>
<trkpt lat="31.6527700" lon="35.4054000">
<ele>-25.630001</ele>
<time>2023-03-16T18:33:48.656Z</time>
</trkpt>
<trkpt lat="31.6528200" lon="35.4054100">
<ele>-24.900002</ele>
<time>2023-03-16T18:33:48.656Z</time>
</trkpt>
<trkpt lat="31.6528900" lon="35.4054600">
<ele>-23.980000</ele>
<time>2023-03-16T18:33:48.656Z</time>
</trkpt>
<trkpt lat="31.6530400" lon="35.4056500">
<ele>-24.110001</ele>
<time>2023-03-16T18:33:48.656Z</time>
</trkpt>
<trkpt lat="31.6531000" lon="35.4057000">
<ele>-24.330002</ele>
<time>2023-03-16T18:33:48.656Z</time>
</trkpt>
<trkpt lat="31.6531800" lon="35.4057400">
<ele>-24.539999</ele>
<time>2023-03-16T18:33:48.656Z</time>
</trkpt>
<trkpt lat="31.6533900" lon="35.4057800">
<ele>-24.309999</ele>
<time>2023-03-16T18:33:48.656Z</time>
</trkpt>
<trkpt lat="31.6536800" lon="35.4057900">
<ele>-22.410000</ele>
<time>2023-03-16T18:33:48.656Z</time>
</trkpt>
<trkpt lat="31.6543400" lon="35.4059500">
<ele>-18.170000</ele>
<time>2023-03-16T18:33:48.656Z</time>
</trkpt>
<trkpt lat="31.6547900" lon="35.4061300">
<ele>-16.330000</ele>
<time>2023-03-16T18:33:48.656Z</time>
</trkpt>
<trkpt lat="31.6551800" lon="35.4061600">
<ele>-18.119999</ele>
<time>2023-03-16T18:33:48.656Z</time>
</trkpt>
<trkpt lat="31.6553100" lon="35.4062400">
<ele>-18.420000</ele>
<time>2023-03-16T18:33:48.656Z</time>
</trkpt>
<trkpt lat="31.6554000" lon="35.4062600">
<ele>-18.020000</ele>
<time>2023-03-16T18:33:48.656Z</time>
</trkpt>
<trkpt lat="31.6557100" lon="35.4062200">
<ele>-18.040001</ele>
<time>2023-03-16T18:33:48.656Z</time>
</trkpt>
<trkpt lat="31.6557700" lon="35.4062300">
<ele>-18.230000</ele>
<time>2023-03-16T18:33:48.656Z</time>
</trkpt>
<trkpt lat="31.6558600" lon="35.4062700">
<ele>-19.000000</ele>
<time>2023-03-16T18:33:48.656Z</time>
</trkpt>
<trkpt lat="31.6560400" lon="35.4064700">
<ele>-21.389999</ele>
<time>2023-03-16T18:33:48.656Z</time>
</trkpt>
<trkpt lat="31.6561700" lon="35.4064600">
<ele>-22.750000</ele>
<time>2023-03-16T18:33:48.656Z</time>
</trkpt>
<trkpt lat="31.6563900" lon="35.4063400">
<ele>-24.000000</ele>
<time>2023-03-16T18:33:48.656Z</time>
</trkpt>
<trkpt lat="31.6567700" lon="35.4061000">
<ele>-25.349998</ele>
<time>2023-03-16T18:33:48.656Z</time>
</trkpt>
<trkpt lat="31.6573100" lon="35.4061400">
<ele>-34.920002</ele>
<time>2023-03-16T18:33:48.656Z</time>
</trkpt>
<trkpt lat="31.6577500" lon="35.4058600">
<ele>-36.919998</ele>
<time>2023-03-16T18:33:48.656Z</time>
</trkpt>
<trkpt lat="31.6580600" lon="35.4056100">
<ele>-32.520000</ele>
<time>2023-03-16T18:33:48.656Z</time>
</trkpt>
<trkpt lat="31.6581600" lon="35.4055500">
<ele>-30.449999</ele>
<time>2023-03-16T18:33:48.656Z</time>
</trkpt>
<trkpt lat="31.6583500" lon="35.4056000">
<ele>-28.309999</ele>
<time>2023-03-16T18:33:48.656Z</time>
</trkpt>
<trkpt lat="31.6588000" lon="35.4063000">
<ele>-27.960001</ele>
<time>2023-03-16T18:33:48.656Z</time>
</trkpt>
<trkpt lat="31.6592400" lon="35.4066200">
<ele>-25.910000</ele>
<time>2023-03-16T18:33:48.656Z</time>
</trkpt>
<trkpt lat="31.6594100" lon="35.4069200">
<ele>-25.250000</ele>
<time>2023-03-16T18:33:48.656Z</time>
</trkpt>
<trkpt lat="31.6596100" lon="35.4070600">
<ele>-24.199999</ele>
<time>2023-03-16T18:33:48.656Z</time>
</trkpt>
<trkpt lat="31.6600200" lon="35.4072300">
<ele>-23.289999</ele>
<time>2023-03-16T18:33:48.656Z</time>
</trkpt>
<trkpt lat="31.6611800" lon="35.4076100">
<ele>-22.090000</ele>
<time>2023-03-16T18:33:48.656Z</time>
</trkpt>
<trkpt lat="31.6617300" lon="35.4074500">
<ele>-22.090000</ele>
<time>2023-03-16T18:33:48.656Z</time>
</trkpt>
<trkpt lat="31.6619200" lon="35.4072500">
<ele>-22.830000</ele>
<time>2023-03-16T18:33:48.656Z</time>
</trkpt>
<trkpt lat="31.6620700" lon="35.4070000">
<ele>-22.559999</ele>
<time>2023-03-16T18:33:48.656Z</time>
</trkpt>
<trkpt lat="31.6621300" lon="35.4069400">
<ele>-22.660000</ele>
<time>2023-03-16T18:33:48.656Z</time>
</trkpt>
<trkpt lat="31.6623600" lon="35.4068600">
<ele>-22.500002</ele>
<time>2023-03-16T18:33:48.656Z</time>
</trkpt>
<trkpt lat="31.6624900" lon="35.4068900">
<ele>-22.039999</ele>
<time>2023-03-16T18:33:48.656Z</time>
</trkpt>
<trkpt lat="31.6628400" lon="35.4070800">
<ele>-23.870001</ele>
<time>2023-03-16T18:33:48.656Z</time>
</trkpt>
<trkpt lat="31.6630100" lon="35.4070800">
<ele>-26.299999</ele>
<time>2023-03-16T18:33:48.656Z</time>
</trkpt>
<trkpt lat="31.6631600" lon="35.4070400">
<ele>-25.999998</ele>
<time>2023-03-16T18:33:48.656Z</time>
</trkpt>
<trkpt lat="31.6633100" lon="35.4070800">
<ele>-26.039999</ele>
<time>2023-03-16T18:33:48.656Z</time>
</trkpt>
<trkpt lat="31.6635400" lon="35.4072100">
<ele>-25.619999</ele>
<time>2023-03-16T18:33:48.656Z</time>
</trkpt>
<trkpt lat="31.6638300" lon="35.4071400">
<ele>-24.110001</ele>
<time>2023-03-16T18:33:48.656Z</time>
</trkpt>
<trkpt lat="31.6639300" lon="35.4072600">
<ele>-24.720001</ele>
<time>2023-03-16T18:33:48.656Z</time>
</trkpt>
<trkpt lat="31.6640200" lon="35.4073800">
<ele>-24.320000</ele>
<time>2023-03-16T18:33:48.656Z</time>
</trkpt>
<trkpt lat="31.6640900" lon="35.4074400">
<ele>-24.119999</ele>
<time>2023-03-16T18:33:48.656Z</time>
</trkpt>
<trkpt lat="31.6645400" lon="35.4074100">
<ele>-24.010000</ele>
<time>2023-03-16T18:33:48.656Z</time>
</trkpt>
<trkpt lat="31.6648700" lon="35.4076100">
<ele>-23.059999</ele>
<time>2023-03-16T18:33:48.656Z</time>
</trkpt>
<trkpt lat="31.6652900" lon="35.4073000">
<ele>-20.220001</ele>
<time>2023-03-16T18:33:48.656Z</time>
</trkpt>
<trkpt lat="31.6655000" lon="35.4072000">
<ele>-19.200001</ele>
<time>2023-03-16T18:33:48.656Z</time>
</trkpt>
<trkpt lat="31.6667200" lon="35.4073300">
<ele>-14.470000</ele>
<time>2023-03-16T18:33:48.656Z</time>
</trkpt>
<trkpt lat="31.6669500" lon="35.4074400">
<ele>-14.280001</ele>
<time>2023-03-16T18:33:48.656Z</time>
</trkpt>
<trkpt lat="31.6670400" lon="35.4076600">
<ele>-14.970000</ele>
<time>2023-03-16T18:33:48.656Z</time>
</trkpt>
<trkpt lat="31.6669700" lon="35.4078700">
<ele>-16.820000</ele>
<time>2023-03-16T18:33:48.656Z</time>
</trkpt>
<trkpt lat="31.6662400" lon="35.4087000">
<ele>-18.680000</ele>
<time>2023-03-16T18:33:48.656Z</time>
</trkpt>
<trkpt lat="31.6662000" lon="35.4088000">
<ele>-18.320000</ele>
<time>2023-03-16T18:33:48.656Z</time>
</trkpt>
<trkpt lat="31.6661900" lon="35.4090700">
<ele>-18.930000</ele>
<time>2023-03-16T18:33:48.656Z</time>
</trkpt>
<trkpt lat="31.6663200" lon="35.4093300">
<ele>-18.500000</ele>
<time>2023-03-16T18:33:48.656Z</time>
</trkpt>
<trkpt lat="31.6663000" lon="35.4096200">
<ele>-19.070000</ele>
<time>2023-03-16T18:33:48.656Z</time>
</trkpt>
<trkpt lat="31.6660400" lon="35.4102100">
<ele>-19.990002</ele>
<time>2023-03-16T18:33:48.656Z</time>
</trkpt>
<trkpt lat="31.6656900" lon="35.4107200">
<ele>-16.980000</ele>
<time>2023-03-16T18:33:48.656Z</time>
</trkpt>
<trkpt lat="31.6654300" lon="35.4109900">
<ele>-17.209999</ele>
<time>2023-03-16T18:33:48.656Z</time>
</trkpt>
<trkpt lat="31.6653100" lon="35.4117700">
<ele>-24.490000</ele>
<time>2023-03-16T18:33:48.656Z</time>
</trkpt>
<trkpt lat="31.6648400" lon="35.4122800">
<ele>-30.680000</ele>
<time>2023-03-16T18:33:48.656Z</time>
</trkpt>
<trkpt lat="31.6644800" lon="35.4130900">
<ele>-44.130001</ele>
<time>2023-03-16T18:33:48.656Z</time>
</trkpt>
<trkpt lat="31.6644900" lon="35.4133700">
<ele>-47.119999</ele>
<time>2023-03-16T18:33:48.656Z</time>
</trkpt>
<trkpt lat="31.6647200" lon="35.4136200">
<ele>-48.939999</ele>
<time>2023-03-16T18:33:48.656Z</time>
</trkpt>
<trkpt lat="31.6650800" lon="35.4141700">
<ele>-43.580002</ele>
<time>2023-03-16T18:33:48.656Z</time>
</trkpt>
<trkpt lat="31.6656000" lon="35.4144400">
<ele>-47.489998</ele>
<time>2023-03-16T18:33:48.656Z</time>
</trkpt>
<trkpt lat="31.6658600" lon="35.4144500">
<ele>-44.829998</ele>
<time>2023-03-16T18:33:48.656Z</time>
</trkpt>
<trkpt lat="31.6663200" lon="35.4143300">
<ele>-40.949997</ele>
<time>2023-03-16T18:33:48.656Z</time>
</trkpt>
<trkpt lat="31.6668200" lon="35.4143900">
<ele>-40.299999</ele>
<time>2023-03-16T18:33:48.656Z</time>
</trkpt>
<trkpt lat="31.6671900" lon="35.4143300">
<ele>-43.560001</ele>
<time>2023-03-16T18:33:48.656Z</time>
</trkpt>
<trkpt lat="31.6674300" lon="35.4143600">
<ele>-45.059998</ele>
<time>2023-03-16T18:33:48.656Z</time>
</trkpt>
<trkpt lat="31.6680100" lon="35.4146000">
<ele>-46.160000</ele>
<time>2023-03-16T18:33:48.656Z</time>
</trkpt>
<trkpt lat="31.6684700" lon="35.4149200">
<ele>-42.560001</ele>
<time>2023-03-16T18:33:48.656Z</time>
</trkpt>
<trkpt lat="31.6688800" lon="35.4150400">
<ele>-44.279999</ele>
<time>2023-03-16T18:33:48.656Z</time>
</trkpt>
<trkpt lat="31.6691200" lon="35.4152400">
<ele>-46.560001</ele>
<time>2023-03-16T18:33:48.656Z</time>
</trkpt>
<trkpt lat="31.6692300" lon="35.4153000">
<ele>-46.480000</ele>
<time>2023-03-16T18:33:48.656Z</time>
</trkpt>
<trkpt lat="31.6700500" lon="35.4153600">
<ele>-43.910000</ele>
<time>2023-03-16T18:33:48.656Z</time>
</trkpt>
<trkpt lat="31.6704000" lon="35.4155900">
<ele>-43.560001</ele>
<time>2023-03-16T18:33:48.656Z</time>
</trkpt>
<trkpt lat="31.6704600" lon="35.4158600">
<ele>-44.630001</ele>
<time>2023-03-16T18:33:48.656Z</time>
</trkpt>
<trkpt lat="31.6703100" lon="35.4164600">
<ele>-43.630001</ele>
<time>2023-03-16T18:33:48.656Z</time>
</trkpt>
<trkpt lat="31.6705200" lon="35.4169000">
<ele>-40.450001</ele>
<time>2023-03-16T18:33:48.656Z</time>
</trkpt>
<trkpt lat="31.6708100" lon="35.4171000">
<ele>-35.730000</ele>
<time>2023-03-16T18:33:48.656Z</time>
</trkpt>
<trkpt lat="31.6711900" lon="35.4175700">
<ele>-31.639999</ele>
<time>2023-03-16T18:33:48.656Z</time>
</trkpt>
<trkpt lat="31.6715800" lon="35.4176800">
<ele>-31.500000</ele>
<time>2023-03-16T18:33:48.656Z</time>
</trkpt>
<trkpt lat="31.6717200" lon="35.4178100">
<ele>-32.629997</ele>
<time>2023-03-16T18:33:48.656Z</time>
</trkpt>
<trkpt lat="31.6718000" lon="35.4180900">
<ele>-32.200001</ele>
<time>2023-03-16T18:33:48.656Z</time>
</trkpt>
<trkpt lat="31.6717400" lon="35.4185200">
<ele>-30.260000</ele>
<time>2023-03-16T18:33:48.656Z</time>
</trkpt>
<trkpt lat="31.6718000" lon="35.4187400">
<ele>-31.410000</ele>
<time>2023-03-16T18:33:48.656Z</time>
</trkpt>
<trkpt lat="31.6724700" lon="35.4193100">
<ele>-36.730000</ele>
<time>2023-03-16T18:33:48.656Z</time>
</trkpt>
<trkpt lat="31.6727400" lon="35.4196200">
<ele>-34.549999</ele>
<time>2023-03-16T18:33:48.656Z</time>
</trkpt>
<trkpt lat="31.6729300" lon="35.4197100">
<ele>-31.850000</ele>
<time>2023-03-16T18:33:48.656Z</time>
</trkpt>
<trkpt lat="31.6732600" lon="35.4196900">
<ele>-26.520000</ele>
<time>2023-03-16T18:33:48.656Z</time>
</trkpt>
<trkpt lat="31.6736800" lon="35.4193300">
<ele>-25.299999</ele>
<time>2023-03-16T18:33:48.656Z</time>
</trkpt>
<trkpt lat="31.6742400" lon="35.4190500">
<ele>-26.839998</ele>
<time>2023-03-16T18:33:48.656Z</time>
</trkpt>
<trkpt lat="31.6744600" lon="35.4190700">
<ele>-27.829998</ele>
<time>2023-03-16T18:33:48.656Z</time>
</trkpt>
<trkpt lat="31.6748300" lon="35.4202000">
<ele>-23.059999</ele>
<time>2023-03-16T18:33:48.656Z</time>
</trkpt>
<trkpt lat="31.6754100" lon="35.4211700">
<ele>-22.219999</ele>
<time>2023-03-16T18:33:48.656Z</time>
</trkpt>
<trkpt lat="31.6756500" lon="35.4218400">
<ele>-24.080000</ele>
<time>2023-03-16T18:33:48.656Z</time>
</trkpt>
<trkpt lat="31.6759000" lon="35.4228600">
<ele>-22.130001</ele>
<time>2023-03-16T18:33:48.656Z</time>
</trkpt>
<trkpt lat="31.6761000" lon="35.4240500">
<ele>-24.380001</ele>
<time>2023-03-16T18:33:48.656Z</time>
</trkpt>
<trkpt lat="31.6760400" lon="35.4247000">
<ele>-23.980000</ele>
<time>2023-03-16T18:33:48.656Z</time>
</trkpt>
<trkpt lat="31.6760900" lon="35.4252100">
<ele>-27.420000</ele>
<time>2023-03-16T18:33:48.656Z</time>
</trkpt>
<trkpt lat="31.6771400" lon="35.4280300">
<ele>-40.820000</ele>
<time>2023-03-16T18:33:48.656Z</time>
</trkpt>
<trkpt lat="31.6771400" lon="35.4280300">
<ele>-40.820000</ele>
<time>2023-03-16T18:33:48.656Z</time>
</trkpt>
<trkpt lat="31.6771400" lon="35.4280300">
<ele>-40.820000</ele>
<time>2023-03-16T18:33:48.656Z</time>
</trkpt>
<trkpt lat="31.6760900" lon="35.4252100">
<ele>-27.420000</ele>
<time>2023-03-16T18:33:48.656Z</time>
</trkpt>
<trkpt lat="31.6760400" lon="35.4247000">
<ele>-23.980000</ele>
<time>2023-03-16T18:33:48.656Z</time>
</trkpt>
<trkpt lat="31.6761000" lon="35.4240500">
<ele>-24.380001</ele>
<time>2023-03-16T18:33:48.656Z</time>
</trkpt>
<trkpt lat="31.6759000" lon="35.4228600">
<ele>-22.130001</ele>
<time>2023-03-16T18:33:48.656Z</time>
</trkpt>
<trkpt lat="31.6756500" lon="35.4218400">
<ele>-24.080000</ele>
<time>2023-03-16T18:33:48.656Z</time>
</trkpt>
<trkpt lat="31.6754100" lon="35.4211700">
<ele>-22.219999</ele>
<time>2023-03-16T18:33:48.656Z</time>
</trkpt>
<trkpt lat="31.6748300" lon="35.4202000">
<ele>-23.059999</ele>
<time>2023-03-16T18:33:48.656Z</time>
</trkpt>
<trkpt lat="31.6744600" lon="35.4190700">
<ele>-27.829998</ele>
<time>2023-03-16T18:33:48.656Z</time>
</trkpt>
<trkpt lat="31.6746600" lon="35.4190400">
<ele>-25.959999</ele>
<time>2023-03-16T18:33:48.656Z</time>
</trkpt>
<trkpt lat="31.6748200" lon="35.4190300">
<ele>-24.779999</ele>
<time>2023-03-16T18:33:48.656Z</time>
</trkpt>
<trkpt lat="31.6751700" lon="35.4189600">
<ele>-21.879999</ele>
<time>2023-03-16T18:33:48.656Z</time>
</trkpt>
<trkpt lat="31.6753400" lon="35.4188700">
<ele>-19.530001</ele>
<time>2023-03-16T18:33:48.656Z</time>
</trkpt>
<trkpt lat="31.6755800" lon="35.4187100">
<ele>-15.880000</ele>
<time>2023-03-16T18:33:48.656Z</time>
</trkpt>
<trkpt lat="31.6758100" lon="35.4186700">
<ele>-15.640000</ele>
<time>2023-03-16T18:33:48.656Z</time>
</trkpt>
<trkpt lat="31.6761300" lon="35.4186600">
<ele>-14.080000</ele>
<time>2023-03-16T18:33:48.656Z</time>
</trkpt>
<trkpt lat="31.6762800" lon="35.4186000">
<ele>-16.450001</ele>
<time>2023-03-16T18:33:48.656Z</time>
</trkpt>
<trkpt lat="31.6763500" lon="35.4185100">
<ele>-17.490000</ele>
<time>2023-03-16T18:33:48.656Z</time>
</trkpt>
<trkpt lat="31.6763800" lon="35.4184400">
<ele>-17.889999</ele>
<time>2023-03-16T18:33:48.656Z</time>
</trkpt>
<trkpt lat="31.6763900" lon="35.4182900">
<ele>-18.190001</ele>
<time>2023-03-16T18:33:48.656Z</time>
</trkpt>
<trkpt lat="31.6763400" lon="35.4181300">
<ele>-17.430000</ele>
<time>2023-03-16T18:33:48.656Z</time>
</trkpt>
<trkpt lat="31.6762500" lon="35.4180300">
<ele>-13.990000</ele>
<time>2023-03-16T18:33:48.656Z</time>
</trkpt>
<trkpt lat="31.6760100" lon="35.4178200">
<ele>-2.540000</ele>
<time>2023-03-16T18:33:48.656Z</time>
</trkpt>
<trkpt lat="31.6759300" lon="35.4176700">
<ele>0.470000</ele>
<time>2023-03-16T18:33:48.656Z</time>
</trkpt>
<trkpt lat="31.6758200" lon="35.4174000">
<ele>3.530000</ele>
<time>2023-03-16T18:33:48.656Z</time>
</trkpt>
<trkpt lat="31.6757700" lon="35.4172500">
<ele>3.890000</ele>
<time>2023-03-16T18:33:48.656Z</time>
</trkpt>
<trkpt lat="31.6757300" lon="35.4169900">
<ele>4.660000</ele>
<time>2023-03-16T18:33:48.656Z</time>
</trkpt>
<trkpt lat="31.6757500" lon="35.4167800">
<ele>6.820000</ele>
<time>2023-03-16T18:33:48.656Z</time>
</trkpt>
<trkpt lat="31.6757700" lon="35.4166500">
<ele>8.150001</ele>
<time>2023-03-16T18:33:48.656Z</time>
</trkpt>
<trkpt lat="31.6758400" lon="35.4164600">
<ele>9.430000</ele>
<time>2023-03-16T18:33:48.656Z</time>
</trkpt>
<trkpt lat="31.6759500" lon="35.4163500">
<ele>8.080000</ele>
<time>2023-03-16T18:33:48.656Z</time>
</trkpt>
<trkpt lat="31.6760000" lon="35.4163200">
<ele>6.860000</ele>
<time>2023-03-16T18:33:48.656Z</time>
</trkpt>
<trkpt lat="31.6771600" lon="35.4158800">
<ele>-14.960000</ele>
<time>2023-03-16T18:33:48.656Z</time>
</trkpt>
<trkpt lat="31.6772900" lon="35.4158600">
<ele>-16.289999</ele>
<time>2023-03-16T18:33:48.656Z</time>
</trkpt>
<trkpt lat="31.6776500" lon="35.4159700">
<ele>-25.260000</ele>
<time>2023-03-16T18:33:48.656Z</time>
</trkpt>
<trkpt lat="31.6777900" lon="35.4159900">
<ele>-28.580000</ele>
<time>2023-03-16T18:33:48.656Z</time>
</trkpt>
<trkpt lat="31.6779300" lon="35.4159600">
<ele>-28.800001</ele>
<time>2023-03-16T18:33:48.656Z</time>
</trkpt>
<trkpt lat="31.6784300" lon="35.4157900">
<ele>-33.450001</ele>
<time>2023-03-16T18:33:48.656Z</time>
</trkpt>
<trkpt lat="31.6784900" lon="35.4157500">
<ele>-33.689999</ele>
<time>2023-03-16T18:33:48.656Z</time>
</trkpt>
<trkpt lat="31.6785600" lon="35.4156500">
<ele>-33.939999</ele>
<time>2023-03-16T18:33:48.656Z</time>
</trkpt>
<trkpt lat="31.6786200" lon="35.4155300">
<ele>-33.830002</ele>
<time>2023-03-16T18:33:48.656Z</time>
</trkpt>
<trkpt lat="31.6786400" lon="35.4154300">
<ele>-33.340000</ele>
<time>2023-03-16T18:33:48.656Z</time>
</trkpt>
<trkpt lat="31.6786500" lon="35.4153100">
<ele>-32.930000</ele>
<time>2023-03-16T18:33:48.656Z</time>
</trkpt>
<trkpt lat="31.6785600" lon="35.4144000">
<ele>-33.100002</ele>
<time>2023-03-16T18:33:48.656Z</time>
</trkpt>
<trkpt lat="31.6785900" lon="35.4141100">
<ele>-29.879999</ele>
<time>2023-03-16T18:33:48.656Z</time>
</trkpt>
<trkpt lat="31.6786200" lon="35.4140100">
<ele>-28.750000</ele>
<time>2023-03-16T18:33:48.656Z</time>
</trkpt>
<trkpt lat="31.6786700" lon="35.4139400">
<ele>-27.789999</ele>
<time>2023-03-16T18:33:48.656Z</time>
</trkpt>
<trkpt lat="31.6787800" lon="35.4138500">
<ele>-26.780001</ele>
<time>2023-03-16T18:33:48.656Z</time>
</trkpt>
<trkpt lat="31.6788500" lon="35.4138200">
<ele>-26.280001</ele>
<time>2023-03-16T18:33:48.656Z</time>
</trkpt>
<trkpt lat="31.6788500" lon="35.4138200">
<ele>-26.280001</ele>
<time>2023-03-16T18:33:48.656Z</time>
</trkpt>
<trkpt lat="31.6790200" lon="35.4138200">
<ele>-24.820000</ele>
<time>2023-03-16T18:33:48.656Z</time>
</trkpt>
<trkpt lat="31.6793500" lon="35.4138600">
<ele>-24.600000</ele>
<time>2023-03-16T18:33:48.656Z</time>
</trkpt>
<trkpt lat="31.6796200" lon="35.4139300">
<ele>-27.360001</ele>
<time>2023-03-16T18:33:48.656Z</time>
</trkpt>
<trkpt lat="31.6797200" lon="35.4139900">
<ele>-28.959999</ele>
<time>2023-03-16T18:33:48.656Z</time>
</trkpt>
<trkpt lat="31.6798300" lon="35.4141600">
<ele>-31.670000</ele>
<time>2023-03-16T18:33:48.656Z</time>
</trkpt>
<trkpt lat="31.6798300" lon="35.4141500">
<ele>-31.599998</ele>
<time>2023-03-16T18:33:48.656Z</time>
</trkpt>
<trkpt lat="31.6799300" lon="35.4143200">
<ele>-34.920002</ele>
<time>2023-03-16T18:33:48.656Z</time>
</trkpt>
<trkpt lat="31.6801200" lon="35.4145300">
<ele>-39.250000</ele>
<time>2023-03-16T18:33:48.656Z</time>
</trkpt>
<trkpt lat="31.6802000" lon="35.4146800">
<ele>-40.529999</ele>
<time>2023-03-16T18:33:48.656Z</time>
</trkpt>
<trkpt lat="31.6802700" lon="35.4148800">
<ele>-42.380001</ele>
<time>2023-03-16T18:33:48.656Z</time>
</trkpt>
<trkpt lat="31.6803300" lon="35.4150700">
<ele>-43.529999</ele>
<time>2023-03-16T18:33:48.656Z</time>
</trkpt>
<trkpt lat="31.6803900" lon="35.4153400">
<ele>-45.170002</ele>
<time>2023-03-16T18:33:48.656Z</time>
</trkpt>
<trkpt lat="31.6804500" lon="35.4154800">
<ele>-46.029999</ele>
<time>2023-03-16T18:33:48.656Z</time>
</trkpt>
<trkpt lat="31.6807500" lon="35.4159800">
<ele>-47.470001</ele>
<time>2023-03-16T18:33:48.656Z</time>
</trkpt>
<trkpt lat="31.6808300" lon="35.4162000">
<ele>-48.590000</ele>
<time>2023-03-16T18:33:48.656Z</time>
</trkpt>
<trkpt lat="31.6808700" lon="35.4163400">
<ele>-48.419998</ele>
<time>2023-03-16T18:33:48.656Z</time>
</trkpt>
<trkpt lat="31.6808900" lon="35.4166900">
<ele>-47.750000</ele>
<time>2023-03-16T18:33:48.656Z</time>
</trkpt>
<trkpt lat="31.6808600" lon="35.4170200">
<ele>-46.750004</ele>
<time>2023-03-16T18:33:48.656Z</time>
</trkpt>
<trkpt lat="31.6807800" lon="35.4175500">
<ele>-48.709999</ele>
<time>2023-03-16T18:33:48.656Z</time>
</trkpt>
<trkpt lat="31.6807000" lon="35.4178700">
<ele>-48.740002</ele>
<time>2023-03-16T18:33:48.656Z</time>
</trkpt>
<trkpt lat="31.6806900" lon="35.4179800">
<ele>-49.430000</ele>
<time>2023-03-16T18:33:48.656Z</time>
</trkpt>
<trkpt lat="31.6807100" lon="35.4180600">
<ele>-50.000000</ele>
<time>2023-03-16T18:33:48.656Z</time>
</trkpt>
<trkpt lat="31.6807400" lon="35.4181300">
<ele>-49.820000</ele>
<time>2023-03-16T18:33:48.656Z</time>
</trkpt>
<trkpt lat="31.6808400" lon="35.4182400">
<ele>-48.590000</ele>
<time>2023-03-16T18:33:48.656Z</time>
</trkpt>
<trkpt lat="31.6809900" lon="35.4183500">
<ele>-46.180000</ele>
<time>2023-03-16T18:33:48.656Z</time>
</trkpt>
<trkpt lat="31.6808400" lon="35.4182400">
<ele>-48.590000</ele>
<time>2023-03-16T18:33:48.656Z</time>
</trkpt>
<trkpt lat="31.6807400" lon="35.4181300">
<ele>-49.820000</ele>
<time>2023-03-16T18:33:48.656Z</time>
</trkpt>
<trkpt lat="31.6807100" lon="35.4180600">
<ele>-50.000000</ele>
<time>2023-03-16T18:33:48.656Z</time>
</trkpt>
<trkpt lat="31.6806900" lon="35.4179800">
<ele>-49.430000</ele>
<time>2023-03-16T18:33:48.656Z</time>
</trkpt>
<trkpt lat="31.6807000" lon="35.4178700">
<ele>-48.740002</ele>
<time>2023-03-16T18:33:48.656Z</time>
</trkpt>
<trkpt lat="31.6807800" lon="35.4175500">
<ele>-48.709999</ele>
<time>2023-03-16T18:33:48.656Z</time>
</trkpt>
<trkpt lat="31.6808600" lon="35.4170200">
<ele>-46.750004</ele>
<time>2023-03-16T18:33:48.656Z</time>
</trkpt>
<trkpt lat="31.6808900" lon="35.4166900">
<ele>-47.750000</ele>
<time>2023-03-16T18:33:48.656Z</time>
</trkpt>
<trkpt lat="31.6808700" lon="35.4163400">
<ele>-48.419998</ele>
<time>2023-03-16T18:33:48.656Z</time>
</trkpt>
<trkpt lat="31.6808300" lon="35.4162000">
<ele>-48.590000</ele>
<time>2023-03-16T18:33:48.656Z</time>
</trkpt>
<trkpt lat="31.6807500" lon="35.4159800">
<ele>-47.470001</ele>
<time>2023-03-16T18:33:48.656Z</time>
</trkpt>
<trkpt lat="31.6804500" lon="35.4154800">
<ele>-46.029999</ele>
<time>2023-03-16T18:33:48.656Z</time>
</trkpt>
<trkpt lat="31.6803900" lon="35.4153400">
<ele>-45.170002</ele>
<time>2023-03-16T18:33:48.656Z</time>
</trkpt>
<trkpt lat="31.6803300" lon="35.4150700">
<ele>-43.529999</ele>
<time>2023-03-16T18:33:48.656Z</time>
</trkpt>
<trkpt lat="31.6802700" lon="35.4148800">
<ele>-42.380001</ele>
<time>2023-03-16T18:33:48.656Z</time>
</trkpt>
<trkpt lat="31.6802000" lon="35.4146800">
<ele>-40.529999</ele>
<time>2023-03-16T18:33:48.656Z</time>
</trkpt>
<trkpt lat="31.6801200" lon="35.4145300">
<ele>-39.250000</ele>
<time>2023-03-16T18:33:48.656Z</time>
</trkpt>
<trkpt lat="31.6803100" lon="35.4143300">
<ele>-40.109997</ele>
<time>2023-03-16T18:33:48.656Z</time>
</trkpt>
<trkpt lat="31.6803400" lon="35.4142800">
<ele>-39.719997</ele>
<time>2023-03-16T18:33:48.656Z</time>
</trkpt>
<trkpt lat="31.6803400" lon="35.4142800">
<ele>-39.719997</ele>
<time>2023-03-16T18:33:48.656Z</time>
</trkpt>
<trkpt lat="31.6804000" lon="35.4141600">
<ele>-38.900002</ele>
<time>2023-03-16T18:33:48.656Z</time>
</trkpt>
<trkpt lat="31.6804600" lon="35.4141100">
<ele>-38.250000</ele>
<time>2023-03-16T18:33:48.656Z</time>
</trkpt>
<trkpt lat="31.6806100" lon="35.4140600">
<ele>-38.470001</ele>
<time>2023-03-16T18:33:48.656Z</time>
</trkpt>
<trkpt lat="31.6808200" lon="35.4138700">
<ele>-40.750000</ele>
<time>2023-03-16T18:33:48.656Z</time>
</trkpt>
<trkpt lat="31.6809400" lon="35.4137200">
<ele>-40.849998</ele>
<time>2023-03-16T18:33:48.656Z</time>
</trkpt>
<trkpt lat="31.6809900" lon="35.4136300">
<ele>-40.960003</ele>
<time>2023-03-16T18:33:48.656Z</time>
</trkpt>
<trkpt lat="31.6810100" lon="35.4135500">
<ele>-40.719997</ele>
<time>2023-03-16T18:33:48.656Z</time>
</trkpt>
<trkpt lat="31.6810200" lon="35.4134200">
<ele>-40.080002</ele>
<time>2023-03-16T18:33:48.656Z</time>
</trkpt>
<trkpt lat="31.6809500" lon="35.4132200">
<ele>-39.070000</ele>
<time>2023-03-16T18:33:48.656Z</time>
</trkpt>
<trkpt lat="31.6809100" lon="35.4130300">
<ele>-38.230000</ele>
<time>2023-03-16T18:33:48.656Z</time>
</trkpt>
<trkpt lat="31.6808800" lon="35.4125600">
<ele>-37.040001</ele>
<time>2023-03-16T18:33:48.656Z</time>
</trkpt>
<trkpt lat="31.6808600" lon="35.4123900">
<ele>-36.570000</ele>
<time>2023-03-16T18:33:48.656Z</time>
</trkpt>
<trkpt lat="31.6807600" lon="35.4119900">
<ele>-34.020000</ele>
<time>2023-03-16T18:33:48.656Z</time>
</trkpt>
<trkpt lat="31.6807300" lon="35.4117000">
<ele>-30.219999</ele>
<time>2023-03-16T18:33:48.656Z</time>
</trkpt>
<trkpt lat="31.6807600" lon="35.4113400">
<ele>-27.480000</ele>
<time>2023-03-16T18:33:48.656Z</time>
</trkpt>
<trkpt lat="31.6807900" lon="35.4109600">
<ele>-27.240000</ele>
<time>2023-03-16T18:33:48.656Z</time>
</trkpt>
<trkpt lat="31.6809200" lon="35.4105000">
<ele>-24.730000</ele>
<time>2023-03-16T18:33:48.656Z</time>
</trkpt>
<trkpt lat="31.6809200" lon="35.4101500">
<ele>-21.820002</ele>
<time>2023-03-16T18:33:48.656Z</time>
</trkpt>
<trkpt lat="31.6809100" lon="35.4100900">
<ele>-21.119999</ele>
<time>2023-03-16T18:33:48.656Z</time>
</trkpt>
<trkpt lat="31.6808900" lon="35.4099200">
<ele>-18.389999</ele>
<time>2023-03-16T18:33:48.656Z</time>
</trkpt>
<trkpt lat="31.6808600" lon="35.4095500">
<ele>-12.450001</ele>
<time>2023-03-16T18:33:48.656Z</time>
</trkpt>
<trkpt lat="31.6808100" lon="35.4094300">
<ele>-10.809999</ele>
<time>2023-03-16T18:33:48.656Z</time>
</trkpt>
<trkpt lat="31.6806800" lon="35.4092600">
<ele>-8.750000</ele>
<time>2023-03-16T18:33:48.656Z</time>
</trkpt>
<trkpt lat="31.6806200" lon="35.4091400">
<ele>-7.220000</ele>
<time>2023-03-16T18:33:48.656Z</time>
</trkpt>
<trkpt lat="31.6805200" lon="35.4088700">
<ele>-4.040000</ele>
<time>2023-03-16T18:33:48.656Z</time>
</trkpt>
<trkpt lat="31.6805200" lon="35.4087400">
<ele>-2.580000</ele>
<time>2023-03-16T18:33:48.656Z</time>
</trkpt>
<trkpt lat="31.6805600" lon="35.4081900">
<ele>6.980000</ele>
<time>2023-03-16T18:33:48.656Z</time>
</trkpt>
<trkpt lat="31.6806700" lon="35.4078500">
<ele>11.700000</ele>
<time>2023-03-16T18:33:48.656Z</time>
</trkpt>
<trkpt lat="31.6807200" lon="35.4075800">
<ele>15.270000</ele>
<time>2023-03-16T18:33:48.656Z</time>
</trkpt>
<trkpt lat="31.6807900" lon="35.4073300">
<ele>16.920000</ele>
<time>2023-03-16T18:33:48.656Z</time>
</trkpt>
<trkpt lat="31.6809700" lon="35.4067300">
<ele>7.160000</ele>
<time>2023-03-16T18:33:48.656Z</time>
</trkpt>
<trkpt lat="31.6809900" lon="35.4066300">
<ele>5.200000</ele>
<time>2023-03-16T18:33:48.656Z</time>
</trkpt>
<trkpt lat="31.6810000" lon="35.4063700">
<ele>0.550000</ele>
<time>2023-03-16T18:33:48.656Z</time>
</trkpt>
<trkpt lat="31.6809800" lon="35.4060800">
<ele>-0.280000</ele>
<time>2023-03-16T18:33:48.656Z</time>
</trkpt>
<trkpt lat="31.6810000" lon="35.4059500">
<ele>-1.360000</ele>
<time>2023-03-16T18:33:48.656Z</time>
</trkpt>
<trkpt lat="31.6811400" lon="35.4054200">
<ele>5.500000</ele>
<time>2023-03-16T18:33:48.656Z</time>
</trkpt>
<trkpt lat="31.6813500" lon="35.4049900">
<ele>18.510000</ele>
<time>2023-03-16T18:33:48.656Z</time>
</trkpt>
<trkpt lat="31.6815000" lon="35.4046500">
<ele>17.230000</ele>
<time>2023-03-16T18:33:48.656Z</time>
</trkpt>
<trkpt lat="31.6816000" lon="35.4045000">
<ele>17.340000</ele>
<time>2023-03-16T18:33:48.656Z</time>
</trkpt>
<trkpt lat="31.6819200" lon="35.4041800">
<ele>23.340000</ele>
<time>2023-03-16T18:33:48.656Z</time>
</trkpt>
<trkpt lat="31.6823100" lon="35.4039700">
<ele>27.639999</ele>
<time>2023-03-16T18:33:48.656Z</time>
</trkpt>
<trkpt lat="31.6823700" lon="35.4039300">
<ele>26.970001</ele>
<time>2023-03-16T18:33:48.656Z</time>
</trkpt>
<trkpt lat="31.6824500" lon="35.4038400">
<ele>26.189999</ele>
<time>2023-03-16T18:33:48.656Z</time>
</trkpt>
<trkpt lat="31.6825400" lon="35.4036600">
<ele>26.050001</ele>
<time>2023-03-16T18:33:48.656Z</time>
</trkpt>
<trkpt lat="31.6829800" lon="35.4030300">
<ele>24.030001</ele>
<time>2023-03-16T18:33:48.656Z</time>
</trkpt>
<trkpt lat="31.6831500" lon="35.4026100">
<ele>27.000000</ele>
<time>2023-03-16T18:33:48.656Z</time>
</trkpt>
<trkpt lat="31.6833100" lon="35.4023500">
<ele>27.900000</ele>
<time>2023-03-16T18:33:48.656Z</time>
</trkpt>
<trkpt lat="31.6834400" lon="35.4018800">
<ele>36.529999</ele>
<time>2023-03-16T18:33:48.656Z</time>
</trkpt>
<trkpt lat="31.6835500" lon="35.4015700">
<ele>40.200001</ele>
<time>2023-03-16T18:33:48.656Z</time>
</trkpt>
<trkpt lat="31.6835500" lon="35.4014200">
<ele>40.320000</ele>
<time>2023-03-16T18:33:48.656Z</time>
</trkpt>
<trkpt lat="31.6835500" lon="35.4013500">
<ele>40.039997</ele>
<time>2023-03-16T18:33:48.656Z</time>
</trkpt>
<trkpt lat="31.6837000" lon="35.4008700">
<ele>35.029999</ele>
<time>2023-03-16T18:33:48.656Z</time>
</trkpt>
<trkpt lat="31.6837100" lon="35.4004100">
<ele>31.610001</ele>
<time>2023-03-16T18:33:48.656Z</time>
</trkpt>
<trkpt lat="31.6837000" lon="35.4002300">
<ele>30.330000</ele>
<time>2023-03-16T18:33:48.656Z</time>
</trkpt>
<trkpt lat="31.6837400" lon="35.3999900">
<ele>28.380001</ele>
<time>2023-03-16T18:33:48.656Z</time>
</trkpt>
<trkpt lat="31.6837800" lon="35.3998600">
<ele>26.900000</ele>
<time>2023-03-16T18:33:48.656Z</time>
</trkpt>
<trkpt lat="31.6839700" lon="35.3993000">
<ele>22.529999</ele>
<time>2023-03-16T18:33:48.656Z</time>
</trkpt>
<trkpt lat="31.6841800" lon="35.3990800">
<ele>24.279999</ele>
<time>2023-03-16T18:33:48.656Z</time>
</trkpt>
<trkpt lat="31.6842100" lon="35.3990400">
<ele>24.309999</ele>
<time>2023-03-16T18:33:48.656Z</time>
</trkpt>
<trkpt lat="31.6842400" lon="35.3988900">
<ele>24.469999</ele>
<time>2023-03-16T18:33:48.656Z</time>
</trkpt>
<trkpt lat="31.6842400" lon="35.3987800">
<ele>24.350000</ele>
<time>2023-03-16T18:33:48.656Z</time>
</trkpt>
<trkpt lat="31.6842300" lon="35.3986400">
<ele>24.420000</ele>
<time>2023-03-16T18:33:48.656Z</time>
</trkpt>
<trkpt lat="31.6842400" lon="35.3985700">
<ele>24.270000</ele>
<time>2023-03-16T18:33:48.656Z</time>
</trkpt>
<trkpt lat="31.6842900" lon="35.3985000">
<ele>23.420000</ele>
<time>2023-03-16T18:33:48.656Z</time>
</trkpt>
<trkpt lat="31.6844200" lon="35.3983800">
<ele>21.890001</ele>
<time>2023-03-16T18:33:48.656Z</time>
</trkpt>
<trkpt lat="31.6844500" lon="35.3983300">
<ele>21.930000</ele>
<time>2023-03-16T18:33:48.656Z</time>
</trkpt>
<trkpt lat="31.6845400" lon="35.3980100">
<ele>21.999998</ele>
<time>2023-03-16T18:33:48.656Z</time>
</trkpt>
<trkpt lat="31.6846500" lon="35.3977800">
<ele>21.550001</ele>
<time>2023-03-16T18:33:48.656Z</time>
</trkpt>
<trkpt lat="31.6847100" lon="35.3974800">
<ele>20.100000</ele>
<time>2023-03-16T18:33:48.656Z</time>
</trkpt>
<trkpt lat="31.6847500" lon="35.3972700">
<ele>17.420000</ele>
<time>2023-03-16T18:33:48.656Z</time>
</trkpt>
<trkpt lat="31.6848000" lon="35.3971400">
<ele>16.770000</ele>
<time>2023-03-16T18:33:48.656Z</time>
</trkpt>
<trkpt lat="31.6848700" lon="35.3969700">
<ele>15.929999</ele>
<time>2023-03-16T18:33:48.656Z</time>
</trkpt>
<trkpt lat="31.6849800" lon="35.3968200">
<ele>13.870000</ele>
<time>2023-03-16T18:33:48.656Z</time>
</trkpt>
<trkpt lat="31.6851200" lon="35.3963900">
<ele>13.570000</ele>
<time>2023-03-16T18:33:48.656Z</time>
</trkpt>
<trkpt lat="31.6852000" lon="35.3961000">
<ele>12.599999</ele>
<time>2023-03-16T18:33:48.656Z</time>
</trkpt>
<trkpt lat="31.6852700" lon="35.3959800">
<ele>12.530001</ele>
<time>2023-03-16T18:33:48.656Z</time>
</trkpt>
<trkpt lat="31.6853600" lon="35.3958800">
<ele>13.080001</ele>
<time>2023-03-16T18:33:48.656Z</time>
</trkpt>
<trkpt lat="31.6859600" lon="35.3957800">
<ele>11.560000</ele>
<time>2023-03-16T18:33:48.656Z</time>
</trkpt>
<trkpt lat="31.6861700" lon="35.3955700">
<ele>8.170000</ele>
<time>2023-03-16T18:33:48.656Z</time>
</trkpt>
<trkpt lat="31.6865100" lon="35.3951400">
<ele>0.640000</ele>
<time>2023-03-16T18:33:48.656Z</time>
</trkpt>
<trkpt lat="31.6868200" lon="35.3947400">
<ele>-4.420000</ele>
<time>2023-03-16T18:33:48.656Z</time>
</trkpt>
<trkpt lat="31.6869000" lon="35.3945300">
<ele>-4.950000</ele>
<time>2023-03-16T18:33:48.656Z</time>
</trkpt>
<trkpt lat="31.6867900" lon="35.3942100">
<ele>-7.910000</ele>
<time>2023-03-16T18:33:48.656Z</time>
</trkpt>
<trkpt lat="31.6867600" lon="35.3941600">
<ele>-8.460000</ele>
<time>2023-03-16T18:33:48.656Z</time>
</trkpt>
<trkpt lat="31.6867300" lon="35.3940900">
<ele>-9.610000</ele>
<time>2023-03-16T18:33:48.656Z</time>
</trkpt>
<trkpt lat="31.6867200" lon="35.3940500">
<ele>-10.290000</ele>
<time>2023-03-16T18:33:48.656Z</time>
</trkpt>
<trkpt lat="31.6868100" lon="35.3939100">
<ele>-13.140000</ele>
<time>2023-03-16T18:33:48.656Z</time>
</trkpt>
<trkpt lat="31.6868700" lon="35.3937400">
<ele>-14.020000</ele>
<time>2023-03-16T18:33:48.656Z</time>
</trkpt>
<trkpt lat="31.6868600" lon="35.3934600">
<ele>-13.430000</ele>
<time>2023-03-16T18:33:48.656Z</time>
</trkpt>
<trkpt lat="31.6869200" lon="35.3931700">
<ele>-12.809999</ele>
<time>2023-03-16T18:33:48.656Z</time>
</trkpt>
<trkpt lat="31.6869300" lon="35.3930700">
<ele>-12.850000</ele>
<time>2023-03-16T18:33:48.656Z</time>
</trkpt>
<trkpt lat="31.6869000" lon="35.3926600">
<ele>-8.350000</ele>
<time>2023-03-16T18:33:48.656Z</time>
</trkpt>
<trkpt lat="31.6868900" lon="35.3925100">
<ele>-6.510000</ele>
<time>2023-03-16T18:33:48.656Z</time>
</trkpt>
<trkpt lat="31.6868600" lon="35.3923700">
<ele>-4.040000</ele>
<time>2023-03-16T18:33:48.656Z</time>
</trkpt>
<trkpt lat="31.6867200" lon="35.3920900">
<ele>-3.700000</ele>
<time>2023-03-16T18:33:48.656Z</time>
</trkpt>
<trkpt lat="31.6864800" lon="35.3918100">
<ele>-6.070000</ele>
<time>2023-03-16T18:33:48.656Z</time>
</trkpt>
<trkpt lat="31.6864000" lon="35.3916700">
<ele>-5.880000</ele>
<time>2023-03-16T18:33:48.656Z</time>
</trkpt>
<trkpt lat="31.6863500" lon="35.3915800">
<ele>-5.610000</ele>
<time>2023-03-16T18:33:48.656Z</time>
</trkpt>
<trkpt lat="31.6859500" lon="35.3909000">
<ele>-1.660000</ele>
<time>2023-03-16T18:33:48.656Z</time>
</trkpt>
<trkpt lat="31.6856700" lon="35.3900700">
<ele>3.190000</ele>
<time>2023-03-16T18:33:48.656Z</time>
</trkpt>
<trkpt lat="31.6855400" lon="35.3884700">
<ele>4.850000</ele>
<time>2023-03-16T18:33:48.656Z</time>
</trkpt>
<trkpt lat="31.6855500" lon="35.3880100">
<ele>3.830000</ele>
<time>2023-03-16T18:33:48.656Z</time>
</trkpt>
<trkpt lat="31.6857400" lon="35.3867600">
<ele>7.900000</ele>
<time>2023-03-16T18:33:48.656Z</time>
</trkpt>
<trkpt lat="31.6860500" lon="35.3854400">
<ele>12.620000</ele>
<time>2023-03-16T18:33:48.656Z</time>
</trkpt>
<trkpt lat="31.6862400" lon="35.3849500">
<ele>13.520000</ele>
<time>2023-03-16T18:33:48.656Z</time>
</trkpt>
<trkpt lat="31.6864800" lon="35.3845200">
<ele>16.559999</ele>
<time>2023-03-16T18:33:48.656Z</time>
</trkpt>
<trkpt lat="31.6867600" lon="35.3841900">
<ele>12.540000</ele>
<time>2023-03-16T18:33:48.656Z</time>
</trkpt>
<trkpt lat="31.6874500" lon="35.3836000">
<ele>16.539999</ele>
<time>2023-03-16T18:33:48.656Z</time>
</trkpt>
<trkpt lat="31.6875300" lon="35.3834100">
<ele>14.630000</ele>
<time>2023-03-16T18:33:48.656Z</time>
</trkpt>
<trkpt lat="31.6875300" lon="35.3830600">
<ele>12.790000</ele>
<time>2023-03-16T18:33:48.656Z</time>
</trkpt>
<trkpt lat="31.6877300" lon="35.3825400">
<ele>11.209999</ele>
<time>2023-03-16T18:33:48.656Z</time>
</trkpt>
<trkpt lat="31.6879900" lon="35.3814000">
<ele>16.110001</ele>
<time>2023-03-16T18:33:48.656Z</time>
</trkpt>
<trkpt lat="31.6879600" lon="35.3805000">
<ele>17.139999</ele>
<time>2023-03-16T18:33:48.656Z</time>
</trkpt>
<trkpt lat="31.6879100" lon="35.3802100">
<ele>16.400000</ele>
<time>2023-03-16T18:33:48.656Z</time>
</trkpt>
<trkpt lat="31.6877800" lon="35.3799100">
<ele>16.320000</ele>
<time>2023-03-16T18:33:48.656Z</time>
</trkpt>
<trkpt lat="31.6870300" lon="35.3786100">
<ele>24.370001</ele>
<time>2023-03-16T18:33:48.656Z</time>
</trkpt>
<trkpt lat="31.6869400" lon="35.3783300">
<ele>23.070002</ele>
<time>2023-03-16T18:33:48.656Z</time>
</trkpt>
<trkpt lat="31.6869000" lon="35.3782100">
<ele>23.430000</ele>
<time>2023-03-16T18:33:48.656Z</time>
</trkpt>
<trkpt lat="31.6869100" lon="35.3781400">
<ele>23.010000</ele>
<time>2023-03-16T18:33:48.656Z</time>
</trkpt>
<trkpt lat="31.6869100" lon="35.3781400">
<ele>23.010000</ele>
<time>2023-03-16T18:33:48.656Z</time>
</trkpt>
<trkpt lat="31.6869100" lon="35.3781400">
<ele>23.010000</ele>
<time>2023-03-16T18:33:48.656Z</time>
</trkpt>
<trkpt lat="31.6869600" lon="35.3778500">
<ele>23.519999</ele>
<time>2023-03-16T18:33:48.656Z</time>
</trkpt>
<trkpt lat="31.6871200" lon="35.3777600">
<ele>25.000000</ele>
<time>2023-03-16T18:33:48.656Z</time>
</trkpt>
<trkpt lat="31.6874200" lon="35.3776000">
<ele>29.879999</ele>
<time>2023-03-16T18:33:48.656Z</time>
</trkpt>
<trkpt lat="31.6880100" lon="35.3773500">
<ele>32.220001</ele>
<time>2023-03-16T18:33:48.656Z</time>
</trkpt>
<trkpt lat="31.6882800" lon="35.3771500">
<ele>33.150002</ele>
<time>2023-03-16T18:33:48.656Z</time>
</trkpt>
<trkpt lat="31.6886600" lon="35.3768700">
<ele>32.049999</ele>
<time>2023-03-16T18:33:48.656Z</time>
</trkpt>
<trkpt lat="31.6888800" lon="35.3765600">
<ele>31.460001</ele>
<time>2023-03-16T18:33:48.656Z</time>
</trkpt>
<trkpt lat="31.6889700" lon="35.3764900">
<ele>29.769999</ele>
<time>2023-03-16T18:33:48.656Z</time>
</trkpt>
<trkpt lat="31.6890900" lon="35.3764200">
<ele>27.920000</ele>
<time>2023-03-16T18:33:48.656Z</time>
</trkpt>
<trkpt lat="31.6892100" lon="35.3762700">
<ele>28.129999</ele>
<time>2023-03-16T18:33:48.656Z</time>
</trkpt>
<trkpt lat="31.6895200" lon="35.3759400">
<ele>29.140001</ele>
<time>2023-03-16T18:33:48.656Z</time>
</trkpt>
<trkpt lat="31.6898500" lon="35.3754800">
<ele>28.809999</ele>
<time>2023-03-16T18:33:48.656Z</time>
</trkpt>
<trkpt lat="31.6899600" lon="35.3753600">
<ele>28.850000</ele>
<time>2023-03-16T18:33:48.656Z</time>
</trkpt>
<trkpt lat="31.6900800" lon="35.3752700">
<ele>28.969999</ele>
<time>2023-03-16T18:33:48.656Z</time>
</trkpt>
<trkpt lat="31.6901500" lon="35.3751600">
<ele>28.580000</ele>
<time>2023-03-16T18:33:48.656Z</time>
</trkpt>
<trkpt lat="31.6902300" lon="35.3750200">
<ele>28.070000</ele>
<time>2023-03-16T18:33:48.656Z</time>
</trkpt>
<trkpt lat="31.6904300" lon="35.3746200">
<ele>29.659998</ele>
<time>2023-03-16T18:33:48.656Z</time>
</trkpt>
<trkpt lat="31.6905200" lon="35.3745400">
<ele>30.750000</ele>
<time>2023-03-16T18:33:48.656Z</time>
</trkpt>
<trkpt lat="31.6905900" lon="35.3744500">
<ele>31.389999</ele>
<time>2023-03-16T18:33:48.656Z</time>
</trkpt>
<trkpt lat="31.6905900" lon="35.3744500">
<ele>31.389999</ele>
<time>2023-03-16T18:33:48.656Z</time>
</trkpt>
<trkpt lat="31.6906200" lon="35.3744200">
<ele>31.779999</ele>
<time>2023-03-16T18:33:48.656Z</time>
</trkpt>
<trkpt lat="31.6906100" lon="35.3743600">
<ele>31.889999</ele>
<time>2023-03-16T18:33:48.656Z</time>
</trkpt>
<trkpt lat="31.6905800" lon="35.3743100">
<ele>31.750000</ele>
<time>2023-03-16T18:33:48.656Z</time>
</trkpt>
<trkpt lat="31.6905000" lon="35.3742500">
<ele>30.700001</ele>
<time>2023-03-16T18:33:48.656Z</time>
</trkpt>
<trkpt lat="31.6901800" lon="35.3741400">
<ele>27.320000</ele>
<time>2023-03-16T18:33:48.656Z</time>
</trkpt>
<trkpt lat="31.6900300" lon="35.3741000">
<ele>28.080000</ele>
<time>2023-03-16T18:33:48.656Z</time>
</trkpt>
<trkpt lat="31.6898900" lon="35.3740300">
<ele>29.080000</ele>
<time>2023-03-16T18:33:48.656Z</time>
</trkpt>
<trkpt lat="31.6896600" lon="35.3739500">
<ele>30.910000</ele>
<time>2023-03-16T18:33:48.656Z</time>
</trkpt>
<trkpt lat="31.6893300" lon="35.3738200">
<ele>31.830000</ele>
<time>2023-03-16T18:33:48.656Z</time>
</trkpt>
<trkpt lat="31.6892600" lon="35.3738000">
<ele>30.750000</ele>
<time>2023-03-16T18:33:48.656Z</time>
</trkpt>
<trkpt lat="31.6891200" lon="35.3737600">
<ele>28.760000</ele>
<time>2023-03-16T18:33:48.656Z</time>
</trkpt>
<trkpt lat="31.6885400" lon="35.3735500">
<ele>26.949999</ele>
<time>2023-03-16T18:33:48.656Z</time>
</trkpt>
<trkpt lat="31.6879500" lon="35.3733000">
<ele>33.869999</ele>
<time>2023-03-16T18:33:48.656Z</time>
</trkpt>
<trkpt lat="31.6875700" lon="35.3731900">
<ele>35.369999</ele>
<time>2023-03-16T18:33:48.656Z</time>
</trkpt>
<trkpt lat="31.6868100" lon="35.3728800">
<ele>37.590000</ele>
<time>2023-03-16T18:33:48.656Z</time>
</trkpt>
<trkpt lat="31.6866100" lon="35.3727600">
<ele>35.410000</ele>
<time>2023-03-16T18:33:48.656Z</time>
</trkpt>
<trkpt lat="31.6863500" lon="35.3725500">
<ele>35.410000</ele>
<time>2023-03-16T18:33:48.656Z</time>
</trkpt>
<trkpt lat="31.6859500" lon="35.3722500">
<ele>40.590000</ele>
<time>2023-03-16T18:33:48.656Z</time>
</trkpt>
<trkpt lat="31.6858200" lon="35.3721900">
<ele>42.239998</ele>
<time>2023-03-16T18:33:48.656Z</time>
</trkpt>
<trkpt lat="31.6857200" lon="35.3721400">
<ele>43.160000</ele>
<time>2023-03-16T18:33:48.656Z</time>
</trkpt>
<trkpt lat="31.6857200" lon="35.3721400">
<ele>43.160000</ele>
<time>2023-03-16T18:33:48.656Z</time>
</trkpt>
<trkpt lat="31.6857200" lon="35.3721400">
<ele>43.160000</ele>
<time>2023-03-16T18:33:48.656Z</time>
</trkpt>
<trkpt lat="31.6856400" lon="35.3721000">
<ele>43.609997</ele>
<time>2023-03-16T18:33:48.656Z</time>
</trkpt>
<trkpt lat="31.6850000" lon="35.3716300">
<ele>46.400002</ele>
<time>2023-03-16T18:33:48.656Z</time>
</trkpt>
<trkpt lat="31.6848600" lon="35.3715600">
<ele>48.039997</ele>
<time>2023-03-16T18:33:48.656Z</time>
</trkpt>
<trkpt lat="31.6848600" lon="35.3715600">
<ele>48.039997</ele>
<time>2023-03-16T18:33:48.656Z</time>
</trkpt>
<trkpt lat="31.6847200" lon="35.3714900">
<ele>50.200001</ele>
<time>2023-03-16T18:33:48.656Z</time>
</trkpt>
<trkpt lat="31.6841600" lon="35.3711200">
<ele>52.579998</ele>
<time>2023-03-16T18:33:48.656Z</time>
</trkpt>
<trkpt lat="31.6838000" lon="35.3708100">
<ele>55.949997</ele>
<time>2023-03-16T18:33:48.656Z</time>
</trkpt>
<trkpt lat="31.6835800" lon="35.3705700">
<ele>64.840004</ele>
<time>2023-03-16T18:33:48.656Z</time>
</trkpt>
<trkpt lat="31.6832000" lon="35.3702800">
<ele>63.520000</ele>
<time>2023-03-16T18:33:48.656Z</time>
</trkpt>
<trkpt lat="31.6829800" lon="35.3701600">
<ele>61.250000</ele>
<time>2023-03-16T18:33:48.656Z</time>
</trkpt>
<trkpt lat="31.6829400" lon="35.3701400">
<ele>60.299999</ele>
<time>2023-03-16T18:33:48.656Z</time>
</trkpt>
<trkpt lat="31.6825500" lon="35.3699900">
<ele>54.470001</ele>
<time>2023-03-16T18:33:48.656Z</time>
</trkpt>
<trkpt lat="31.6823600" lon="35.3699000">
<ele>57.559998</ele>
<time>2023-03-16T18:33:48.656Z</time>
</trkpt>
<trkpt lat="31.6808900" lon="35.3688800">
<ele>69.639999</ele>
<time>2023-03-16T18:33:48.656Z</time>
</trkpt>
<trkpt lat="31.6808900" lon="35.3688800">
<ele>69.639999</ele>
<time>2023-03-16T18:33:48.656Z</time>
</trkpt>
<trkpt lat="31.6808900" lon="35.3688800">
<ele>69.639999</ele>
<time>2023-03-16T18:33:48.656Z</time>
</trkpt>
<trkpt lat="31.6803400" lon="35.3685000">
<ele>66.839996</ele>
<time>2023-03-16T18:33:48.656Z</time>
</trkpt>
<trkpt lat="31.6800400" lon="35.3683500">
<ele>67.540001</ele>
<time>2023-03-16T18:33:48.656Z</time>
</trkpt>
<trkpt lat="31.6794800" lon="35.3680100">
<ele>73.849998</ele>
<time>2023-03-16T18:33:48.656Z</time>
</trkpt>
<trkpt lat="31.6787700" lon="35.3675000">
<ele>75.860001</ele>
<time>2023-03-16T18:33:48.656Z</time>
</trkpt>
<trkpt lat="31.6784500" lon="35.3672800">
<ele>67.959999</ele>
<time>2023-03-16T18:33:48.656Z</time>
</trkpt>
<trkpt lat="31.6780100" lon="35.3670300">
<ele>69.010002</ele>
<time>2023-03-16T18:33:48.656Z</time>
</trkpt>
<trkpt lat="31.6776300" lon="35.3668500">
<ele>73.750000</ele>
<time>2023-03-16T18:33:48.656Z</time>
</trkpt>
<trkpt lat="31.6774400" lon="35.3667800">
<ele>72.900002</ele>
<time>2023-03-16T18:33:48.656Z</time>
</trkpt>
<trkpt lat="31.6770400" lon="35.3665800">
<ele>74.519997</ele>
<time>2023-03-16T18:33:48.656Z</time>
</trkpt>
<trkpt lat="31.6755600" lon="35.3659500">
<ele>85.959999</ele>
<time>2023-03-16T18:33:48.656Z</time>
</trkpt>
<trkpt lat="31.6754300" lon="35.3661400">
<ele>84.199997</ele>
<time>2023-03-16T18:33:48.656Z</time>
</trkpt>
<trkpt lat="31.6752600" lon="35.3664300">
<ele>81.020004</ele>
<time>2023-03-16T18:33:48.656Z</time>
</trkpt>
<trkpt lat="31.6750500" lon="35.3669000">
<ele>80.989998</ele>
<time>2023-03-16T18:33:48.656Z</time>
</trkpt>
<trkpt lat="31.6748700" lon="35.3671700">
<ele>79.250000</ele>
<time>2023-03-16T18:33:48.656Z</time>
</trkpt>
<trkpt lat="31.6748400" lon="35.3673300">
<ele>77.010002</ele>
<time>2023-03-16T18:33:48.656Z</time>
</trkpt>
<trkpt lat="31.6748400" lon="35.3675600">
<ele>74.059998</ele>
<time>2023-03-16T18:33:48.656Z</time>
</trkpt>
<trkpt lat="31.6747900" lon="35.3677200">
<ele>73.430000</ele>
<time>2023-03-16T18:33:48.656Z</time>
</trkpt>
<trkpt lat="31.6747900" lon="35.3677800">
<ele>73.459999</ele>
<time>2023-03-16T18:33:48.656Z</time>
</trkpt>
<trkpt lat="31.6748000" lon="35.3678200">
<ele>73.120003</ele>
<time>2023-03-16T18:33:48.656Z</time>
</trkpt>
<trkpt lat="31.6748400" lon="35.3678700">
<ele>73.080002</ele>
<time>2023-03-16T18:33:48.656Z</time>
</trkpt>
<trkpt lat="31.6749600" lon="35.3679500">
<ele>74.349998</ele>
<time>2023-03-16T18:33:48.656Z</time>
</trkpt>
<trkpt lat="31.6750400" lon="35.3680200">
<ele>75.449997</ele>
<time>2023-03-16T18:33:48.656Z</time>
</trkpt>
<trkpt lat="31.6751300" lon="35.3681600">
<ele>75.650002</ele>
<time>2023-03-16T18:33:48.656Z</time>
</trkpt>
<trkpt lat="31.6751900" lon="35.3683000">
<ele>75.290001</ele>
<time>2023-03-16T18:33:48.656Z</time>
</trkpt>
<trkpt lat="31.6752700" lon="35.3683600">
<ele>75.349998</ele>
<time>2023-03-16T18:33:48.656Z</time>
</trkpt>
<trkpt lat="31.6753100" lon="35.3683700">
<ele>75.110001</ele>
<time>2023-03-16T18:33:48.656Z</time>
</trkpt>
<trkpt lat="31.6756000" lon="35.3683300">
<ele>74.070000</ele>
<time>2023-03-16T18:33:48.656Z</time>
</trkpt>
<trkpt lat="31.6756600" lon="35.3683500">
<ele>72.489998</ele>
<time>2023-03-16T18:33:48.656Z</time>
</trkpt>
<trkpt lat="31.6757100" lon="35.3683900">
<ele>70.870003</ele>
<time>2023-03-16T18:33:48.656Z</time>
</trkpt>
<trkpt lat="31.6758900" lon="35.3687000">
<ele>65.270004</ele>
<time>2023-03-16T18:33:48.656Z</time>
</trkpt>
<trkpt lat="31.6759200" lon="35.3688600">
<ele>64.479996</ele>
<time>2023-03-16T18:33:48.656Z</time>
</trkpt>
<trkpt lat="31.6759200" lon="35.3689700">
<ele>64.080002</ele>
<time>2023-03-16T18:33:48.656Z</time>
</trkpt>
<trkpt lat="31.6759000" lon="35.3690600">
<ele>63.900002</ele>
<time>2023-03-16T18:33:48.656Z</time>
</trkpt>
<trkpt lat="31.6758300" lon="35.3691700">
<ele>64.070000</ele>
<time>2023-03-16T18:33:48.656Z</time>
</trkpt>
<trkpt lat="31.6757700" lon="35.3692300">
<ele>65.320000</ele>
<time>2023-03-16T18:33:48.656Z</time>
</trkpt>
<trkpt lat="31.6756900" lon="35.3692900">
<ele>66.720001</ele>
<time>2023-03-16T18:33:48.656Z</time>
</trkpt>
<trkpt lat="31.6755400" lon="35.3693400">
<ele>68.860001</ele>
<time>2023-03-16T18:33:48.656Z</time>
</trkpt>
<trkpt lat="31.6753300" lon="35.3693900">
<ele>72.550003</ele>
<time>2023-03-16T18:33:48.656Z</time>
</trkpt>
<trkpt lat="31.6751700" lon="35.3694500">
<ele>72.459999</ele>
<time>2023-03-16T18:33:48.656Z</time>
</trkpt>
<trkpt lat="31.6750500" lon="35.3695600">
<ele>72.540001</ele>
<time>2023-03-16T18:33:48.656Z</time>
</trkpt>
<trkpt lat="31.6748700" lon="35.3695500">
<ele>72.500000</ele>
<time>2023-03-16T18:33:48.656Z</time>
</trkpt>
<trkpt lat="31.6746600" lon="35.3696100">
<ele>73.549995</ele>
<time>2023-03-16T18:33:48.656Z</time>
</trkpt>
<trkpt lat="31.6744800" lon="35.3696400">
<ele>74.889999</ele>
<time>2023-03-16T18:33:48.656Z</time>
</trkpt>
<trkpt lat="31.6743600" lon="35.3696400">
<ele>74.260002</ele>
<time>2023-03-16T18:33:48.656Z</time>
</trkpt>
<trkpt lat="31.6742300" lon="35.3696300">
<ele>72.940002</ele>
<time>2023-03-16T18:33:48.656Z</time>
</trkpt>
<trkpt lat="31.6741000" lon="35.3695900">
<ele>72.459999</ele>
<time>2023-03-16T18:33:48.656Z</time>
</trkpt>
<trkpt lat="31.6737500" lon="35.3694500">
<ele>75.440002</ele>
<time>2023-03-16T18:33:48.656Z</time>
</trkpt>
<trkpt lat="31.6735300" lon="35.3693200">
<ele>79.670006</ele>
<time>2023-03-16T18:33:48.656Z</time>
</trkpt>
<trkpt lat="31.6731200" lon="35.3689200">
<ele>86.540001</ele>
<time>2023-03-16T18:33:48.656Z</time>
</trkpt>
<trkpt lat="31.6727400" lon="35.3685800">
<ele>86.900002</ele>
<time>2023-03-16T18:33:48.656Z</time>
</trkpt>
<trkpt lat="31.6725800" lon="35.3683800">
<ele>86.759995</ele>
<time>2023-03-16T18:33:48.656Z</time>
</trkpt>
<trkpt lat="31.6724100" lon="35.3682400">
<ele>88.540001</ele>
<time>2023-03-16T18:33:48.656Z</time>
</trkpt>
<trkpt lat="31.6720800" lon="35.3680000">
<ele>92.300003</ele>
<time>2023-03-16T18:33:48.656Z</time>
</trkpt>
<trkpt lat="31.6720000" lon="35.3679700">
<ele>92.450005</ele>
<time>2023-03-16T18:33:48.656Z</time>
</trkpt>
<trkpt lat="31.6717900" lon="35.3679100">
<ele>93.070000</ele>
<time>2023-03-16T18:33:48.656Z</time>
</trkpt>
<trkpt lat="31.6716800" lon="35.3678700">
<ele>93.660004</ele>
<time>2023-03-16T18:33:48.656Z</time>
</trkpt>
<trkpt lat="31.6716200" lon="35.3678200">
<ele>94.130005</ele>
<time>2023-03-16T18:33:48.656Z</time>
</trkpt>
<trkpt lat="31.6714700" lon="35.3676300">
<ele>92.209999</ele>
<time>2023-03-16T18:33:48.656Z</time>
</trkpt>
<trkpt lat="31.6712700" lon="35.3672900">
<ele>90.669998</ele>
<time>2023-03-16T18:33:48.656Z</time>
</trkpt>
<trkpt lat="31.6711600" lon="35.3671800">
<ele>90.729996</ele>
<time>2023-03-16T18:33:48.656Z</time>
</trkpt>
<trkpt lat="31.6710700" lon="35.3671600">
<ele>91.110001</ele>
<time>2023-03-16T18:33:48.656Z</time>
</trkpt>
<trkpt lat="31.6707100" lon="35.3673000">
<ele>93.479996</ele>
<time>2023-03-16T18:33:48.656Z</time>
</trkpt>
<trkpt lat="31.6705600" lon="35.3672800">
<ele>93.779999</ele>
<time>2023-03-16T18:33:48.656Z</time>
</trkpt>
<trkpt lat="31.6699300" lon="35.3670200">
<ele>102.820000</ele>
<time>2023-03-16T18:33:48.656Z</time>
</trkpt>
<trkpt lat="31.6692200" lon="35.3667600">
<ele>107.370003</ele>
<time>2023-03-16T18:33:48.656Z</time>
</trkpt>
<trkpt lat="31.6688200" lon="35.3665900">
<ele>107.809998</ele>
<time>2023-03-16T18:33:48.656Z</time>
</trkpt>
<trkpt lat="31.6685400" lon="35.3665000">
<ele>108.519997</ele>
<time>2023-03-16T18:33:48.656Z</time>
</trkpt>
<trkpt lat="31.6683700" lon="35.3664000">
<ele>107.090004</ele>
<time>2023-03-16T18:33:48.656Z</time>
</trkpt>
<trkpt lat="31.6683300" lon="35.3663600">
<ele>106.630005</ele>
<time>2023-03-16T18:33:48.656Z</time>
</trkpt>
<trkpt lat="31.6681300" lon="35.3662900">
<ele>108.239998</ele>
<time>2023-03-16T18:33:48.656Z</time>
</trkpt>
<trkpt lat="31.6674300" lon="35.3662500">
<ele>113.129997</ele>
<time>2023-03-16T18:33:48.656Z</time>
</trkpt>
<trkpt lat="31.6670500" lon="35.3661900">
<ele>115.519997</ele>
<time>2023-03-16T18:33:48.656Z</time>
</trkpt>
<trkpt lat="31.6667800" lon="35.3661700">
<ele>116.070007</ele>
<time>2023-03-16T18:33:48.656Z</time>
</trkpt>
<trkpt lat="31.6664600" lon="35.3661100">
<ele>116.990005</ele>
<time>2023-03-16T18:33:48.656Z</time>
</trkpt>
<trkpt lat="31.6660800" lon="35.3659900">
<ele>114.029999</ele>
<time>2023-03-16T18:33:48.656Z</time>
</trkpt>
<trkpt lat="31.6658400" lon="35.3660100">
<ele>113.559998</ele>
<time>2023-03-16T18:33:48.656Z</time>
</trkpt>
<trkpt lat="31.6657000" lon="35.3660100">
<ele>111.840004</ele>
<time>2023-03-16T18:33:48.656Z</time>
</trkpt>
<trkpt lat="31.6653600" lon="35.3659400">
<ele>110.699997</ele>
<time>2023-03-16T18:33:48.656Z</time>
</trkpt>
<trkpt lat="31.6649500" lon="35.3657800">
<ele>114.709999</ele>
<time>2023-03-16T18:33:48.656Z</time>
</trkpt>
<trkpt lat="31.6646500" lon="35.3656400">
<ele>124.429993</ele>
<time>2023-03-16T18:33:48.656Z</time>
</trkpt>
<trkpt lat="31.6643800" lon="35.3655200">
<ele>121.489998</ele>
<time>2023-03-16T18:33:48.656Z</time>
</trkpt>
<trkpt lat="31.6635700" lon="35.3651100">
<ele>123.150002</ele>
<time>2023-03-16T18:33:48.656Z</time>
</trkpt>
<trkpt lat="31.6633700" lon="35.3650400">
<ele>124.150002</ele>
<time>2023-03-16T18:33:48.656Z</time>
</trkpt>
<trkpt lat="31.6631900" lon="35.3649900">
<ele>125.919998</ele>
<time>2023-03-16T18:33:48.656Z</time>
</trkpt>
<trkpt lat="31.6630100" lon="35.3649900">
<ele>128.020004</ele>
<time>2023-03-16T18:33:48.656Z</time>
</trkpt>
<trkpt lat="31.6629100" lon="35.3650000">
<ele>128.520004</ele>
<time>2023-03-16T18:33:48.656Z</time>
</trkpt>
<trkpt lat="31.6626300" lon="35.3651100">
<ele>129.919998</ele>
<time>2023-03-16T18:33:48.656Z</time>
</trkpt>
<trkpt lat="31.6624100" lon="35.3651600">
<ele>128.160004</ele>
<time>2023-03-16T18:33:48.656Z</time>
</trkpt>
<trkpt lat="31.6621000" lon="35.3652700">
<ele>125.840004</ele>
<time>2023-03-16T18:33:48.656Z</time>
</trkpt>
<trkpt lat="31.6619500" lon="35.3653500">
<ele>127.759995</ele>
<time>2023-03-16T18:33:48.656Z</time>
</trkpt>
<trkpt lat="31.6618300" lon="35.3654500">
<ele>128.449997</ele>
<time>2023-03-16T18:33:48.656Z</time>
</trkpt>
<trkpt lat="31.6617600" lon="35.3655000">
<ele>128.740005</ele>
<time>2023-03-16T18:33:48.656Z</time>
</trkpt>
<trkpt lat="31.6615500" lon="35.3656400">
<ele>129.199997</ele>
<time>2023-03-16T18:33:48.656Z</time>
</trkpt>
<trkpt lat="31.6612500" lon="35.3657400">
<ele>130.500000</ele>
<time>2023-03-16T18:33:48.656Z</time>
</trkpt>
<trkpt lat="31.6609100" lon="35.3659000">
<ele>132.690002</ele>
<time>2023-03-16T18:33:48.656Z</time>
</trkpt>
<trkpt lat="31.6607700" lon="35.3659500">
<ele>133.679993</ele>
<time>2023-03-16T18:33:48.656Z</time>
</trkpt>
<trkpt lat="31.6607100" lon="35.3659900">
<ele>133.949997</ele>
<time>2023-03-16T18:33:48.656Z</time>
</trkpt>
<trkpt lat="31.6606900" lon="35.3660300">
<ele>134.009995</ele>
<time>2023-03-16T18:33:48.656Z</time>
</trkpt>
<trkpt lat="31.6605900" lon="35.3662400">
<ele>135.389999</ele>
<time>2023-03-16T18:33:48.656Z</time>
</trkpt>
<trkpt lat="31.6605000" lon="35.3663900">
<ele>136.210007</ele>
<time>2023-03-16T18:33:48.656Z</time>
</trkpt>
<trkpt lat="31.6602000" lon="35.3667100">
<ele>137.240005</ele>
<time>2023-03-16T18:33:48.656Z</time>
</trkpt>
<trkpt lat="31.6601300" lon="35.3668400">
<ele>139.899994</ele>
<time>2023-03-16T18:33:48.656Z</time>
</trkpt>
<trkpt lat="31.6600600" lon="35.3670200">
<ele>142.639999</ele>
<time>2023-03-16T18:33:48.656Z</time>
</trkpt>
<trkpt lat="31.6599900" lon="35.3671000">
<ele>143.110001</ele>
<time>2023-03-16T18:33:48.656Z</time>
</trkpt>
<trkpt lat="31.6599300" lon="35.3671300">
<ele>142.750000</ele>
<time>2023-03-16T18:33:48.656Z</time>
</trkpt>
<trkpt lat="31.6598200" lon="35.3671500">
<ele>141.540009</ele>
<time>2023-03-16T18:33:48.656Z</time>
</trkpt>
<trkpt lat="31.6597200" lon="35.3671300">
<ele>140.000000</ele>
<time>2023-03-16T18:33:48.656Z</time>
</trkpt>
<trkpt lat="31.6594700" lon="35.3672500">
<ele>141.210007</ele>
<time>2023-03-16T18:33:48.656Z</time>
</trkpt>
<trkpt lat="31.6594400" lon="35.3672600">
<ele>141.360001</ele>
<time>2023-03-16T18:33:48.656Z</time>
</trkpt>
<trkpt lat="31.6593500" lon="35.3672000">
<ele>142.849991</ele>
<time>2023-03-16T18:33:48.656Z</time>
</trkpt>
<trkpt lat="31.6592500" lon="35.3671900">
<ele>145.010010</ele>
<time>2023-03-16T18:33:48.656Z</time>
</trkpt>
<trkpt lat="31.6589700" lon="35.3670700">
<ele>153.919998</ele>
<time>2023-03-16T18:33:48.656Z</time>
</trkpt>
<trkpt lat="31.6588100" lon="35.3670500">
<ele>158.700012</ele>
<time>2023-03-16T18:33:48.656Z</time>
</trkpt>
<trkpt lat="31.6587200" lon="35.3670100">
<ele>160.650009</ele>
<time>2023-03-16T18:33:48.656Z</time>
</trkpt>
<trkpt lat="31.6585000" lon="35.3668400">
<ele>163.600006</ele>
<time>2023-03-16T18:33:48.656Z</time>
</trkpt>
<trkpt lat="31.6583800" lon="35.3667200">
<ele>162.810013</ele>
<time>2023-03-16T18:33:48.656Z</time>
</trkpt>
<trkpt lat="31.6580400" lon="35.3664800">
<ele>160.919998</ele>
<time>2023-03-16T18:33:48.656Z</time>
</trkpt>
<trkpt lat="31.6579100" lon="35.3663500">
<ele>162.340012</ele>
<time>2023-03-16T18:33:48.656Z</time>
</trkpt>
<trkpt lat="31.6576100" lon="35.3661800">
<ele>164.399994</ele>
<time>2023-03-16T18:33:48.656Z</time>
</trkpt>
<trkpt lat="31.6574600" lon="35.3660900">
<ele>164.269989</ele>
<time>2023-03-16T18:33:48.656Z</time>
</trkpt>
<trkpt lat="31.6572000" lon="35.3658200">
<ele>164.739990</ele>
<time>2023-03-16T18:33:48.656Z</time>
</trkpt>
<trkpt lat="31.6570500" lon="35.3656000">
<ele>164.919998</ele>
<time>2023-03-16T18:33:48.656Z</time>
</trkpt>
<trkpt lat="31.6569800" lon="35.3655400">
<ele>165.189987</ele>
<time>2023-03-16T18:33:48.656Z</time>
</trkpt>
<trkpt lat="31.6568100" lon="35.3654200">
<ele>163.320007</ele>
<time>2023-03-16T18:33:48.656Z</time>
</trkpt>
<trkpt lat="31.6565500" lon="35.3653000">
<ele>159.320007</ele>
<time>2023-03-16T18:33:48.656Z</time>
</trkpt>
<trkpt lat="31.6563700" lon="35.3652900">
<ele>156.660004</ele>
<time>2023-03-16T18:33:48.656Z</time>
</trkpt>
<trkpt lat="31.6562900" lon="35.3653200">
<ele>155.220001</ele>
<time>2023-03-16T18:33:48.656Z</time>
</trkpt>
<trkpt lat="31.6559800" lon="35.3654800">
<ele>151.399994</ele>
<time>2023-03-16T18:33:48.656Z</time>
</trkpt>
<trkpt lat="31.6558300" lon="35.3655100">
<ele>150.809998</ele>
<time>2023-03-16T18:33:48.656Z</time>
</trkpt>
<trkpt lat="31.6556700" lon="35.3655000">
<ele>149.619995</ele>
<time>2023-03-16T18:33:48.656Z</time>
</trkpt>
<trkpt lat="31.6555100" lon="35.3654500">
<ele>148.419998</ele>
<time>2023-03-16T18:33:48.656Z</time>
</trkpt>
<trkpt lat="31.6551200" lon="35.3653000">
<ele>148.489990</ele>
<time>2023-03-16T18:33:48.656Z</time>
</trkpt>
<trkpt lat="31.6547400" lon="35.3652700">
<ele>147.160004</ele>
<time>2023-03-16T18:33:48.656Z</time>
</trkpt>
<trkpt lat="31.6546000" lon="35.3652300">
<ele>147.979996</ele>
<time>2023-03-16T18:33:48.656Z</time>
</trkpt>
<trkpt lat="31.6544700" lon="35.3651700">
<ele>148.850006</ele>
<time>2023-03-16T18:33:48.656Z</time>
</trkpt>
<trkpt lat="31.6542800" lon="35.3650600">
<ele>151.619995</ele>
<time>2023-03-16T18:33:48.656Z</time>
</trkpt>
<trkpt lat="31.6542300" lon="35.3649900">
<ele>152.080002</ele>
<time>2023-03-16T18:33:48.656Z</time>
</trkpt>
<trkpt lat="31.6539900" lon="35.3649100">
<ele>154.809998</ele>
<time>2023-03-16T18:33:48.656Z</time>
</trkpt>
<trkpt lat="31.6538500" lon="35.3648100">
<ele>155.279999</ele>
<time>2023-03-16T18:33:48.656Z</time>
</trkpt>
<trkpt lat="31.6536800" lon="35.3645900">
<ele>152.800003</ele>
<time>2023-03-16T18:33:48.656Z</time>
</trkpt>
<trkpt lat="31.6536200" lon="35.3644900">
<ele>150.300003</ele>
<time>2023-03-16T18:33:48.656Z</time>
</trkpt>
<trkpt lat="31.6534900" lon="35.3643700">
<ele>147.779999</ele>
<time>2023-03-16T18:33:48.656Z</time>
</trkpt>
<trkpt lat="31.6534400" lon="35.3643500">
<ele>147.580002</ele>
<time>2023-03-16T18:33:48.656Z</time>
</trkpt>
<trkpt lat="31.6530700" lon="35.3643400">
<ele>146.230011</ele>
<time>2023-03-16T18:33:48.656Z</time>
</trkpt>
<trkpt lat="31.6530300" lon="35.3643400">
<ele>145.110001</ele>
<time>2023-03-16T18:33:48.656Z</time>
</trkpt>
<trkpt lat="31.6528000" lon="35.3644500">
<ele>137.979996</ele>
<time>2023-03-16T18:33:48.656Z</time>
</trkpt>
<trkpt lat="31.6526600" lon="35.3644600">
<ele>133.089996</ele>
<time>2023-03-16T18:33:48.656Z</time>
</trkpt>
<trkpt lat="31.6525000" lon="35.3644500">
<ele>127.139999</ele>
<time>2023-03-16T18:33:48.656Z</time>
</trkpt>
<trkpt lat="31.6522900" lon="35.3646100">
<ele>133.000000</ele>
<time>2023-03-16T18:33:48.656Z</time>
</trkpt>
<trkpt lat="31.6522200" lon="35.3646300">
<ele>133.660004</ele>
<time>2023-03-16T18:33:48.656Z</time>
</trkpt>
<trkpt lat="31.6520100" lon="35.3646700">
<ele>133.050003</ele>
<time>2023-03-16T18:33:48.656Z</time>
</trkpt>
<trkpt lat="31.6518400" lon="35.3646800">
<ele>132.039993</ele>
<time>2023-03-16T18:33:48.656Z</time>
</trkpt>
<trkpt lat="31.6518400" lon="35.3646800">
<ele>132.039993</ele>
<time>2023-03-16T18:33:48.656Z</time>
</trkpt>
<trkpt lat="31.6518100" lon="35.3646800">
<ele>131.809998</ele>
<time>2023-03-16T18:33:48.656Z</time>
</trkpt>
<trkpt lat="31.6516200" lon="35.3646400">
<ele>131.199997</ele>
<time>2023-03-16T18:33:48.656Z</time>
</trkpt>
<trkpt lat="31.6513500" lon="35.3644300">
<ele>134.470001</ele>
<time>2023-03-16T18:33:48.656Z</time>
</trkpt>
<trkpt lat="31.6509100" lon="35.3641800">
<ele>144.300003</ele>
<time>2023-03-16T18:33:48.656Z</time>
</trkpt>
<trkpt lat="31.6507300" lon="35.3641300">
<ele>146.080002</ele>
<time>2023-03-16T18:33:48.656Z</time>
</trkpt>
<trkpt lat="31.6505700" lon="35.3641800">
<ele>145.949997</ele>
<time>2023-03-16T18:33:48.656Z</time>
</trkpt>
<trkpt lat="31.6504300" lon="35.3641000">
<ele>144.989990</ele>
<time>2023-03-16T18:33:48.656Z</time>
</trkpt>
<trkpt lat="31.6503300" lon="35.3640900">
<ele>144.149994</ele>
<time>2023-03-16T18:33:48.656Z</time>
</trkpt>
<trkpt lat="31.6503300" lon="35.3640900">
<ele>144.149994</ele>
<time>2023-03-16T18:33:48.656Z</time>
</trkpt>
<trkpt lat="31.6502500" lon="35.3641200">
<ele>143.820007</ele>
<time>2023-03-16T18:33:48.656Z</time>
</trkpt>
<trkpt lat="31.6501700" lon="35.3641800">
<ele>144.009995</ele>
<time>2023-03-16T18:33:48.656Z</time>
</trkpt>
<trkpt lat="31.6500200" lon="35.3644500">
<ele>143.070007</ele>
<time>2023-03-16T18:33:48.656Z</time>
</trkpt>
<trkpt lat="31.6498600" lon="35.3646400">
<ele>132.980011</ele>
<time>2023-03-16T18:33:48.656Z</time>
</trkpt>
<trkpt lat="31.6497900" lon="35.3647500">
<ele>128.190002</ele>
<time>2023-03-16T18:33:48.656Z</time>
</trkpt>
<trkpt lat="31.6497300" lon="35.3648100">
<ele>125.029999</ele>
<time>2023-03-16T18:33:48.656Z</time>
</trkpt>
<trkpt lat="31.6496400" lon="35.3648300">
<ele>124.070000</ele>
<time>2023-03-16T18:33:48.656Z</time>
</trkpt>
<trkpt lat="31.6495900" lon="35.3648100">
<ele>123.709999</ele>
<time>2023-03-16T18:33:48.656Z</time>
</trkpt>
<trkpt lat="31.6494700" lon="35.3646900">
<ele>122.520004</ele>
<time>2023-03-16T18:33:48.656Z</time>
</trkpt>
<trkpt lat="31.6494200" lon="35.3646200">
<ele>123.029999</ele>
<time>2023-03-16T18:33:48.656Z</time>
</trkpt>
<trkpt lat="31.6494200" lon="35.3646200">
<ele>123.029999</ele>
<time>2023-03-16T18:33:48.656Z</time>
</trkpt>
<trkpt lat="31.6494200" lon="35.3646200">
<ele>123.029999</ele>
<time>2023-03-16T18:33:48.656Z</time>
</trkpt>
<trkpt lat="31.6494000" lon="35.3646000">
<ele>123.430000</ele>
<time>2023-03-16T18:33:48.656Z</time>
</trkpt>
<trkpt lat="31.6493300" lon="35.3645500">
<ele>124.729996</ele>
<time>2023-03-16T18:33:48.656Z</time>
</trkpt>
<trkpt lat="31.6492000" lon="35.3645100">
<ele>126.839996</ele>
<time>2023-03-16T18:33:48.656Z</time>
</trkpt>
<trkpt lat="31.6490500" lon="35.3644900">
<ele>129.330002</ele>
<time>2023-03-16T18:33:48.656Z</time>
</trkpt>
<trkpt lat="31.6487400" lon="35.3645100">
<ele>133.150009</ele>
<time>2023-03-16T18:33:48.656Z</time>
</trkpt>
<trkpt lat="31.6485300" lon="35.3644900">
<ele>133.220001</ele>
<time>2023-03-16T18:33:48.656Z</time>
</trkpt>
<trkpt lat="31.6484100" lon="35.3645400">
<ele>132.410004</ele>
<time>2023-03-16T18:33:48.656Z</time>
</trkpt>
<trkpt lat="31.6483200" lon="35.3645900">
<ele>132.729996</ele>
<time>2023-03-16T18:33:48.656Z</time>
</trkpt>
<trkpt lat="31.6482400" lon="35.3646700">
<ele>134.449997</ele>
<time>2023-03-16T18:33:48.656Z</time>
</trkpt>
<trkpt lat="31.6482300" lon="35.3646900">
<ele>134.750000</ele>
<time>2023-03-16T18:33:48.656Z</time>
</trkpt>
<trkpt lat="31.6482300" lon="35.3646900">
<ele>134.750000</ele>
<time>2023-03-16T18:33:48.656Z</time>
</trkpt>
<trkpt lat="31.6481400" lon="35.3648300">
<ele>136.940002</ele>
<time>2023-03-16T18:33:48.656Z</time>
</trkpt>
<trkpt lat="31.6480600" lon="35.3649200">
<ele>138.300003</ele>
<time>2023-03-16T18:33:48.656Z</time>
</trkpt>
<trkpt lat="31.6478600" lon="35.3650700">
<ele>140.380005</ele>
<time>2023-03-16T18:33:48.656Z</time>
</trkpt>
<trkpt lat="31.6478000" lon="35.3651000">
<ele>140.550003</ele>
<time>2023-03-16T18:33:48.656Z</time>
</trkpt>
<trkpt lat="31.6476500" lon="35.3651200">
<ele>140.269989</ele>
<time>2023-03-16T18:33:48.656Z</time>
</trkpt>
<trkpt lat="31.6472500" lon="35.3650900">
<ele>139.319992</ele>
<time>2023-03-16T18:33:48.656Z</time>
</trkpt>
<trkpt lat="31.6467300" lon="35.3651700">
<ele>142.789993</ele>
<time>2023-03-16T18:33:48.656Z</time>
</trkpt>
<trkpt lat="31.6459800" lon="35.3652600">
<ele>149.339996</ele>
<time>2023-03-16T18:33:48.656Z</time>
</trkpt>
<trkpt lat="31.6457000" lon="35.3652300">
<ele>155.319992</ele>
<time>2023-03-16T18:33:48.656Z</time>
</trkpt>
<trkpt lat="31.6453300" lon="35.3651500">
<ele>158.350006</ele>
<time>2023-03-16T18:33:48.656Z</time>
</trkpt>
<trkpt lat="31.6450800" lon="35.3651800">
<ele>158.690002</ele>
<time>2023-03-16T18:33:48.656Z</time>
</trkpt>
<trkpt lat="31.6449100" lon="35.3651700">
<ele>159.150009</ele>
<time>2023-03-16T18:33:48.656Z</time>
</trkpt>
<trkpt lat="31.6446300" lon="35.3651400">
<ele>160.650009</ele>
<time>2023-03-16T18:33:48.656Z</time>
</trkpt>
<trkpt lat="31.6441100" lon="35.3650400">
<ele>158.899994</ele>
<time>2023-03-16T18:33:48.656Z</time>
</trkpt>
<trkpt lat="31.6436800" lon="35.3650300">
<ele>154.949997</ele>
<time>2023-03-16T18:33:48.656Z</time>
</trkpt>
<trkpt lat="31.6434700" lon="35.3649900">
<ele>154.599991</ele>
<time>2023-03-16T18:33:48.656Z</time>
</trkpt>
<trkpt lat="31.6434200" lon="35.3649800">
<ele>154.529999</ele>
<time>2023-03-16T18:33:48.656Z</time>
</trkpt>
<trkpt lat="31.6432000" lon="35.3648200">
<ele>153.880005</ele>
<time>2023-03-16T18:33:48.656Z</time>
</trkpt>
<trkpt lat="31.6430600" lon="35.3648000">
<ele>151.789993</ele>
<time>2023-03-16T18:33:48.656Z</time>
</trkpt>
<trkpt lat="31.6429800" lon="35.3648100">
<ele>149.290009</ele>
<time>2023-03-16T18:33:48.656Z</time>
</trkpt>
<trkpt lat="31.6426000" lon="35.3649400">
<ele>144.339996</ele>
<time>2023-03-16T18:33:48.656Z</time>
</trkpt>
<trkpt lat="31.6425100" lon="35.3649100">
<ele>143.410004</ele>
<time>2023-03-16T18:33:48.656Z</time>
</trkpt>
<trkpt lat="31.6424000" lon="35.3647900">
<ele>141.949997</ele>
<time>2023-03-16T18:33:48.656Z</time>
</trkpt>
<trkpt lat="31.6423200" lon="35.3647800">
<ele>141.500000</ele>
<time>2023-03-16T18:33:48.656Z</time>
</trkpt>
<trkpt lat="31.6422100" lon="35.3648100">
<ele>141.020004</ele>
<time>2023-03-16T18:33:48.656Z</time>
</trkpt>
<trkpt lat="31.6420300" lon="35.3649500">
<ele>139.550003</ele>
<time>2023-03-16T18:33:48.656Z</time>
</trkpt>
<trkpt lat="31.6419000" lon="35.3650000">
<ele>138.160004</ele>
<time>2023-03-16T18:33:48.656Z</time>
</trkpt>
<trkpt lat="31.6416800" lon="35.3650500">
<ele>139.500000</ele>
<time>2023-03-16T18:33:48.656Z</time>
</trkpt>
<trkpt lat="31.6414800" lon="35.3650400">
<ele>139.050003</ele>
<time>2023-03-16T18:33:48.656Z</time>
</trkpt>
<trkpt lat="31.6413600" lon="35.3650800">
<ele>139.519989</ele>
<time>2023-03-16T18:33:48.656Z</time>
</trkpt>
<trkpt lat="31.6412700" lon="35.3650800">
<ele>138.869995</ele>
<time>2023-03-16T18:33:48.656Z</time>
</trkpt>
<trkpt lat="31.6411400" lon="35.3650400">
<ele>137.069992</ele>
<time>2023-03-16T18:33:48.656Z</time>
</trkpt>
<trkpt lat="31.6409300" lon="35.3649000">
<ele>136.639999</ele>
<time>2023-03-16T18:33:48.656Z</time>
</trkpt>
<trkpt lat="31.6406600" lon="35.3648300">
<ele>135.080002</ele>
<time>2023-03-16T18:33:48.656Z</time>
</trkpt>
<trkpt lat="31.6403300" lon="35.3647100">
<ele>132.809998</ele>
<time>2023-03-16T18:33:48.656Z</time>
</trkpt>
<trkpt lat="31.6401600" lon="35.3646100">
<ele>131.569992</ele>
<time>2023-03-16T18:33:48.656Z</time>
</trkpt>
<trkpt lat="31.6400800" lon="35.3645500">
<ele>129.729996</ele>
<time>2023-03-16T18:33:48.656Z</time>
</trkpt>
<trkpt lat="31.6399900" lon="35.3645400">
<ele>128.460007</ele>
<time>2023-03-16T18:33:48.656Z</time>
</trkpt>
<trkpt lat="31.6398600" lon="35.3645500">
<ele>129.259995</ele>
<time>2023-03-16T18:33:48.656Z</time>
</trkpt>
<trkpt lat="31.6396700" lon="35.3645800">
<ele>130.660004</ele>
<time>2023-03-16T18:33:48.656Z</time>
</trkpt>
<trkpt lat="31.6395200" lon="35.3646400">
<ele>133.259995</ele>
<time>2023-03-16T18:33:48.656Z</time>
</trkpt>
<trkpt lat="31.6391700" lon="35.3648900">
<ele>132.770004</ele>
<time>2023-03-16T18:33:48.656Z</time>
</trkpt>
<trkpt lat="31.6388900" lon="35.3651700">
<ele>131.550003</ele>
<time>2023-03-16T18:33:48.656Z</time>
</trkpt>
<trkpt lat="31.6387400" lon="35.3652500">
<ele>129.599991</ele>
<time>2023-03-16T18:33:48.656Z</time>
</trkpt>
<trkpt lat="31.6385700" lon="35.3653100">
<ele>129.080002</ele>
<time>2023-03-16T18:33:48.656Z</time>
</trkpt>
<trkpt lat="31.6384800" lon="35.3653200">
<ele>128.830002</ele>
<time>2023-03-16T18:33:48.656Z</time>
</trkpt>
<trkpt lat="31.6384500" lon="35.3653200">
<ele>128.720001</ele>
<time>2023-03-16T18:33:48.656Z</time>
</trkpt>
<trkpt lat="31.6382400" lon="35.3653000">
<ele>126.949997</ele>
<time>2023-03-16T18:33:48.656Z</time>
</trkpt>
<trkpt lat="31.6382400" lon="35.3653000">
<ele>126.949997</ele>
<time>2023-03-16T18:33:48.656Z</time>
</trkpt>
<trkpt lat="31.6381100" lon="35.3652900">
<ele>125.050003</ele>
<time>2023-03-16T18:33:48.656Z</time>
</trkpt>
<trkpt lat="31.6377300" lon="35.3654300">
<ele>125.210007</ele>
<time>2023-03-16T18:33:48.656Z</time>
</trkpt>
<trkpt lat="31.6376600" lon="35.3654400">
<ele>124.579994</ele>
<time>2023-03-16T18:33:48.656Z</time>
</trkpt>
<trkpt lat="31.6375700" lon="35.3654000">
<ele>123.049995</ele>
<time>2023-03-16T18:33:48.656Z</time>
</trkpt>
<trkpt lat="31.6374200" lon="35.3652200">
<ele>122.460007</ele>
<time>2023-03-16T18:33:48.656Z</time>
</trkpt>
<trkpt lat="31.6373300" lon="35.3651600">
<ele>124.460007</ele>
<time>2023-03-16T18:33:48.656Z</time>
</trkpt>
<trkpt lat="31.6371600" lon="35.3651700">
<ele>126.440002</ele>
<time>2023-03-16T18:33:48.656Z</time>
</trkpt>
<trkpt lat="31.6365400" lon="35.3653400">
<ele>127.290001</ele>
<time>2023-03-16T18:33:48.656Z</time>
</trkpt>
<trkpt lat="31.6364200" lon="35.3653300">
<ele>125.849998</ele>
<time>2023-03-16T18:33:48.656Z</time>
</trkpt>
<trkpt lat="31.6360100" lon="35.3652200">
<ele>116.389999</ele>
<time>2023-03-16T18:33:48.656Z</time>
</trkpt>
<trkpt lat="31.6359200" lon="35.3652200">
<ele>117.300003</ele>
<time>2023-03-16T18:33:48.656Z</time>
</trkpt>
<trkpt lat="31.6356800" lon="35.3652300">
<ele>116.099998</ele>
<time>2023-03-16T18:33:48.656Z</time>
</trkpt>
<trkpt lat="31.6354800" lon="35.3653100">
<ele>114.570000</ele>
<time>2023-03-16T18:33:48.656Z</time>
</trkpt>
<trkpt lat="31.6351500" lon="35.3656200">
<ele>114.769997</ele>
<time>2023-03-16T18:33:48.656Z</time>
</trkpt>
<trkpt lat="31.6350700" lon="35.3656700">
<ele>113.200005</ele>
<time>2023-03-16T18:33:48.656Z</time>
</trkpt>
<trkpt lat="31.6348200" lon="35.3657400">
<ele>110.070000</ele>
<time>2023-03-16T18:33:48.656Z</time>
</trkpt>
<trkpt lat="31.6346400" lon="35.3658200">
<ele>108.109993</ele>
<time>2023-03-16T18:33:48.656Z</time>
</trkpt>
<trkpt lat="31.6344900" lon="35.3658600">
<ele>106.170006</ele>
<time>2023-03-16T18:33:48.656Z</time>
</trkpt>
<trkpt lat="31.6341500" lon="35.3659900">
<ele>108.389999</ele>
<time>2023-03-16T18:33:48.656Z</time>
</trkpt>
<trkpt lat="31.6338900" lon="35.3661500">
<ele>107.000000</ele>
<time>2023-03-16T18:33:48.656Z</time>
</trkpt>
<trkpt lat="31.6334000" lon="35.3661500">
<ele>111.840004</ele>
<time>2023-03-16T18:33:48.656Z</time>
</trkpt>
<trkpt lat="31.6332800" lon="35.3661100">
<ele>112.590004</ele>
<time>2023-03-16T18:33:48.656Z</time>
</trkpt>
<trkpt lat="31.6331700" lon="35.3660400">
<ele>114.580002</ele>
<time>2023-03-16T18:33:48.656Z</time>
</trkpt>
<trkpt lat="31.6326700" lon="35.3655800">
<ele>123.990005</ele>
<time>2023-03-16T18:33:48.656Z</time>
</trkpt>
<trkpt lat="31.6322400" lon="35.3653400">
<ele>120.030006</ele>
<time>2023-03-16T18:33:48.656Z</time>
</trkpt>
<trkpt lat="31.6320000" lon="35.3650700">
<ele>121.550003</ele>
<time>2023-03-16T18:33:48.656Z</time>
</trkpt>
<trkpt lat="31.6317800" lon="35.3648500">
<ele>124.910004</ele>
<time>2023-03-16T18:33:48.656Z</time>
</trkpt>
<trkpt lat="31.6313400" lon="35.3644600">
<ele>126.169998</ele>
<time>2023-03-16T18:33:48.656Z</time>
</trkpt>
<trkpt lat="31.6313000" lon="35.3644300">
<ele>126.369995</ele>
<time>2023-03-16T18:33:48.656Z</time>
</trkpt>
<trkpt lat="31.6312500" lon="35.3644100">
<ele>126.620003</ele>
<time>2023-03-16T18:33:48.656Z</time>
</trkpt>
<trkpt lat="31.6312000" lon="35.3644200">
<ele>126.770004</ele>
<time>2023-03-16T18:33:48.656Z</time>
</trkpt>
<trkpt lat="31.6311700" lon="35.3644500">
<ele>126.770004</ele>
<time>2023-03-16T18:33:48.656Z</time>
</trkpt>
<trkpt lat="31.6310800" lon="35.3646200">
<ele>126.770004</ele>
<time>2023-03-16T18:33:48.656Z</time>
</trkpt>
<trkpt lat="31.6310300" lon="35.3648200">
<ele>127.009995</ele>
<time>2023-03-16T18:33:48.656Z</time>
</trkpt>
<trkpt lat="31.6310700" lon="35.3649000">
<ele>126.760002</ele>
<time>2023-03-16T18:33:48.656Z</time>
</trkpt>
<trkpt lat="31.6310600" lon="35.3649400">
<ele>126.800003</ele>
<time>2023-03-16T18:33:48.656Z</time>
</trkpt>
<trkpt lat="31.6310900" lon="35.3649500">
<ele>126.809998</ele>
<time>2023-03-16T18:33:48.656Z</time>
</trkpt>
<trkpt lat="31.6310400" lon="35.3650200">
<ele>126.709999</ele>
<time>2023-03-16T18:33:48.656Z</time>
</trkpt>
<trkpt lat="31.6309800" lon="35.3650700">
<ele>126.290001</ele>
<time>2023-03-16T18:33:48.656Z</time>
</trkpt>
<trkpt lat="31.6309100" lon="35.3650900">
<ele>125.810005</ele>
<time>2023-03-16T18:33:48.656Z</time>
</trkpt>
<trkpt lat="31.6308200" lon="35.3650700">
<ele>125.739998</ele>
<time>2023-03-16T18:33:48.656Z</time>
</trkpt>
<trkpt lat="31.6306400" lon="35.3649300">
<ele>130.489990</ele>
<time>2023-03-16T18:33:48.656Z</time>
</trkpt>
<trkpt lat="31.6305400" lon="35.3648800">
<ele>132.850006</ele>
<time>2023-03-16T18:33:48.656Z</time>
</trkpt>
<trkpt lat="31.6303700" lon="35.3648600">
<ele>134.350006</ele>
<time>2023-03-16T18:33:48.656Z</time>
</trkpt>
<trkpt lat="31.6301300" lon="35.3648400">
<ele>136.139999</ele>
<time>2023-03-16T18:33:48.656Z</time>
</trkpt>
<trkpt lat="31.6297800" lon="35.3649300">
<ele>134.820007</ele>
<time>2023-03-16T18:33:48.656Z</time>
</trkpt>
<trkpt lat="31.6295500" lon="35.3650400">
<ele>134.440002</ele>
<time>2023-03-16T18:33:48.656Z</time>
</trkpt>
<trkpt lat="31.6293300" lon="35.3651900">
<ele>133.309998</ele>
<time>2023-03-16T18:33:48.656Z</time>
</trkpt>
<trkpt lat="31.6292200" lon="35.3652200">
<ele>132.169998</ele>
<time>2023-03-16T18:33:48.656Z</time>
</trkpt>
<trkpt lat="31.6291000" lon="35.3652400">
<ele>131.500000</ele>
<time>2023-03-16T18:33:48.656Z</time>
</trkpt>
<trkpt lat="31.6288800" lon="35.3652400">
<ele>132.449997</ele>
<time>2023-03-16T18:33:48.656Z</time>
</trkpt>
<trkpt lat="31.6285100" lon="35.3651700">
<ele>139.899994</ele>
<time>2023-03-16T18:33:48.656Z</time>
</trkpt>
<trkpt lat="31.6282700" lon="35.3651800">
<ele>144.410004</ele>
<time>2023-03-16T18:33:48.656Z</time>
</trkpt>
<trkpt lat="31.6280800" lon="35.3651500">
<ele>146.649994</ele>
<time>2023-03-16T18:33:48.656Z</time>
</trkpt>
<trkpt lat="31.6279300" lon="35.3651800">
<ele>146.990005</ele>
<time>2023-03-16T18:33:48.656Z</time>
</trkpt>
<trkpt lat="31.6278700" lon="35.3652100">
<ele>146.990005</ele>
<time>2023-03-16T18:33:48.656Z</time>
</trkpt>
<trkpt lat="31.6277900" lon="35.3652000">
<ele>147.500000</ele>
<time>2023-03-16T18:33:48.656Z</time>
</trkpt>
<trkpt lat="31.6277300" lon="35.3651900">
<ele>147.919998</ele>
<time>2023-03-16T18:33:48.656Z</time>
</trkpt>
<trkpt lat="31.6276000" lon="35.3650600">
<ele>149.350006</ele>
<time>2023-03-16T18:33:48.656Z</time>
</trkpt>
<trkpt lat="31.6275000" lon="35.3650000">
<ele>150.000000</ele>
<time>2023-03-16T18:33:48.656Z</time>
</trkpt>
<trkpt lat="31.6270900" lon="35.3649900">
<ele>153.570007</ele>
<time>2023-03-16T18:33:48.656Z</time>
</trkpt>
<trkpt lat="31.6267600" lon="35.3649300">
<ele>157.169998</ele>
<time>2023-03-16T18:33:48.656Z</time>
</trkpt>
<trkpt lat="31.6267400" lon="35.3649300">
<ele>157.290009</ele>
<time>2023-03-16T18:33:48.656Z</time>
</trkpt>
<trkpt lat="31.6267400" lon="35.3649300">
<ele>157.290009</ele>
<time>2023-03-16T18:33:48.656Z</time>
</trkpt>
<trkpt lat="31.6267400" lon="35.3649300">
<ele>157.290009</ele>
<time>2023-03-16T18:33:48.656Z</time>
</trkpt>
<trkpt lat="31.6266200" lon="35.3650100">
<ele>157.860001</ele>
<time>2023-03-16T18:33:48.656Z</time>
</trkpt>
<trkpt lat="31.6264400" lon="35.3650300">
<ele>161.010010</ele>
<time>2023-03-16T18:33:48.656Z</time>
</trkpt>
<trkpt lat="31.6262200" lon="35.3652200">
<ele>163.279999</ele>
<time>2023-03-16T18:33:48.656Z</time>
</trkpt>
<trkpt lat="31.6261500" lon="35.3652300">
<ele>164.050003</ele>
<time>2023-03-16T18:33:48.656Z</time>
</trkpt>
<trkpt lat="31.6260600" lon="35.3651900">
<ele>164.509995</ele>
<time>2023-03-16T18:33:48.656Z</time>
</trkpt>
<trkpt lat="31.6259300" lon="35.3650900">
<ele>164.950012</ele>
<time>2023-03-16T18:33:48.656Z</time>
</trkpt>
<trkpt lat="31.6256900" lon="35.3650800">
<ele>164.639999</ele>
<time>2023-03-16T18:33:48.656Z</time>
</trkpt>
<trkpt lat="31.6256100" lon="35.3649600">
<ele>165.539993</ele>
<time>2023-03-16T18:33:48.656Z</time>
</trkpt>
<trkpt lat="31.6255800" lon="35.3649500">
<ele>165.479996</ele>
<time>2023-03-16T18:33:48.656Z</time>
</trkpt>
<trkpt lat="31.6255200" lon="35.3649300">
<ele>165.570007</ele>
<time>2023-03-16T18:33:48.656Z</time>
</trkpt>
<trkpt lat="31.6253900" lon="35.3649600">
<ele>165.709991</ele>
<time>2023-03-16T18:33:48.656Z</time>
</trkpt>
<trkpt lat="31.6253100" lon="35.3649400">
<ele>165.930008</ele>
<time>2023-03-16T18:33:48.656Z</time>
</trkpt>
<trkpt lat="31.6251500" lon="35.3648400">
<ele>166.199997</ele>
<time>2023-03-16T18:33:48.656Z</time>
</trkpt>
<trkpt lat="31.6250500" lon="35.3646900">
<ele>166.160004</ele>
<time>2023-03-16T18:33:48.656Z</time>
</trkpt>
<trkpt lat="31.6248300" lon="35.3645000">
<ele>167.289993</ele>
<time>2023-03-16T18:33:48.656Z</time>
</trkpt>
<trkpt lat="31.6247500" lon="35.3644900">
<ele>167.589996</ele>
<time>2023-03-16T18:33:48.656Z</time>
</trkpt>
<trkpt lat="31.6245700" lon="35.3645400">
<ele>168.580002</ele>
<time>2023-03-16T18:33:48.656Z</time>
</trkpt>
<trkpt lat="31.6239700" lon="35.3643500">
<ele>179.350006</ele>
<time>2023-03-16T18:33:48.656Z</time>
</trkpt>
<trkpt lat="31.6237900" lon="35.3643300">
<ele>181.860001</ele>
<time>2023-03-16T18:33:48.656Z</time>
</trkpt>
<trkpt lat="31.6235700" lon="35.3644100">
<ele>183.199997</ele>
<time>2023-03-16T18:33:48.656Z</time>
</trkpt>
<trkpt lat="31.6235300" lon="35.3644000">
<ele>183.350006</ele>
<time>2023-03-16T18:33:48.656Z</time>
</trkpt>
<trkpt lat="31.6233700" lon="35.3643100">
<ele>185.159988</ele>
<time>2023-03-16T18:33:48.656Z</time>
</trkpt>
<trkpt lat="31.6232700" lon="35.3642900">
<ele>186.440002</ele>
<time>2023-03-16T18:33:48.656Z</time>
</trkpt>
<trkpt lat="31.6231800" lon="35.3643100">
<ele>187.089996</ele>
<time>2023-03-16T18:33:48.656Z</time>
</trkpt>
<trkpt lat="31.6228700" lon="35.3645200">
<ele>193.460007</ele>
<time>2023-03-16T18:33:48.656Z</time>
</trkpt>
<trkpt lat="31.6226200" lon="35.3646300">
<ele>194.759995</ele>
<time>2023-03-16T18:33:48.656Z</time>
</trkpt>
<trkpt lat="31.6225100" lon="35.3646600">
<ele>193.939987</ele>
<time>2023-03-16T18:33:48.656Z</time>
</trkpt>
<trkpt lat="31.6224400" lon="35.3646500">
<ele>194.740005</ele>
<time>2023-03-16T18:33:48.656Z</time>
</trkpt>
<trkpt lat="31.6224100" lon="35.3646500">
<ele>195.080002</ele>
<time>2023-03-16T18:33:48.656Z</time>
</trkpt>
<trkpt lat="31.6222800" lon="35.3646000">
<ele>196.880005</ele>
<time>2023-03-16T18:33:48.656Z</time>
</trkpt>
<trkpt lat="31.6220100" lon="35.3645300">
<ele>198.750015</ele>
<time>2023-03-16T18:33:48.656Z</time>
</trkpt>
<trkpt lat="31.6216500" lon="35.3645600">
<ele>199.250000</ele>
<time>2023-03-16T18:33:48.656Z</time>
</trkpt>
<trkpt lat="31.6212700" lon="35.3644600">
<ele>198.940002</ele>
<time>2023-03-16T18:33:48.656Z</time>
</trkpt>
<trkpt lat="31.6211400" lon="35.3644600">
<ele>198.080002</ele>
<time>2023-03-16T18:33:48.656Z</time>
</trkpt>
<trkpt lat="31.6210100" lon="35.3645100">
<ele>195.690002</ele>
<time>2023-03-16T18:33:48.656Z</time>
</trkpt>
<trkpt lat="31.6208900" lon="35.3646100">
<ele>193.930008</ele>
<time>2023-03-16T18:33:48.656Z</time>
</trkpt>
<trkpt lat="31.6208000" lon="35.3647100">
<ele>192.720001</ele>
<time>2023-03-16T18:33:48.656Z</time>
</trkpt>
<trkpt lat="31.6207000" lon="35.3649300">
<ele>189.830002</ele>
<time>2023-03-16T18:33:48.656Z</time>
</trkpt>
<trkpt lat="31.6206700" lon="35.3649600">
<ele>189.580002</ele>
<time>2023-03-16T18:33:48.656Z</time>
</trkpt>
<trkpt lat="31.6205600" lon="35.3649800">
<ele>188.679993</ele>
<time>2023-03-16T18:33:48.656Z</time>
</trkpt>
<trkpt lat="31.6205100" lon="35.3649300">
<ele>187.779999</ele>
<time>2023-03-16T18:33:48.656Z</time>
</trkpt>
<trkpt lat="31.6204900" lon="35.3648600">
<ele>186.599991</ele>
<time>2023-03-16T18:33:48.656Z</time>
</trkpt>
<trkpt lat="31.6205000" lon="35.3647700">
<ele>185.030014</ele>
<time>2023-03-16T18:33:48.656Z</time>
</trkpt>
<trkpt lat="31.6206200" lon="35.3644700">
<ele>185.200012</ele>
<time>2023-03-16T18:33:48.656Z</time>
</trkpt>
<trkpt lat="31.6206300" lon="35.3644000">
<ele>185.729996</ele>
<time>2023-03-16T18:33:48.656Z</time>
</trkpt>
<trkpt lat="31.6206000" lon="35.3642800">
<ele>185.619995</ele>
<time>2023-03-16T18:33:48.656Z</time>
</trkpt>
<trkpt lat="31.6203800" lon="35.3640200">
<ele>184.349991</ele>
<time>2023-03-16T18:33:48.656Z</time>
</trkpt>
<trkpt lat="31.6203300" lon="35.3639900">
<ele>183.960007</ele>
<time>2023-03-16T18:33:48.656Z</time>
</trkpt>
<trkpt lat="31.6201700" lon="35.3639500">
<ele>184.759995</ele>
<time>2023-03-16T18:33:48.656Z</time>
</trkpt>
<trkpt lat="31.6200000" lon="35.3638000">
<ele>185.360001</ele>
<time>2023-03-16T18:33:48.656Z</time>
</trkpt>
<trkpt lat="31.6198400" lon="35.3637400">
<ele>186.259995</ele>
<time>2023-03-16T18:33:48.656Z</time>
</trkpt>
<trkpt lat="31.6198200" lon="35.3636700">
<ele>185.110001</ele>
<time>2023-03-16T18:33:48.656Z</time>
</trkpt>
<trkpt lat="31.6198300" lon="35.3635300">
<ele>183.870010</ele>
<time>2023-03-16T18:33:48.656Z</time>
</trkpt>
<trkpt lat="31.6198100" lon="35.3634600">
<ele>183.599991</ele>
<time>2023-03-16T18:33:48.656Z</time>
</trkpt>
<trkpt lat="31.6197800" lon="35.3634200">
<ele>183.199997</ele>
<time>2023-03-16T18:33:48.656Z</time>
</trkpt>
<trkpt lat="31.6196500" lon="35.3633700">
<ele>183.110001</ele>
<time>2023-03-16T18:33:48.656Z</time>
</trkpt>
<trkpt lat="31.6195100" lon="35.3633500">
<ele>184.500000</ele>
<time>2023-03-16T18:33:48.656Z</time>
</trkpt>
<trkpt lat="31.6194000" lon="35.3632900">
<ele>185.379990</ele>
<time>2023-03-16T18:33:48.656Z</time>
</trkpt>
<trkpt lat="31.6191600" lon="35.3629900">
<ele>184.210007</ele>
<time>2023-03-16T18:33:48.656Z</time>
</trkpt>
<trkpt lat="31.6191300" lon="35.3629600">
<ele>184.210007</ele>
<time>2023-03-16T18:33:48.656Z</time>
</trkpt>
<trkpt lat="31.6190800" lon="35.3629300">
<ele>184.139999</ele>
<time>2023-03-16T18:33:48.656Z</time>
</trkpt>
<trkpt lat="31.6189500" lon="35.3629000">
<ele>183.779999</ele>
<time>2023-03-16T18:33:48.656Z</time>
</trkpt>
<trkpt lat="31.6187800" lon="35.3629300">
<ele>182.740005</ele>
<time>2023-03-16T18:33:48.656Z</time>
</trkpt>
<trkpt lat="31.6186900" lon="35.3629200">
<ele>182.089996</ele>
<time>2023-03-16T18:33:48.656Z</time>
</trkpt>
<trkpt lat="31.6184600" lon="35.3627800">
<ele>180.029999</ele>
<time>2023-03-16T18:33:48.656Z</time>
</trkpt>
<trkpt lat="31.6183400" lon="35.3627500">
<ele>180.699997</ele>
<time>2023-03-16T18:33:48.656Z</time>
</trkpt>
<trkpt lat="31.6181600" lon="35.3627400">
<ele>180.160004</ele>
<time>2023-03-16T18:33:48.656Z</time>
</trkpt>
<trkpt lat="31.6179100" lon="35.3625900">
<ele>179.919998</ele>
<time>2023-03-16T18:33:48.656Z</time>
</trkpt>
<trkpt lat="31.6178400" lon="35.3625600">
<ele>178.930008</ele>
<time>2023-03-16T18:33:48.656Z</time>
</trkpt>
<trkpt lat="31.6177000" lon="35.3625700">
<ele>176.490005</ele>
<time>2023-03-16T18:33:48.656Z</time>
</trkpt>
<trkpt lat="31.6175000" lon="35.3626200">
<ele>173.429993</ele>
<time>2023-03-16T18:33:48.656Z</time>
</trkpt>
<trkpt lat="31.6174600" lon="35.3626000">
<ele>173.190002</ele>
<time>2023-03-16T18:33:48.656Z</time>
</trkpt>
<trkpt lat="31.6174100" lon="35.3625700">
<ele>172.690002</ele>
<time>2023-03-16T18:33:48.656Z</time>
</trkpt>
<trkpt lat="31.6173700" lon="35.3624900">
<ele>171.569992</ele>
<time>2023-03-16T18:33:48.656Z</time>
</trkpt>
<trkpt lat="31.6172700" lon="35.3622100">
<ele>167.770004</ele>
<time>2023-03-16T18:33:48.656Z</time>
</trkpt>
<trkpt lat="31.6171900" lon="35.3620600">
<ele>168.509995</ele>
<time>2023-03-16T18:33:48.656Z</time>
</trkpt>
<trkpt lat="31.6170700" lon="35.3620100">
<ele>167.309998</ele>
<time>2023-03-16T18:33:48.656Z</time>
</trkpt>
<trkpt lat="31.6168800" lon="35.3620300">
<ele>165.750000</ele>
<time>2023-03-16T18:33:48.656Z</time>
</trkpt>
<trkpt lat="31.6168200" lon="35.3620100">
<ele>166.000000</ele>
<time>2023-03-16T18:33:48.656Z</time>
</trkpt>
<trkpt lat="31.6166800" lon="35.3618700">
<ele>165.230011</ele>
<time>2023-03-16T18:33:48.656Z</time>
</trkpt>
<trkpt lat="31.6166200" lon="35.3617300">
<ele>163.629990</ele>
<time>2023-03-16T18:33:48.656Z</time>
</trkpt>
<trkpt lat="31.6165000" lon="35.3615800">
<ele>162.770004</ele>
<time>2023-03-16T18:33:48.656Z</time>
</trkpt>
<trkpt lat="31.6164500" lon="35.3614300">
<ele>162.779999</ele>
<time>2023-03-16T18:33:48.656Z</time>
</trkpt>
<trkpt lat="31.6163900" lon="35.3613500">
<ele>162.579987</ele>
<time>2023-03-16T18:33:48.656Z</time>
</trkpt>
<trkpt lat="31.6163100" lon="35.3613000">
<ele>162.709991</ele>
<time>2023-03-16T18:33:48.656Z</time>
</trkpt>
<trkpt lat="31.6162200" lon="35.3613300">
<ele>161.630005</ele>
<time>2023-03-16T18:33:48.656Z</time>
</trkpt>
<trkpt lat="31.6161700" lon="35.3613800">
<ele>160.550003</ele>
<time>2023-03-16T18:33:48.656Z</time>
</trkpt>
<trkpt lat="31.6161100" lon="35.3614600">
<ele>159.989990</ele>
<time>2023-03-16T18:33:48.656Z</time>
</trkpt>
<trkpt lat="31.6160400" lon="35.3616200">
<ele>159.059998</ele>
<time>2023-03-16T18:33:48.656Z</time>
</trkpt>
<trkpt lat="31.6160000" lon="35.3616900">
<ele>158.800003</ele>
<time>2023-03-16T18:33:48.656Z</time>
</trkpt>
<trkpt lat="31.6158900" lon="35.3618200">
<ele>158.810013</ele>
<time>2023-03-16T18:33:48.656Z</time>
</trkpt>
<trkpt lat="31.6158000" lon="35.3619000">
<ele>157.580002</ele>
<time>2023-03-16T18:33:48.656Z</time>
</trkpt>
<trkpt lat="31.6157100" lon="35.3619200">
<ele>155.220001</ele>
<time>2023-03-16T18:33:48.656Z</time>
</trkpt>
<trkpt lat="31.6155900" lon="35.3618800">
<ele>151.500000</ele>
<time>2023-03-16T18:33:48.656Z</time>
</trkpt>
<trkpt lat="31.6154100" lon="35.3617400">
<ele>149.279999</ele>
<time>2023-03-16T18:33:48.656Z</time>
</trkpt>
<trkpt lat="31.6152800" lon="35.3616100">
<ele>148.830002</ele>
<time>2023-03-16T18:33:48.656Z</time>
</trkpt>
<trkpt lat="31.6150400" lon="35.3614400">
<ele>151.419998</ele>
<time>2023-03-16T18:33:48.656Z</time>
</trkpt>
<trkpt lat="31.6148600" lon="35.3613800">
<ele>151.589996</ele>
<time>2023-03-16T18:33:48.656Z</time>
</trkpt>
<trkpt lat="31.6147500" lon="35.3613900">
<ele>151.099991</ele>
<time>2023-03-16T18:33:48.656Z</time>
</trkpt>
<trkpt lat="31.6146500" lon="35.3614400">
<ele>150.059998</ele>
<time>2023-03-16T18:33:48.656Z</time>
</trkpt>
<trkpt lat="31.6144300" lon="35.3616300">
<ele>148.839996</ele>
<time>2023-03-16T18:33:48.656Z</time>
</trkpt>
<trkpt lat="31.6143100" lon="35.3617100">
<ele>150.279999</ele>
<time>2023-03-16T18:33:48.656Z</time>
</trkpt>
<trkpt lat="31.6142600" lon="35.3617300">
<ele>150.779999</ele>
<time>2023-03-16T18:33:48.656Z</time>
</trkpt>
<trkpt lat="31.6141700" lon="35.3617300">
<ele>151.430008</ele>
<time>2023-03-16T18:33:48.656Z</time>
</trkpt>
<trkpt lat="31.6141200" lon="35.3617000">
<ele>151.600006</ele>
<time>2023-03-16T18:33:48.656Z</time>
</trkpt>
<trkpt lat="31.6140500" lon="35.3616300">
<ele>151.470001</ele>
<time>2023-03-16T18:33:48.656Z</time>
</trkpt>
<trkpt lat="31.6139800" lon="35.3614100">
<ele>149.250000</ele>
<time>2023-03-16T18:33:48.656Z</time>
</trkpt>
<trkpt lat="31.6139100" lon="35.3613000">
<ele>148.659988</ele>
<time>2023-03-16T18:33:48.656Z</time>
</trkpt>
<trkpt lat="31.6138400" lon="35.3612600">
<ele>148.199997</ele>
<time>2023-03-16T18:33:48.656Z</time>
</trkpt>
<trkpt lat="31.6136900" lon="35.3612100">
<ele>146.720001</ele>
<time>2023-03-16T18:33:48.656Z</time>
</trkpt>
<trkpt lat="31.6135100" lon="35.3612200">
<ele>143.769989</ele>
<time>2023-03-16T18:33:48.656Z</time>
</trkpt>
<trkpt lat="31.6133800" lon="35.3612800">
<ele>141.510010</ele>
<time>2023-03-16T18:33:48.656Z</time>
</trkpt>
<trkpt lat="31.6133400" lon="35.3613200">
<ele>141.160004</ele>
<time>2023-03-16T18:33:48.656Z</time>
</trkpt>
<trkpt lat="31.6133200" lon="35.3613700">
<ele>141.160004</ele>
<time>2023-03-16T18:33:48.656Z</time>
</trkpt>
<trkpt lat="31.6133200" lon="35.3614300">
<ele>141.860001</ele>
<time>2023-03-16T18:33:48.656Z</time>
</trkpt>
<trkpt lat="31.6133900" lon="35.3616700">
<ele>146.220001</ele>
<time>2023-03-16T18:33:48.656Z</time>
</trkpt>
<trkpt lat="31.6133800" lon="35.3617600">
<ele>145.779999</ele>
<time>2023-03-16T18:33:48.656Z</time>
</trkpt>
<trkpt lat="31.6133400" lon="35.3618400">
<ele>144.550003</ele>
<time>2023-03-16T18:33:48.656Z</time>
</trkpt>
<trkpt lat="31.6130100" lon="35.3621500">
<ele>134.540009</ele>
<time>2023-03-16T18:33:48.656Z</time>
</trkpt>
<trkpt lat="31.6127300" lon="35.3622900">
<ele>128.430008</ele>
<time>2023-03-16T18:33:48.656Z</time>
</trkpt>
<trkpt lat="31.6125500" lon="35.3624700">
<ele>126.779999</ele>
<time>2023-03-16T18:33:48.656Z</time>
</trkpt>
<trkpt lat="31.6122300" lon="35.3627400">
<ele>123.860001</ele>
<time>2023-03-16T18:33:48.656Z</time>
</trkpt>
<trkpt lat="31.6121200" lon="35.3629100">
<ele>123.769997</ele>
<time>2023-03-16T18:33:48.656Z</time>
</trkpt>
<trkpt lat="31.6119800" lon="35.3632500">
<ele>121.639999</ele>
<time>2023-03-16T18:33:48.656Z</time>
</trkpt>
<trkpt lat="31.6118800" lon="35.3634500">
<ele>118.660004</ele>
<time>2023-03-16T18:33:48.656Z</time>
</trkpt>
<trkpt lat="31.6118400" lon="35.3635100">
<ele>117.440002</ele>
<time>2023-03-16T18:33:48.656Z</time>
</trkpt>
<trkpt lat="31.6118000" lon="35.3635300">
<ele>117.239998</ele>
<time>2023-03-16T18:33:48.656Z</time>
</trkpt>
<trkpt lat="31.6117400" lon="35.3635300">
<ele>117.730003</ele>
<time>2023-03-16T18:33:48.656Z</time>
</trkpt>
<trkpt lat="31.6116100" lon="35.3634300">
<ele>120.129997</ele>
<time>2023-03-16T18:33:48.656Z</time>
</trkpt>
<trkpt lat="31.6114900" lon="35.3634100">
<ele>118.439995</ele>
<time>2023-03-16T18:33:48.656Z</time>
</trkpt>
<trkpt lat="31.6111900" lon="35.3634900">
<ele>104.889999</ele>
<time>2023-03-16T18:33:48.656Z</time>
</trkpt>
<trkpt lat="31.6110100" lon="35.3635700">
<ele>98.349998</ele>
<time>2023-03-16T18:33:48.656Z</time>
</trkpt>
<trkpt lat="31.6109400" lon="35.3635800">
<ele>96.910004</ele>
<time>2023-03-16T18:33:48.656Z</time>
</trkpt>
<trkpt lat="31.6107900" lon="35.3635300">
<ele>94.059998</ele>
<time>2023-03-16T18:33:48.656Z</time>
</trkpt>
<trkpt lat="31.6106600" lon="35.3635500">
<ele>93.169998</ele>
<time>2023-03-16T18:33:48.656Z</time>
</trkpt>
<trkpt lat="31.6106000" lon="35.3635900">
<ele>93.099998</ele>
<time>2023-03-16T18:33:48.656Z</time>
</trkpt>
<trkpt lat="31.6105900" lon="35.3636200">
<ele>93.129997</ele>
<time>2023-03-16T18:33:48.656Z</time>
</trkpt>
<trkpt lat="31.6105700" lon="35.3635900">
<ele>92.879997</ele>
<time>2023-03-16T18:33:48.656Z</time>
</trkpt>
<trkpt lat="31.6105800" lon="35.3635500">
<ele>92.540001</ele>
<time>2023-03-16T18:33:48.656Z</time>
</trkpt>
<trkpt lat="31.6108800" lon="35.3632500">
<ele>92.930000</ele>
<time>2023-03-16T18:33:48.656Z</time>
</trkpt>
<trkpt lat="31.6110300" lon="35.3630600">
<ele>94.870003</ele>
<time>2023-03-16T18:33:48.656Z</time>
</trkpt>
<trkpt lat="31.6110900" lon="35.3628600">
<ele>92.239998</ele>
<time>2023-03-16T18:33:48.656Z</time>
</trkpt>
<trkpt lat="31.6111600" lon="35.3627000">
<ele>91.659996</ele>
<time>2023-03-16T18:33:48.656Z</time>
</trkpt>
<trkpt lat="31.6111800" lon="35.3625700">
<ele>89.120003</ele>
<time>2023-03-16T18:33:48.656Z</time>
</trkpt>
<trkpt lat="31.6112500" lon="35.3623700">
<ele>85.760002</ele>
<time>2023-03-16T18:33:48.656Z</time>
</trkpt>
<trkpt lat="31.6112800" lon="35.3623100">
<ele>84.849998</ele>
<time>2023-03-16T18:33:48.656Z</time>
</trkpt>
<trkpt lat="31.6113500" lon="35.3622400">
<ele>84.580002</ele>
<time>2023-03-16T18:33:48.656Z</time>
</trkpt>
<trkpt lat="31.6114500" lon="35.3621000">
<ele>82.700005</ele>
<time>2023-03-16T18:33:48.656Z</time>
</trkpt>
<trkpt lat="31.6115000" lon="35.3620000">
<ele>80.679993</ele>
<time>2023-03-16T18:33:48.656Z</time>
</trkpt>
<trkpt lat="31.6115500" lon="35.3619500">
<ele>80.430000</ele>
<time>2023-03-16T18:33:48.656Z</time>
</trkpt>
<trkpt lat="31.6116100" lon="35.3617500">
<ele>75.309998</ele>
<time>2023-03-16T18:33:48.656Z</time>
</trkpt>
<trkpt lat="31.6115700" lon="35.3615200">
<ele>67.889999</ele>
<time>2023-03-16T18:33:48.656Z</time>
</trkpt>
<trkpt lat="31.6115800" lon="35.3614700">
<ele>66.989998</ele>
<time>2023-03-16T18:33:48.656Z</time>
</trkpt>
<trkpt lat="31.6115800" lon="35.3614300">
<ele>66.070000</ele>
<time>2023-03-16T18:33:48.656Z</time>
</trkpt>
<trkpt lat="31.6116200" lon="35.3613800">
<ele>65.889999</ele>
<time>2023-03-16T18:33:48.656Z</time>
</trkpt>
<trkpt lat="31.6116300" lon="35.3612700">
<ele>64.869995</ele>
<time>2023-03-16T18:33:48.656Z</time>
</trkpt>
<trkpt lat="31.6115900" lon="35.3611700">
<ele>62.760002</ele>
<time>2023-03-16T18:33:48.656Z</time>
</trkpt>
<trkpt lat="31.6115400" lon="35.3611300">
<ele>61.040001</ele>
<time>2023-03-16T18:33:48.656Z</time>
</trkpt>
<trkpt lat="31.6114400" lon="35.3611200">
<ele>58.410004</ele>
<time>2023-03-16T18:33:48.656Z</time>
</trkpt>
<trkpt lat="31.6112900" lon="35.3611600">
<ele>55.990002</ele>
<time>2023-03-16T18:33:48.656Z</time>
</trkpt>
<trkpt lat="31.6111700" lon="35.3611000">
<ele>52.790001</ele>
<time>2023-03-16T18:33:48.656Z</time>
</trkpt>
<trkpt lat="31.6110700" lon="35.3610000">
<ele>48.930000</ele>
<time>2023-03-16T18:33:48.656Z</time>
</trkpt>
<trkpt lat="31.6110200" lon="35.3609000">
<ele>46.439999</ele>
<time>2023-03-16T18:33:48.656Z</time>
</trkpt>
<trkpt lat="31.6109900" lon="35.3606100">
<ele>41.779999</ele>
<time>2023-03-16T18:33:48.656Z</time>
</trkpt>
<trkpt lat="31.6109600" lon="35.3604900">
<ele>40.060001</ele>
<time>2023-03-16T18:33:48.656Z</time>
</trkpt>
<trkpt lat="31.6109700" lon="35.3602700">
<ele>36.940002</ele>
<time>2023-03-16T18:33:48.656Z</time>
</trkpt>
<trkpt lat="31.6111800" lon="35.3594700">
<ele>33.680000</ele>
<time>2023-03-16T18:33:48.656Z</time>
</trkpt>
<trkpt lat="31.6111900" lon="35.3593800">
<ele>33.400002</ele>
<time>2023-03-16T18:33:48.656Z</time>
</trkpt>
<trkpt lat="31.6111600" lon="35.3591100">
<ele>32.360001</ele>
<time>2023-03-16T18:33:48.656Z</time>
</trkpt>
<trkpt lat="31.6111000" lon="35.3589500">
<ele>31.280001</ele>
<time>2023-03-16T18:33:48.656Z</time>
</trkpt>
<trkpt lat="31.6110000" lon="35.3588000">
<ele>31.859999</ele>
<time>2023-03-16T18:33:48.656Z</time>
</trkpt>
<trkpt lat="31.6108200" lon="35.3586100">
<ele>32.049999</ele>
<time>2023-03-16T18:33:48.656Z</time>
</trkpt>
<trkpt lat="31.6107800" lon="35.3585300">
<ele>32.080002</ele>
<time>2023-03-16T18:33:48.656Z</time>
</trkpt>
<trkpt lat="31.6107700" lon="35.3584200">
<ele>31.910002</ele>
<time>2023-03-16T18:33:48.656Z</time>
</trkpt>
<trkpt lat="31.6107800" lon="35.3581200">
<ele>31.510000</ele>
<time>2023-03-16T18:33:48.656Z</time>
</trkpt>
<trkpt lat="31.6107400" lon="35.3579200">
<ele>31.150002</ele>
<time>2023-03-16T18:33:48.656Z</time>
</trkpt>
<trkpt lat="31.6107700" lon="35.3578200">
<ele>31.779999</ele>
<time>2023-03-16T18:33:48.656Z</time>
</trkpt>
<trkpt lat="31.6106900" lon="35.3574500">
<ele>31.340000</ele>
<time>2023-03-16T18:33:48.656Z</time>
</trkpt>
<trkpt lat="31.6105700" lon="35.3573000">
<ele>29.870001</ele>
<time>2023-03-16T18:33:48.656Z</time>
</trkpt>
<trkpt lat="31.6104400" lon="35.3571900">
<ele>27.829998</ele>
<time>2023-03-16T18:33:48.656Z</time>
</trkpt>
<trkpt lat="31.6101900" lon="35.3571200">
<ele>23.280001</ele>
<time>2023-03-16T18:33:48.656Z</time>
</trkpt>
<trkpt lat="31.6101000" lon="35.3570500">
<ele>21.070000</ele>
<time>2023-03-16T18:33:48.656Z</time>
</trkpt>
<trkpt lat="31.6097600" lon="35.3568900">
<ele>15.320000</ele>
<time>2023-03-16T18:33:48.656Z</time>
</trkpt>
<trkpt lat="31.6097200" lon="35.3568900">
<ele>14.770000</ele>
<time>2023-03-16T18:33:48.656Z</time>
</trkpt>
<trkpt lat="31.6096300" lon="35.3569200">
<ele>13.310000</ele>
<time>2023-03-16T18:33:48.656Z</time>
</trkpt>
<trkpt lat="31.6096000" lon="35.3570300">
<ele>12.490001</ele>
<time>2023-03-16T18:33:48.656Z</time>
</trkpt>
<trkpt lat="31.6095500" lon="35.3574200">
<ele>9.480000</ele>
<time>2023-03-16T18:33:48.656Z</time>
</trkpt>
<trkpt lat="31.6095500" lon="35.3576400">
<ele>8.760000</ele>
<time>2023-03-16T18:33:48.656Z</time>
</trkpt>
<trkpt lat="31.6095700" lon="35.3577200">
<ele>8.700000</ele>
<time>2023-03-16T18:33:48.656Z</time>
</trkpt>
<trkpt lat="31.6096300" lon="35.3578000">
<ele>8.360001</ele>
<time>2023-03-16T18:33:48.656Z</time>
</trkpt>
<trkpt lat="31.6097500" lon="35.3579500">
<ele>8.800000</ele>
<time>2023-03-16T18:33:48.656Z</time>
</trkpt>
<trkpt lat="31.6098200" lon="35.3580600">
<ele>10.809999</ele>
<time>2023-03-16T18:33:48.656Z</time>
</trkpt>
<trkpt lat="31.6098300" lon="35.3581300">
<ele>10.940000</ele>
<time>2023-03-16T18:33:48.656Z</time>
</trkpt>
<trkpt lat="31.6097600" lon="35.3582500">
<ele>8.480000</ele>
<time>2023-03-16T18:33:48.656Z</time>
</trkpt>
<trkpt lat="31.6095200" lon="35.3584600">
<ele>8.400000</ele>
<time>2023-03-16T18:33:48.656Z</time>
</trkpt>
<trkpt lat="31.6094700" lon="35.3585600">
<ele>8.170000</ele>
<time>2023-03-16T18:33:48.656Z</time>
</trkpt>
<trkpt lat="31.6093900" lon="35.3586600">
<ele>7.360000</ele>
<time>2023-03-16T18:33:48.656Z</time>
</trkpt>
<trkpt lat="31.6092500" lon="35.3587700">
<ele>6.510000</ele>
<time>2023-03-16T18:33:48.656Z</time>
</trkpt>
<trkpt lat="31.6092200" lon="35.3588300">
<ele>6.120000</ele>
<time>2023-03-16T18:33:48.656Z</time>
</trkpt>
<trkpt lat="31.6091500" lon="35.3589900">
<ele>6.420000</ele>
<time>2023-03-16T18:33:48.656Z</time>
</trkpt>
<trkpt lat="31.6090200" lon="35.3591700">
<ele>9.670000</ele>
<time>2023-03-16T18:33:48.656Z</time>
</trkpt>
<trkpt lat="31.6088700" lon="35.3594800">
<ele>10.700001</ele>
<time>2023-03-16T18:33:48.656Z</time>
</trkpt>
<trkpt lat="31.6087800" lon="35.3596200">
<ele>9.900001</ele>
<time>2023-03-16T18:33:48.656Z</time>
</trkpt>
<trkpt lat="31.6079000" lon="35.3603900">
<ele>-1.570000</ele>
<time>2023-03-16T18:33:48.656Z</time>
</trkpt>
<trkpt lat="31.6077900" lon="35.3605200">
<ele>-1.430000</ele>
<time>2023-03-16T18:33:48.656Z</time>
</trkpt>
<trkpt lat="31.6076800" lon="35.3605500">
<ele>-1.080000</ele>
<time>2023-03-16T18:33:48.656Z</time>
</trkpt>
<trkpt lat="31.6076400" lon="35.3605300">
<ele>-1.410000</ele>
<time>2023-03-16T18:33:48.656Z</time>
</trkpt>
<trkpt lat="31.6076200" lon="35.3604600">
<ele>-2.620000</ele>
<time>2023-03-16T18:33:48.656Z</time>
</trkpt>
<trkpt lat="31.6076200" lon="35.3603000">
<ele>-5.330000</ele>
<time>2023-03-16T18:33:48.656Z</time>
</trkpt>
<trkpt lat="31.6075700" lon="35.3601000">
<ele>-7.360000</ele>
<time>2023-03-16T18:33:48.656Z</time>
</trkpt>
<trkpt lat="31.6075600" lon="35.3599900">
<ele>-7.990000</ele>
<time>2023-03-16T18:33:48.656Z</time>
</trkpt>
<trkpt lat="31.6075300" lon="35.3598700">
<ele>-6.700000</ele>
<time>2023-03-16T18:33:48.656Z</time>
</trkpt>
<trkpt lat="31.6075000" lon="35.3598100">
<ele>-6.260000</ele>
<time>2023-03-16T18:33:48.656Z</time>
</trkpt>
<trkpt lat="31.6074300" lon="35.3597100">
<ele>-5.360000</ele>
<time>2023-03-16T18:33:48.656Z</time>
</trkpt>
<trkpt lat="31.6073300" lon="35.3596600">
<ele>-6.060000</ele>
<time>2023-03-16T18:33:48.656Z</time>
</trkpt>
<trkpt lat="31.6072100" lon="35.3596500">
<ele>-7.640000</ele>
<time>2023-03-16T18:33:48.656Z</time>
</trkpt>
<trkpt lat="31.6069800" lon="35.3597400">
<ele>-10.260000</ele>
<time>2023-03-16T18:33:48.656Z</time>
</trkpt>
<trkpt lat="31.6068500" lon="35.3597700">
<ele>-10.020000</ele>
<time>2023-03-16T18:33:48.656Z</time>
</trkpt>
<trkpt lat="31.6062700" lon="35.3598300">
<ele>-5.370000</ele>
<time>2023-03-16T18:33:48.656Z</time>
</trkpt>
<trkpt lat="31.6059400" lon="35.3599400">
<ele>-2.160000</ele>
<time>2023-03-16T18:33:48.656Z</time>
</trkpt>
<trkpt lat="31.6057400" lon="35.3600500">
<ele>-1.550000</ele>
<time>2023-03-16T18:33:48.656Z</time>
</trkpt>
<trkpt lat="31.6056500" lon="35.3601300">
<ele>-1.640000</ele>
<time>2023-03-16T18:33:48.656Z</time>
</trkpt>
<trkpt lat="31.6055800" lon="35.3602400">
<ele>-2.510000</ele>
<time>2023-03-16T18:33:48.656Z</time>
</trkpt>
<trkpt lat="31.6053200" lon="35.3608000">
<ele>0.590000</ele>
<time>2023-03-16T18:33:48.656Z</time>
</trkpt>
<trkpt lat="31.6052700" lon="35.3608300">
<ele>-0.210000</ele>
<time>2023-03-16T18:33:48.656Z</time>
</trkpt>
<trkpt lat="31.6051800" lon="35.3608500">
<ele>-2.190000</ele>
<time>2023-03-16T18:33:48.656Z</time>
</trkpt>
<trkpt lat="31.6051300" lon="35.3608800">
<ele>-2.970000</ele>
<time>2023-03-16T18:33:48.656Z</time>
</trkpt>
<trkpt lat="31.6050300" lon="35.3610200">
<ele>-3.480000</ele>
<time>2023-03-16T18:33:48.656Z</time>
</trkpt>
<trkpt lat="31.6049300" lon="35.3611200">
<ele>-4.660000</ele>
<time>2023-03-16T18:33:48.656Z</time>
</trkpt>
<trkpt lat="31.6048300" lon="35.3611400">
<ele>-7.060000</ele>
<time>2023-03-16T18:33:48.656Z</time>
</trkpt>
<trkpt lat="31.6047400" lon="35.3612000">
<ele>-9.170000</ele>
<time>2023-03-16T18:33:48.656Z</time>
</trkpt>
<trkpt lat="31.6046300" lon="35.3613300">
<ele>-9.590000</ele>
<time>2023-03-16T18:33:48.656Z</time>
</trkpt>
<trkpt lat="31.6045500" lon="35.3613800">
<ele>-10.190001</ele>
<time>2023-03-16T18:33:48.656Z</time>
</trkpt>
<trkpt lat="31.6042400" lon="35.3617200">
<ele>-10.650000</ele>
<time>2023-03-16T18:33:48.656Z</time>
</trkpt>
<trkpt lat="31.6041400" lon="35.3618000">
<ele>-9.799999</ele>
<time>2023-03-16T18:33:48.656Z</time>
</trkpt>
<trkpt lat="31.6039200" lon="35.3619000">
<ele>-8.830000</ele>
<time>2023-03-16T18:33:48.656Z</time>
</trkpt>
<trkpt lat="31.6036800" lon="35.3620500">
<ele>-7.780000</ele>
<time>2023-03-16T18:33:48.656Z</time>
</trkpt>
<trkpt lat="31.6035500" lon="35.3620700">
<ele>-7.110000</ele>
<time>2023-03-16T18:33:48.656Z</time>
</trkpt>
<trkpt lat="31.6033900" lon="35.3620700">
<ele>-6.220000</ele>
<time>2023-03-16T18:33:48.656Z</time>
</trkpt>
<trkpt lat="31.6033200" lon="35.3620900">
<ele>-5.930000</ele>
<time>2023-03-16T18:33:48.656Z</time>
</trkpt>
<trkpt lat="31.6031500" lon="35.3621900">
<ele>-5.880000</ele>
<time>2023-03-16T18:33:48.656Z</time>
</trkpt>
<trkpt lat="31.6029900" lon="35.3623300">
<ele>-6.520000</ele>
<time>2023-03-16T18:33:48.656Z</time>
</trkpt>
<trkpt lat="31.6029400" lon="35.3623800">
<ele>-6.340000</ele>
<time>2023-03-16T18:33:48.656Z</time>
</trkpt>
<trkpt lat="31.6029000" lon="35.3624500">
<ele>-6.740000</ele>
<time>2023-03-16T18:33:48.656Z</time>
</trkpt>
<trkpt lat="31.6026700" lon="35.3628000">
<ele>-8.350000</ele>
<time>2023-03-16T18:33:48.656Z</time>
</trkpt>
<trkpt lat="31.6025600" lon="35.3630800">
<ele>-8.650000</ele>
<time>2023-03-16T18:33:48.656Z</time>
</trkpt>
<trkpt lat="31.6024300" lon="35.3632900">
<ele>-7.630000</ele>
<time>2023-03-16T18:33:48.656Z</time>
</trkpt>
<trkpt lat="31.6023600" lon="35.3633700">
<ele>-7.690000</ele>
<time>2023-03-16T18:33:48.656Z</time>
</trkpt>
<trkpt lat="31.6019900" lon="35.3636900">
<ele>-11.430000</ele>
<time>2023-03-16T18:33:48.656Z</time>
</trkpt>
<trkpt lat="31.6017100" lon="35.3638700">
<ele>-13.680000</ele>
<time>2023-03-16T18:33:48.656Z</time>
</trkpt>
<trkpt lat="31.6015100" lon="35.3640200">
<ele>-14.490001</ele>
<time>2023-03-16T18:33:48.656Z</time>
</trkpt>
<trkpt lat="31.6013000" lon="35.3642400">
<ele>-15.390000</ele>
<time>2023-03-16T18:33:48.656Z</time>
</trkpt>
<trkpt lat="31.6010100" lon="35.3644900">
<ele>-16.750000</ele>
<time>2023-03-16T18:33:48.656Z</time>
</trkpt>
<trkpt lat="31.6007500" lon="35.3646900">
<ele>-20.520000</ele>
<time>2023-03-16T18:33:48.656Z</time>
</trkpt>
<trkpt lat="31.6006500" lon="35.3648100">
<ele>-22.609999</ele>
<time>2023-03-16T18:33:48.656Z</time>
</trkpt>
<trkpt lat="31.6005000" lon="35.3650500">
<ele>-24.400000</ele>
<time>2023-03-16T18:33:48.656Z</time>
</trkpt>
<trkpt lat="31.6005000" lon="35.3651100">
<ele>-24.400000</ele>
<time>2023-03-16T18:33:48.656Z</time>
</trkpt>
<trkpt lat="31.6004900" lon="35.3652800">
<ele>-24.279999</ele>
<time>2023-03-16T18:33:48.656Z</time>
</trkpt>
<trkpt lat="31.6004500" lon="35.3653800">
<ele>-23.400000</ele>
<time>2023-03-16T18:33:48.656Z</time>
</trkpt>
<trkpt lat="31.6003600" lon="35.3655700">
<ele>-22.150000</ele>
<time>2023-03-16T18:33:48.656Z</time>
</trkpt>
<trkpt lat="31.6002600" lon="35.3657600">
<ele>-20.750000</ele>
<time>2023-03-16T18:33:48.656Z</time>
</trkpt>
<trkpt lat="31.6001800" lon="35.3658400">
<ele>-21.330000</ele>
<time>2023-03-16T18:33:48.656Z</time>
</trkpt>
<trkpt lat="31.5999700" lon="35.3659500">
<ele>-22.120001</ele>
<time>2023-03-16T18:33:48.656Z</time>
</trkpt>
<trkpt lat="31.5999200" lon="35.3659700">
<ele>-21.459999</ele>
<time>2023-03-16T18:33:48.656Z</time>
</trkpt>
<trkpt lat="31.5998300" lon="35.3659700">
<ele>-20.820000</ele>
<time>2023-03-16T18:33:48.656Z</time>
</trkpt>
<trkpt lat="31.5997800" lon="35.3659500">
<ele>-20.860001</ele>
<time>2023-03-16T18:33:48.656Z</time>
</trkpt>
<trkpt lat="31.5997300" lon="35.3659000">
<ele>-21.600000</ele>
<time>2023-03-16T18:33:48.656Z</time>
</trkpt>
<trkpt lat="31.5996900" lon="35.3658000">
<ele>-22.350000</ele>
<time>2023-03-16T18:33:48.656Z</time>
</trkpt>
<trkpt lat="31.5996600" lon="35.3657500">
<ele>-21.930000</ele>
<time>2023-03-16T18:33:48.656Z</time>
</trkpt>
<trkpt lat="31.5995800" lon="35.3656600">
<ele>-21.000000</ele>
<time>2023-03-16T18:33:48.656Z</time>
</trkpt>
<trkpt lat="31.5995200" lon="35.3656300">
<ele>-20.230000</ele>
<time>2023-03-16T18:33:48.656Z</time>
</trkpt>
<trkpt lat="31.5994600" lon="35.3656100">
<ele>-19.469999</ele>
<time>2023-03-16T18:33:48.656Z</time>
</trkpt>
<trkpt lat="31.5993900" lon="35.3656100">
<ele>-18.199999</ele>
<time>2023-03-16T18:33:48.656Z</time>
</trkpt>
<trkpt lat="31.5992400" lon="35.3656700">
<ele>-14.370000</ele>
<time>2023-03-16T18:33:48.656Z</time>
</trkpt>
<trkpt lat="31.5991400" lon="35.3657500">
<ele>-11.180000</ele>
<time>2023-03-16T18:33:48.656Z</time>
</trkpt>
<trkpt lat="31.5986200" lon="35.3659700">
<ele>-5.060000</ele>
<time>2023-03-16T18:33:48.656Z</time>
</trkpt>
<trkpt lat="31.5984800" lon="35.3661200">
<ele>-3.530000</ele>
<time>2023-03-16T18:33:48.656Z</time>
</trkpt>
<trkpt lat="31.5982400" lon="35.3664300">
<ele>-3.150000</ele>
<time>2023-03-16T18:33:48.656Z</time>
</trkpt>
<trkpt lat="31.5981700" lon="35.3665400">
<ele>-3.490000</ele>
<time>2023-03-16T18:33:48.656Z</time>
</trkpt>
<trkpt lat="31.5981000" lon="35.3667500">
<ele>-3.160000</ele>
<time>2023-03-16T18:33:48.656Z</time>
</trkpt>
<trkpt lat="31.5979700" lon="35.3669200">
<ele>-2.230000</ele>
<time>2023-03-16T18:33:48.656Z</time>
</trkpt>
<trkpt lat="31.5978500" lon="35.3669800">
<ele>-1.810000</ele>
<time>2023-03-16T18:33:48.656Z</time>
</trkpt>
<trkpt lat="31.5975700" lon="35.3670400">
<ele>-2.040000</ele>
<time>2023-03-16T18:33:48.656Z</time>
</trkpt>
<trkpt lat="31.5972800" lon="35.3671400">
<ele>-2.940000</ele>
<time>2023-03-16T18:33:48.656Z</time>
</trkpt>
<trkpt lat="31.5972100" lon="35.3671800">
<ele>-3.130000</ele>
<time>2023-03-16T18:33:48.656Z</time>
</trkpt>
<trkpt lat="31.5969400" lon="35.3674200">
<ele>1.690000</ele>
<time>2023-03-16T18:33:48.656Z</time>
</trkpt>
<trkpt lat="31.5968500" lon="35.3675500">
<ele>1.840000</ele>
<time>2023-03-16T18:33:48.656Z</time>
</trkpt>
<trkpt lat="31.5967800" lon="35.3677200">
<ele>2.810000</ele>
<time>2023-03-16T18:33:48.656Z</time>
</trkpt>
<trkpt lat="31.5965500" lon="35.3680300">
<ele>3.120000</ele>
<time>2023-03-16T18:33:48.656Z</time>
</trkpt>
<trkpt lat="31.5964600" lon="35.3681900">
<ele>3.600000</ele>
<time>2023-03-16T18:33:48.656Z</time>
</trkpt>
<trkpt lat="31.5963300" lon="35.3685200">
<ele>5.520000</ele>
<time>2023-03-16T18:33:48.656Z</time>
</trkpt>
<trkpt lat="31.5963000" lon="35.3685600">
<ele>5.610000</ele>
<time>2023-03-16T18:33:48.656Z</time>
</trkpt>
<trkpt lat="31.5963000" lon="35.3685600">
<ele>5.610000</ele>
<time>2023-03-16T18:33:48.656Z</time>
</trkpt>
<trkpt lat="31.5963000" lon="35.3685600">
<ele>5.610000</ele>
<time>2023-03-16T18:33:48.656Z</time>
</trkpt>
<trkpt lat="31.5960800" lon="35.3688400">
<ele>4.840000</ele>
<time>2023-03-16T18:33:48.656Z</time>
</trkpt>
<trkpt lat="31.5958500" lon="35.3692600">
<ele>6.730000</ele>
<time>2023-03-16T18:33:48.656Z</time>
</trkpt>
<trkpt lat="31.5957200" lon="35.3695400">
<ele>8.620000</ele>
<time>2023-03-16T18:33:48.656Z</time>
</trkpt>
<trkpt lat="31.5955200" lon="35.3698000">
<ele>10.330000</ele>
<time>2023-03-16T18:33:48.656Z</time>
</trkpt>
<trkpt lat="31.5951900" lon="35.3700500">
<ele>9.220000</ele>
<time>2023-03-16T18:33:48.656Z</time>
</trkpt>
<trkpt lat="31.5947500" lon="35.3704300">
<ele>15.340000</ele>
<time>2023-03-16T18:33:48.656Z</time>
</trkpt>
<trkpt lat="31.5943800" lon="35.3706500">
<ele>20.370001</ele>
<time>2023-03-16T18:33:48.656Z</time>
</trkpt>
<trkpt lat="31.5941900" lon="35.3708400">
<ele>20.209999</ele>
<time>2023-03-16T18:33:48.656Z</time>
</trkpt>
<trkpt lat="31.5939900" lon="35.3711000">
<ele>16.250000</ele>
<time>2023-03-16T18:33:48.656Z</time>
</trkpt>
<trkpt lat="31.5938100" lon="35.3712700">
<ele>12.680000</ele>
<time>2023-03-16T18:33:48.656Z</time>
</trkpt>
<trkpt lat="31.5935500" lon="35.3716000">
<ele>11.270000</ele>
<time>2023-03-16T18:33:48.656Z</time>
</trkpt>
<trkpt lat="31.5933600" lon="35.3718800">
<ele>10.850000</ele>
<time>2023-03-16T18:33:48.656Z</time>
</trkpt>
<trkpt lat="31.5928300" lon="35.3724300">
<ele>11.370000</ele>
<time>2023-03-16T18:33:48.656Z</time>
</trkpt>
<trkpt lat="31.5927800" lon="35.3724500">
<ele>11.300000</ele>
<time>2023-03-16T18:33:48.656Z</time>
</trkpt>
<trkpt lat="31.5926000" lon="35.3726800">
<ele>9.220000</ele>
<time>2023-03-16T18:33:48.656Z</time>
</trkpt>
<trkpt lat="31.5924700" lon="35.3727800">
<ele>8.030000</ele>
<time>2023-03-16T18:33:48.656Z</time>
</trkpt>
<trkpt lat="31.5924200" lon="35.3728500">
<ele>8.889999</ele>
<time>2023-03-16T18:33:48.656Z</time>
</trkpt>
<trkpt lat="31.5923200" lon="35.3731800">
<ele>12.050000</ele>
<time>2023-03-16T18:33:48.656Z</time>
</trkpt>
<trkpt lat="31.5920700" lon="35.3736000">
<ele>14.920000</ele>
<time>2023-03-16T18:33:48.656Z</time>
</trkpt>
<trkpt lat="31.5919900" lon="35.3737900">
<ele>17.139999</ele>
<time>2023-03-16T18:33:48.656Z</time>
</trkpt>
<trkpt lat="31.5919100" lon="35.3740400">
<ele>20.650000</ele>
<time>2023-03-16T18:33:48.656Z</time>
</trkpt>
<trkpt lat="31.5915800" lon="35.3748700">
<ele>31.950001</ele>
<time>2023-03-16T18:33:48.656Z</time>
</trkpt>
<trkpt lat="31.5914800" lon="35.3751500">
<ele>33.959999</ele>
<time>2023-03-16T18:33:48.656Z</time>
</trkpt>
<trkpt lat="31.5914100" lon="35.3754600">
<ele>36.450001</ele>
<time>2023-03-16T18:33:48.656Z</time>
</trkpt>
<trkpt lat="31.5913400" lon="35.3759600">
<ele>33.020000</ele>
<time>2023-03-16T18:33:48.656Z</time>
</trkpt>
<trkpt lat="31.5913200" lon="35.3762700">
<ele>28.650000</ele>
<time>2023-03-16T18:33:48.656Z</time>
</trkpt>
<trkpt lat="31.5912700" lon="35.3765600">
<ele>24.779999</ele>
<time>2023-03-16T18:33:48.656Z</time>
</trkpt>
<trkpt lat="31.5912700" lon="35.3766700">
<ele>23.580000</ele>
<time>2023-03-16T18:33:48.656Z</time>
</trkpt>
<trkpt lat="31.5912700" lon="35.3768600">
<ele>24.270000</ele>
<time>2023-03-16T18:33:48.656Z</time>
</trkpt>
<trkpt lat="31.5912500" lon="35.3769200">
<ele>24.410000</ele>
<time>2023-03-16T18:33:48.656Z</time>
</trkpt>
<trkpt lat="31.5911000" lon="35.3771000">
<ele>26.200001</ele>
<time>2023-03-16T18:33:48.656Z</time>
</trkpt>
<trkpt lat="31.5910500" lon="35.3772000">
<ele>27.280001</ele>
<time>2023-03-16T18:33:48.656Z</time>
</trkpt>
<trkpt lat="31.5908900" lon="35.3777000">
<ele>29.920000</ele>
<time>2023-03-16T18:33:48.656Z</time>
</trkpt>
<trkpt lat="31.5907900" lon="35.3780900">
<ele>31.389999</ele>
<time>2023-03-16T18:33:48.656Z</time>
</trkpt>
<trkpt lat="31.5904600" lon="35.3791600">
<ele>23.020000</ele>
<time>2023-03-16T18:33:48.656Z</time>
</trkpt>
<trkpt lat="31.5903600" lon="35.3796400">
<ele>25.910000</ele>
<time>2023-03-16T18:33:48.656Z</time>
</trkpt>
<trkpt lat="31.5901900" lon="35.3802600">
<ele>27.400000</ele>
<time>2023-03-16T18:33:48.656Z</time>
</trkpt>
<trkpt lat="31.5901700" lon="35.3804600">
<ele>26.260000</ele>
<time>2023-03-16T18:33:48.656Z</time>
</trkpt>
<trkpt lat="31.5901900" lon="35.3807700">
<ele>25.280001</ele>
<time>2023-03-16T18:33:48.656Z</time>
</trkpt>
<trkpt lat="31.5902400" lon="35.3809800">
<ele>25.060001</ele>
<time>2023-03-16T18:33:48.656Z</time>
</trkpt>
<trkpt lat="31.5902500" lon="35.3811700">
<ele>24.510000</ele>
<time>2023-03-16T18:33:48.656Z</time>
</trkpt>
<trkpt lat="31.5902800" lon="35.3813400">
<ele>24.180000</ele>
<time>2023-03-16T18:33:48.656Z</time>
</trkpt>
<trkpt lat="31.5903300" lon="35.3818100">
<ele>22.670000</ele>
<time>2023-03-16T18:33:48.656Z</time>
</trkpt>
<trkpt lat="31.5903300" lon="35.3818100">
<ele>22.670000</ele>
<time>2023-03-16T18:33:48.656Z</time>
</trkpt>
<trkpt lat="31.5903300" lon="35.3818100">
<ele>22.670000</ele>
<time>2023-03-16T18:33:48.656Z</time>
</trkpt>
<trkpt lat="31.5903500" lon="35.3820300">
<ele>21.879999</ele>
<time>2023-03-16T18:33:48.656Z</time>
</trkpt>
<trkpt lat="31.5904700" lon="35.3824600">
<ele>19.340000</ele>
<time>2023-03-16T18:33:48.656Z</time>
</trkpt>
<trkpt lat="31.5905800" lon="35.3826900">
<ele>18.300001</ele>
<time>2023-03-16T18:33:48.656Z</time>
</trkpt>
<trkpt lat="31.5907100" lon="35.3830100">
<ele>17.090000</ele>
<time>2023-03-16T18:33:48.656Z</time>
</trkpt>
<trkpt lat="31.5908200" lon="35.3834000">
<ele>14.710000</ele>
<time>2023-03-16T18:33:48.656Z</time>
</trkpt>
<trkpt lat="31.5910200" lon="35.3842200">
<ele>8.490000</ele>
<time>2023-03-16T18:33:48.656Z</time>
</trkpt>
<trkpt lat="31.5911600" lon="35.3849700">
<ele>2.440000</ele>
<time>2023-03-16T18:33:48.656Z</time>
</trkpt>
<trkpt lat="31.5912500" lon="35.3857100">
<ele>0.440000</ele>
<time>2023-03-16T18:33:48.656Z</time>
</trkpt>
<trkpt lat="31.5913200" lon="35.3859800">
<ele>0.630000</ele>
<time>2023-03-16T18:33:48.656Z</time>
</trkpt>
<trkpt lat="31.5913800" lon="35.3861000">
<ele>0.970000</ele>
<time>2023-03-16T18:33:48.656Z</time>
</trkpt>
<trkpt lat="31.5914300" lon="35.3863100">
<ele>0.730000</ele>
<time>2023-03-16T18:33:48.656Z</time>
</trkpt>
<trkpt lat="31.5914900" lon="35.3864700">
<ele>0.910000</ele>
<time>2023-03-16T18:33:48.656Z</time>
</trkpt>
<trkpt lat="31.5915200" lon="35.3866000">
<ele>1.010000</ele>
<time>2023-03-16T18:33:48.656Z</time>
</trkpt>
<trkpt lat="31.5914900" lon="35.3867600">
<ele>0.330000</ele>
<time>2023-03-16T18:33:48.656Z</time>
</trkpt>
<trkpt lat="31.5913100" lon="35.3871100">
<ele>-3.190000</ele>
<time>2023-03-16T18:33:48.656Z</time>
</trkpt>
<trkpt lat="31.5912700" lon="35.3872700">
<ele>-4.910000</ele>
<time>2023-03-16T18:33:48.656Z</time>
</trkpt>
<trkpt lat="31.5912800" lon="35.3873900">
<ele>-5.560000</ele>
<time>2023-03-16T18:33:48.656Z</time>
</trkpt>
<trkpt lat="31.5913900" lon="35.3876800">
<ele>-5.290000</ele>
<time>2023-03-16T18:33:48.656Z</time>
</trkpt>
<trkpt lat="31.5914100" lon="35.3877600">
<ele>-5.720000</ele>
<time>2023-03-16T18:33:48.656Z</time>
</trkpt>
<trkpt lat="31.5914200" lon="35.3881200">
<ele>-6.640000</ele>
<time>2023-03-16T18:33:48.656Z</time>
</trkpt>
<trkpt lat="31.5914000" lon="35.3882000">
<ele>-6.860000</ele>
<time>2023-03-16T18:33:48.656Z</time>
</trkpt>
<trkpt lat="31.5912700" lon="35.3885700">
<ele>-7.860000</ele>
<time>2023-03-16T18:33:48.656Z</time>
</trkpt>
<trkpt lat="31.5911100" lon="35.3889200">
<ele>-5.890000</ele>
<time>2023-03-16T18:33:48.656Z</time>
</trkpt>
<trkpt lat="31.5910400" lon="35.3890400">
<ele>-5.600000</ele>
<time>2023-03-16T18:33:48.656Z</time>
</trkpt>
<trkpt lat="31.5909400" lon="35.3892100">
<ele>-5.500000</ele>
<time>2023-03-16T18:33:48.656Z</time>
</trkpt>
<trkpt lat="31.5907400" lon="35.3894000">
<ele>-5.890000</ele>
<time>2023-03-16T18:33:48.656Z</time>
</trkpt>
<trkpt lat="31.5906800" lon="35.3894800">
<ele>-6.030000</ele>
<time>2023-03-16T18:33:48.656Z</time>
</trkpt>
<trkpt lat="31.5906300" lon="35.3895900">
<ele>-6.490000</ele>
<time>2023-03-16T18:33:48.656Z</time>
</trkpt>
<trkpt lat="31.5906000" lon="35.3896900">
<ele>-7.200000</ele>
<time>2023-03-16T18:33:48.656Z</time>
</trkpt>
<trkpt lat="31.5905800" lon="35.3898300">
<ele>-6.550000</ele>
<time>2023-03-16T18:33:48.656Z</time>
</trkpt>
<trkpt lat="31.5905800" lon="35.3902400">
<ele>-6.480000</ele>
<time>2023-03-16T18:33:48.656Z</time>
</trkpt>
<trkpt lat="31.5905700" lon="35.3904900">
<ele>-6.840000</ele>
<time>2023-03-16T18:33:48.656Z</time>
</trkpt>
<trkpt lat="31.5905200" lon="35.3907400">
<ele>-6.720000</ele>
<time>2023-03-16T18:33:48.656Z</time>
</trkpt>
<trkpt lat="31.5903900" lon="35.3911900">
<ele>-5.220000</ele>
<time>2023-03-16T18:33:48.656Z</time>
</trkpt>
<trkpt lat="31.5902600" lon="35.3915000">
<ele>-4.560000</ele>
<time>2023-03-16T18:33:48.656Z</time>
</trkpt>
<trkpt lat="31.5902100" lon="35.3916700">
<ele>-4.200000</ele>
<time>2023-03-16T18:33:48.656Z</time>
</trkpt>
<trkpt lat="31.5901900" lon="35.3917500">
<ele>-3.980000</ele>
<time>2023-03-16T18:33:48.656Z</time>
</trkpt>
<trkpt lat="31.5901700" lon="35.3918800">
<ele>-3.400000</ele>
<time>2023-03-16T18:33:48.656Z</time>
</trkpt>
<trkpt lat="31.5901600" lon="35.3921700">
<ele>-4.060000</ele>
<time>2023-03-16T18:33:48.656Z</time>
</trkpt>
<trkpt lat="31.5901300" lon="35.3923100">
<ele>-5.040000</ele>
<time>2023-03-16T18:33:48.656Z</time>
</trkpt>
<trkpt lat="31.5901000" lon="35.3923900">
<ele>-5.570000</ele>
<time>2023-03-16T18:33:48.656Z</time>
</trkpt>
<trkpt lat="31.5900600" lon="35.3924600">
<ele>-5.910000</ele>
<time>2023-03-16T18:33:48.656Z</time>
</trkpt>
<trkpt lat="31.5900200" lon="35.3925200">
<ele>-5.940000</ele>
<time>2023-03-16T18:33:48.656Z</time>
</trkpt>
<trkpt lat="31.5899600" lon="35.3925800">
<ele>-5.630000</ele>
<time>2023-03-16T18:33:48.656Z</time>
</trkpt>
<trkpt lat="31.5899100" lon="35.3926400">
<ele>-5.170000</ele>
<time>2023-03-16T18:33:48.656Z</time>
</trkpt>
<trkpt lat="31.5898600" lon="35.3926900">
<ele>-4.630000</ele>
<time>2023-03-16T18:33:48.656Z</time>
</trkpt>
<trkpt lat="31.5898200" lon="35.3927200">
<ele>-4.180000</ele>
<time>2023-03-16T18:33:48.656Z</time>
</trkpt>
<trkpt lat="31.5898200" lon="35.3927200">
<ele>-4.180000</ele>
<time>2023-03-16T18:33:48.656Z</time>
</trkpt>
</trkseg>
</trk>
</gpx>
